<?xml version='1.0' encoding='UTF-8'?><gpx version="1.1" creator="JPX - https://github.com/jenetics/jpx" xmlns="http://www.topografix.com/GPX/1/1"><trk><trkseg><trkpt lat="45.59143220501247" lon="8.93600278090795"><ele>203.00000000000003</ele><time>2026-04-19T13:48:59Z</time></trkpt><trkpt lat="45.59141024921423" lon="8.936089974199295"><ele>203.0</ele><time>2026-04-19T13:49:01Z</time></trkpt><trkpt lat="45.5913411192193" lon="8.936121840070701"><ele>203.0</ele><time>2026-04-19T13:49:13.999Z</time></trkpt><trkpt lat="45.59131275971641" lon="8.936244549936434"><ele>203.0</ele><time>2026-04-19T13:49:16.999Z</time></trkpt><trkpt lat="45.59124686502069" lon="8.936386999692564"><ele>203.00000000000003</ele><time>2026-04-19T13:49:18.999Z</time></trkpt><trkpt lat="45.591208339232374" lon="8.93647066920204"><ele>203.0</ele><time>2026-04-19T13:49:19.999Z</time></trkpt><trkpt lat="45.59116837116184" lon="8.93656152469068"><ele>202.60000000000002</ele><time>2026-04-19T13:49:20.999Z</time></trkpt><trkpt lat="45.5911287569411" lon="8.936656546301089"><ele>202.20000000000002</ele><time>2026-04-19T13:49:21.999Z</time></trkpt><trkpt lat="45.5910662179144" lon="8.936774402201774"><ele>201.8</ele><time>2026-04-19T13:49:23.999Z</time></trkpt><trkpt lat="45.590954958664284" lon="8.936877566449688"><ele>201.4</ele><time>2026-04-19T13:49:25.999Z</time></trkpt><trkpt lat="45.59088358235753" lon="8.936936834281653"><ele>201.0</ele><time>2026-04-19T13:49:26.999Z</time></trkpt><trkpt lat="45.59081430451918" lon="8.937008687111302"><ele>201.0</ele><time>2026-04-19T13:49:27.999Z</time></trkpt><trkpt lat="45.59073921622871" lon="8.937089262045712"><ele>201.0</ele><time>2026-04-19T13:49:28.999Z</time></trkpt><trkpt lat="45.59065731681242" lon="8.937172430423146"><ele>201.0</ele><time>2026-04-19T13:49:29.999Z</time></trkpt><trkpt lat="45.5905759085364" lon="8.937259054904548"><ele>201.0</ele><time>2026-04-19T13:49:30.999Z</time></trkpt><trkpt lat="45.59049566013254" lon="8.937355153001652"><ele>201.0</ele><time>2026-04-19T13:49:31.999Z</time></trkpt><trkpt lat="45.590411493698475" lon="8.937447367004173"><ele>200.8</ele><time>2026-04-19T13:49:32.999Z</time></trkpt><trkpt lat="45.59033589109888" lon="8.937541893677633"><ele>200.60000000000002</ele><time>2026-04-19T13:49:33.999Z</time></trkpt><trkpt lat="45.59026141603731" lon="8.93764132478993"><ele>200.4</ele><time>2026-04-19T13:49:34.999Z</time></trkpt><trkpt lat="45.59018023925184" lon="8.93773821028255"><ele>200.2</ele><time>2026-04-19T13:49:35.999Z</time></trkpt><trkpt lat="45.59010190229356" lon="8.937835858890011"><ele>200.0</ele><time>2026-04-19T13:49:36.999Z</time></trkpt><trkpt lat="45.59001416846958" lon="8.937927548683527"><ele>200.0</ele><time>2026-04-19T13:49:37.999Z</time></trkpt><trkpt lat="45.589921728659" lon="8.938017145134188"><ele>200.0</ele><time>2026-04-19T13:49:38.999Z</time></trkpt><trkpt lat="45.58981840783462" lon="8.938105647389786"><ele>200.0</ele><time>2026-04-19T13:49:39.999Z</time></trkpt><trkpt lat="45.589719337414685" lon="8.938189963936054"><ele>200.0</ele><time>2026-04-19T13:49:40.999Z</time></trkpt><trkpt lat="45.589607418275456" lon="8.938272254119747"><ele>199.75</ele><time>2026-04-19T13:49:41.999Z</time></trkpt><trkpt lat="45.58950341964964" lon="8.938349926580356"><ele>199.5</ele><time>2026-04-19T13:49:42.999Z</time></trkpt><trkpt lat="45.589404531745494" lon="8.938433398393785"><ele>199.25</ele><time>2026-04-19T13:49:43.999Z</time></trkpt><trkpt lat="45.589299035733205" lon="8.938510609209134"><ele>199.0</ele><time>2026-04-19T13:49:44.999Z</time></trkpt><trkpt lat="45.58919410170346" lon="8.938591603087024"><ele>199.0</ele><time>2026-04-19T13:49:45.999Z</time></trkpt><trkpt lat="45.58908592707741" lon="8.938679349106328"><ele>199.0</ele><time>2026-04-19T13:49:46.999Z</time></trkpt><trkpt lat="45.58897248329535" lon="8.938756620495047"><ele>199.0</ele><time>2026-04-19T13:49:47.999Z</time></trkpt><trkpt lat="45.58886697479327" lon="8.938852577619006"><ele>199.0</ele><time>2026-04-19T13:49:48.999Z</time></trkpt><trkpt lat="45.58876077525591" lon="8.938940327245144"><ele>198.75</ele><time>2026-04-19T13:49:49.999Z</time></trkpt><trkpt lat="45.588665514509934" lon="8.939016704901002"><ele>198.5</ele><time>2026-04-19T13:49:50.999Z</time></trkpt><trkpt lat="45.58856621077924" lon="8.93909578666289"><ele>198.25</ele><time>2026-04-19T13:49:51.999Z</time></trkpt><trkpt lat="45.58846262835469" lon="8.939181746430087"><ele>198.0</ele><time>2026-04-19T13:49:52.999Z</time></trkpt><trkpt lat="45.588358848092355" lon="8.939276797677616"><ele>198.0</ele><time>2026-04-19T13:49:53.999Z</time></trkpt><trkpt lat="45.58825615542939" lon="8.939383501959306"><ele>198.0</ele><time>2026-04-19T13:49:54.999Z</time></trkpt><trkpt lat="45.58815989586687" lon="8.939508359200726"><ele>198.0</ele><time>2026-04-19T13:49:55.999Z</time></trkpt><trkpt lat="45.588071586750246" lon="8.939648402473107"><ele>198.0</ele><time>2026-04-19T13:49:56.999Z</time></trkpt><trkpt lat="45.58799281211089" lon="8.939799294110808"><ele>198.0</ele><time>2026-04-19T13:49:57.999Z</time></trkpt><trkpt lat="45.58790818355208" lon="8.939943428947357"><ele>198.0</ele><time>2026-04-19T13:49:58.999Z</time></trkpt><trkpt lat="45.587822994720874" lon="8.940080981603845"><ele>198.0</ele><time>2026-04-19T13:49:59.999Z</time></trkpt><trkpt lat="45.587743479778936" lon="8.940215894192434"><ele>198.0</ele><time>2026-04-19T13:50:00.999Z</time></trkpt><trkpt lat="45.5876662001822" lon="8.940344561997565"><ele>198.0</ele><time>2026-04-19T13:50:01.999Z</time></trkpt><trkpt lat="45.58758497815848" lon="8.940473140564858"><ele>198.0</ele><time>2026-04-19T13:50:02.999Z</time></trkpt><trkpt lat="45.58750455027065" lon="8.940606406584218"><ele>198.0</ele><time>2026-04-19T13:50:03.999Z</time></trkpt><trkpt lat="45.5874354148861" lon="8.940738213837715"><ele>198.0</ele><time>2026-04-19T13:50:04.999Z</time></trkpt><trkpt lat="45.587366099508976" lon="8.94085422037235"><ele>198.33333333333334</ele><time>2026-04-19T13:50:05.999Z</time></trkpt><trkpt lat="45.58730177322263" lon="8.940955126896542"><ele>198.66666666666669</ele><time>2026-04-19T13:50:06.999Z</time></trkpt><trkpt lat="45.587244440198205" lon="8.941051662274958"><ele>199.0</ele><time>2026-04-19T13:50:07.999Z</time></trkpt><trkpt lat="45.58719187647495" lon="8.941136877090395"><ele>199.33333333333334</ele><time>2026-04-19T13:50:08.999Z</time></trkpt><trkpt lat="45.587146394565885" lon="8.941213019540776"><ele>199.66666666666669</ele><time>2026-04-19T13:50:09.999Z</time></trkpt><trkpt lat="45.5870961551863" lon="8.941290862333739"><ele>200.0</ele><time>2026-04-19T13:50:10.999Z</time></trkpt><trkpt lat="45.58704933184949" lon="8.941366845101241"><ele>199.83333333333334</ele><time>2026-04-19T13:50:11.999Z</time></trkpt><trkpt lat="45.58700362035081" lon="8.941443413682077"><ele>199.66666666666669</ele><time>2026-04-19T13:50:12.999Z</time></trkpt><trkpt lat="45.586955378005584" lon="8.941527103969284"><ele>199.5</ele><time>2026-04-19T13:50:13.999Z</time></trkpt><trkpt lat="45.58690545401273" lon="8.941596501039996"><ele>199.33333333333331</ele><time>2026-04-19T13:50:14.999Z</time></trkpt><trkpt lat="45.58682951395146" lon="8.941730060753546"><ele>199.16666666666666</ele><time>2026-04-19T13:50:16.999Z</time></trkpt><trkpt lat="45.58677025952824" lon="8.941838692679834"><ele>199.0</ele><time>2026-04-19T13:50:18.999Z</time></trkpt><trkpt lat="45.58671454989464" lon="8.941921370553855"><ele>198.99999999999997</ele><time>2026-04-19T13:50:20.999Z</time></trkpt><trkpt lat="45.58666041252442" lon="8.942008316116107"><ele>199.0</ele><time>2026-04-19T13:50:23.999Z</time></trkpt><trkpt lat="45.58657453245676" lon="8.94206835485926"><ele>199.0</ele><time>2026-04-19T13:50:57.999Z</time></trkpt><trkpt lat="45.586505390654295" lon="8.942185301008825"><ele>199.0</ele><time>2026-04-19T13:50:59.999Z</time></trkpt><trkpt lat="45.58645500248924" lon="8.942288229786744"><ele>198.99999999999997</ele><time>2026-04-19T13:51:01.999Z</time></trkpt><trkpt lat="45.58641138713415" lon="8.942355748552897"><ele>199.0</ele><time>2026-04-19T13:51:03.999Z</time></trkpt><trkpt lat="45.586360824544464" lon="8.942481958608528"><ele>199.39999999999998</ele><time>2026-04-19T13:51:11.999Z</time></trkpt><trkpt lat="45.58631693539304" lon="8.942590001372446"><ele>199.8</ele><time>2026-04-19T13:51:13.999Z</time></trkpt><trkpt lat="45.58624824400016" lon="8.942739157067406"><ele>200.2</ele><time>2026-04-19T13:51:15.999Z</time></trkpt><trkpt lat="45.58620636623706" lon="8.942849427672552"><ele>200.60000000000002</ele><time>2026-04-19T13:51:17.999Z</time></trkpt><trkpt lat="45.58612802780034" lon="8.943011109998729"><ele>201.0</ele><time>2026-04-19T13:51:19.999Z</time></trkpt><trkpt lat="45.586070835706245" lon="8.943096070936859"><ele>200.5</ele><time>2026-04-19T13:51:20.999Z</time></trkpt><trkpt lat="45.58601342576828" lon="8.943187146326634"><ele>200.0</ele><time>2026-04-19T13:51:21.999Z</time></trkpt><trkpt lat="45.5859677213934" lon="8.943277129340883"><ele>199.5</ele><time>2026-04-19T13:51:22.999Z</time></trkpt><trkpt lat="45.58591807665176" lon="8.943363718940697"><ele>199.0</ele><time>2026-04-19T13:51:23.999Z</time></trkpt><trkpt lat="45.58585977953337" lon="8.943442496325744"><ele>198.5</ele><time>2026-04-19T13:51:24.999Z</time></trkpt><trkpt lat="45.58581020037284" lon="8.943525751873814"><ele>198.0</ele><time>2026-04-19T13:51:25.999Z</time></trkpt><trkpt lat="45.58575881932088" lon="8.943612711722546"><ele>198.0</ele><time>2026-04-19T13:51:26.999Z</time></trkpt><trkpt lat="45.58570615724042" lon="8.94370540640527"><ele>198.0</ele><time>2026-04-19T13:51:27.999Z</time></trkpt><trkpt lat="45.585645191537154" lon="8.943804440786087"><ele>198.0</ele><time>2026-04-19T13:51:28.999Z</time></trkpt><trkpt lat="45.585583993788894" lon="8.943900790189586"><ele>198.0</ele><time>2026-04-19T13:51:29.999Z</time></trkpt><trkpt lat="45.58553262296425" lon="8.944016985194779"><ele>198.0</ele><time>2026-04-19T13:51:30.999Z</time></trkpt><trkpt lat="45.58546610581485" lon="8.94411136737477"><ele>198.0</ele><time>2026-04-19T13:51:31.999Z</time></trkpt><trkpt lat="45.58540530371326" lon="8.944203657200209"><ele>198.0</ele><time>2026-04-19T13:51:32.999Z</time></trkpt><trkpt lat="45.58533333039145" lon="8.94430514228072"><ele>198.0</ele><time>2026-04-19T13:51:33.999Z</time></trkpt><trkpt lat="45.58526494245344" lon="8.944389886099522"><ele>198.0</ele><time>2026-04-19T13:51:34.999Z</time></trkpt><trkpt lat="45.585191415230156" lon="8.944494528186665"><ele>198.0</ele><time>2026-04-19T13:51:35.999Z</time></trkpt><trkpt lat="45.58510950183907" lon="8.944596446378748"><ele>197.5</ele><time>2026-04-19T13:51:36.999Z</time></trkpt><trkpt lat="45.58502380371268" lon="8.944701987071749"><ele>197.0</ele><time>2026-04-19T13:51:37.999Z</time></trkpt><trkpt lat="45.584930832533956" lon="8.944819118346185"><ele>196.5</ele><time>2026-04-19T13:51:38.999Z</time></trkpt><trkpt lat="45.58482670837095" lon="8.94493666688149"><ele>196.0</ele><time>2026-04-19T13:51:39.999Z</time></trkpt><trkpt lat="45.58471872200355" lon="8.945050740705854"><ele>195.75</ele><time>2026-04-19T13:51:40.999Z</time></trkpt><trkpt lat="45.584607208590185" lon="8.945162398768455"><ele>195.5</ele><time>2026-04-19T13:51:41.999Z</time></trkpt><trkpt lat="45.584504512766365" lon="8.945270523700357"><ele>195.25</ele><time>2026-04-19T13:51:42.999Z</time></trkpt><trkpt lat="45.584403320279144" lon="8.94537205386449"><ele>195.0</ele><time>2026-04-19T13:51:43.999Z</time></trkpt><trkpt lat="45.58430503308871" lon="8.945487361662675"><ele>195.0</ele><time>2026-04-19T13:51:44.999Z</time></trkpt><trkpt lat="45.5842036897652" lon="8.945597941012705"><ele>195.0</ele><time>2026-04-19T13:51:45.999Z</time></trkpt><trkpt lat="45.58410829220285" lon="8.945714767784397"><ele>195.0</ele><time>2026-04-19T13:51:46.999Z</time></trkpt><trkpt lat="45.58400735626499" lon="8.945831666386963"><ele>195.0</ele><time>2026-04-19T13:51:47.999Z</time></trkpt><trkpt lat="45.583908163566555" lon="8.945954235950827"><ele>194.75</ele><time>2026-04-19T13:51:48.999Z</time></trkpt><trkpt lat="45.58380789658687" lon="8.946073519774847"><ele>194.5</ele><time>2026-04-19T13:51:49.999Z</time></trkpt><trkpt lat="45.583710466083346" lon="8.946210577691494"><ele>194.25</ele><time>2026-04-19T13:51:50.999Z</time></trkpt><trkpt lat="45.583623136312056" lon="8.946342518283709"><ele>194.0</ele><time>2026-04-19T13:51:51.999Z</time></trkpt><trkpt lat="45.58353975892962" lon="8.94647484660834"><ele>194.0</ele><time>2026-04-19T13:51:52.999Z</time></trkpt><trkpt lat="45.58345535291041" lon="8.946602348858542"><ele>194.0</ele><time>2026-04-19T13:51:53.999Z</time></trkpt><trkpt lat="45.58337397499517" lon="8.946734493114661"><ele>194.0</ele><time>2026-04-19T13:51:54.999Z</time></trkpt><trkpt lat="45.58329574984101" lon="8.946866716684559"><ele>194.0</ele><time>2026-04-19T13:51:55.999Z</time></trkpt><trkpt lat="45.58322059055798" lon="8.946995781736785"><ele>194.25</ele><time>2026-04-19T13:51:56.999Z</time></trkpt><trkpt lat="45.583148778427" lon="8.947125232553377"><ele>194.5</ele><time>2026-04-19T13:51:57.999Z</time></trkpt><trkpt lat="45.5830756825086" lon="8.947260922877517"><ele>194.75</ele><time>2026-04-19T13:51:58.999Z</time></trkpt><trkpt lat="45.58300492277392" lon="8.947397914758975"><ele>195.0</ele><time>2026-04-19T13:51:59.999Z</time></trkpt><trkpt lat="45.58292956146663" lon="8.947525468712215"><ele>195.0</ele><time>2026-04-19T13:52:00.999Z</time></trkpt><trkpt lat="45.582862091615056" lon="8.947658693017928"><ele>195.0</ele><time>2026-04-19T13:52:01.999Z</time></trkpt><trkpt lat="45.58278919047063" lon="8.94778954770246"><ele>195.0</ele><time>2026-04-19T13:52:02.999Z</time></trkpt><trkpt lat="45.58271456943267" lon="8.947907464151744"><ele>195.0</ele><time>2026-04-19T13:52:03.999Z</time></trkpt><trkpt lat="45.58263295181215" lon="8.948022661315552"><ele>194.75</ele><time>2026-04-19T13:52:04.999Z</time></trkpt><trkpt lat="45.58254087364686" lon="8.948137357219515"><ele>194.5</ele><time>2026-04-19T13:52:05.999Z</time></trkpt><trkpt lat="45.58243614550604" lon="8.948227002388538"><ele>194.25</ele><time>2026-04-19T13:52:06.999Z</time></trkpt><trkpt lat="45.582321059674165" lon="8.948309963060295"><ele>194.0</ele><time>2026-04-19T13:52:07.999Z</time></trkpt><trkpt lat="45.582197800785" lon="8.948401244956372"><ele>193.75</ele><time>2026-04-19T13:52:08.999Z</time></trkpt><trkpt lat="45.582078189080335" lon="8.948505203916836"><ele>193.5</ele><time>2026-04-19T13:52:09.999Z</time></trkpt><trkpt lat="45.58195813646166" lon="8.948601255039852"><ele>193.25</ele><time>2026-04-19T13:52:10.999Z</time></trkpt><trkpt lat="45.58183443659018" lon="8.948695701105649"><ele>193.0</ele><time>2026-04-19T13:52:11.999Z</time></trkpt><trkpt lat="45.581702272114384" lon="8.948792801027592"><ele>193.0</ele><time>2026-04-19T13:52:12.999Z</time></trkpt><trkpt lat="45.58156728413338" lon="8.948888006821866"><ele>193.0</ele><time>2026-04-19T13:52:13.999Z</time></trkpt><trkpt lat="45.58142485862773" lon="8.948988941764858"><ele>193.0</ele><time>2026-04-19T13:52:14.999Z</time></trkpt><trkpt lat="45.581287015022966" lon="8.949100874255304"><ele>192.0</ele><time>2026-04-19T13:52:15.999Z</time></trkpt><trkpt lat="45.58115015306999" lon="8.949212778846556"><ele>191.0</ele><time>2026-04-19T13:52:16.999Z</time></trkpt><trkpt lat="45.58101033020673" lon="8.949325603462048"><ele>190.0</ele><time>2026-04-19T13:52:17.999Z</time></trkpt><trkpt lat="45.580868531869015" lon="8.949440680440372"><ele>190.0</ele><time>2026-04-19T13:52:18.999Z</time></trkpt><trkpt lat="45.58072748528296" lon="8.949557805431278"><ele>190.0</ele><time>2026-04-19T13:52:19.999Z</time></trkpt><trkpt lat="45.58059192528453" lon="8.949671414541614"><ele>190.0</ele><time>2026-04-19T13:52:20.999Z</time></trkpt><trkpt lat="45.5804635379997" lon="8.949779918448495"><ele>190.25</ele><time>2026-04-19T13:52:21.999Z</time></trkpt><trkpt lat="45.580342975017665" lon="8.949883702845776"><ele>190.5</ele><time>2026-04-19T13:52:22.999Z</time></trkpt><trkpt lat="45.58021876043597" lon="8.949986883502811"><ele>190.75</ele><time>2026-04-19T13:52:23.999Z</time></trkpt><trkpt lat="45.58009617505591" lon="8.950089226455757"><ele>191.0</ele><time>2026-04-19T13:52:24.999Z</time></trkpt><trkpt lat="45.579973951985316" lon="8.95019364419112"><ele>191.25</ele><time>2026-04-19T13:52:25.999Z</time></trkpt><trkpt lat="45.579853771311726" lon="8.950296765611094"><ele>191.5</ele><time>2026-04-19T13:52:26.999Z</time></trkpt><trkpt lat="45.579727528149014" lon="8.950397712651139"><ele>191.75</ele><time>2026-04-19T13:52:27.999Z</time></trkpt><trkpt lat="45.57960767984587" lon="8.950491993764201"><ele>192.0</ele><time>2026-04-19T13:52:28.999Z</time></trkpt><trkpt lat="45.579485627564644" lon="8.95059326792085"><ele>191.5</ele><time>2026-04-19T13:52:29.999Z</time></trkpt><trkpt lat="45.57936963157099" lon="8.950677245949205"><ele>191.0</ele><time>2026-04-19T13:52:30.999Z</time></trkpt><trkpt lat="45.579262976617215" lon="8.950756381969132"><ele>190.5</ele><time>2026-04-19T13:52:31.999Z</time></trkpt><trkpt lat="45.579162883573105" lon="8.950826939190012"><ele>190.0</ele><time>2026-04-19T13:52:32.999Z</time></trkpt><trkpt lat="45.579064268909" lon="8.95087977123336"><ele>189.8</ele><time>2026-04-19T13:52:33.999Z</time></trkpt><trkpt lat="45.57896368211462" lon="8.950916682068616"><ele>189.6</ele><time>2026-04-19T13:52:34.999Z</time></trkpt><trkpt lat="45.578856492136794" lon="8.950936109269502"><ele>189.39999999999998</ele><time>2026-04-19T13:52:35.999Z</time></trkpt><trkpt lat="45.578741287900655" lon="8.95095002491265"><ele>189.2</ele><time>2026-04-19T13:52:36.999Z</time></trkpt><trkpt lat="45.57863502218623" lon="8.951018287684612"><ele>189.0</ele><time>2026-04-19T13:52:37.999Z</time></trkpt><trkpt lat="45.578550443486336" lon="8.951147839200743"><ele>189.75</ele><time>2026-04-19T13:52:38.999Z</time></trkpt><trkpt lat="45.5784858328667" lon="8.951307276982513"><ele>190.5</ele><time>2026-04-19T13:52:39.999Z</time></trkpt><trkpt lat="45.57840977776077" lon="8.95146200879127"><ele>191.25</ele><time>2026-04-19T13:52:40.999Z</time></trkpt><trkpt lat="45.57831802468193" lon="8.95159296134529"><ele>192.0</ele><time>2026-04-19T13:52:41.999Z</time></trkpt><trkpt lat="45.57821030368827" lon="8.951705935141291"><ele>192.0</ele><time>2026-04-19T13:52:42.999Z</time></trkpt><trkpt lat="45.57809592551157" lon="8.951813293446415"><ele>192.0</ele><time>2026-04-19T13:52:43.999Z</time></trkpt><trkpt lat="45.577983353046974" lon="8.951911802412269"><ele>192.0</ele><time>2026-04-19T13:52:44.999Z</time></trkpt><trkpt lat="45.57787155689196" lon="8.95201048903207"><ele>192.0</ele><time>2026-04-19T13:52:45.999Z</time></trkpt><trkpt lat="45.57775584235994" lon="8.952110051907361"><ele>191.75</ele><time>2026-04-19T13:52:46.999Z</time></trkpt><trkpt lat="45.5776364222969" lon="8.952210752439179"><ele>191.5</ele><time>2026-04-19T13:52:47.999Z</time></trkpt><trkpt lat="45.577514521633475" lon="8.952309373196254"><ele>191.25</ele><time>2026-04-19T13:52:48.999Z</time></trkpt><trkpt lat="45.57739165327642" lon="8.952411412387402"><ele>191.0</ele><time>2026-04-19T13:52:49.999Z</time></trkpt><trkpt lat="45.577267271548266" lon="8.95251147360606"><ele>190.75</ele><time>2026-04-19T13:52:50.999Z</time></trkpt><trkpt lat="45.57714226591902" lon="8.95261312283563"><ele>190.5</ele><time>2026-04-19T13:52:51.999Z</time></trkpt><trkpt lat="45.57701740192823" lon="8.9527121779283"><ele>190.25</ele><time>2026-04-19T13:52:52.999Z</time></trkpt><trkpt lat="45.5768908223038" lon="8.952810690670134"><ele>190.0</ele><time>2026-04-19T13:52:53.999Z</time></trkpt><trkpt lat="45.57676028547527" lon="8.952905041438532"><ele>190.0</ele><time>2026-04-19T13:52:54.999Z</time></trkpt><trkpt lat="45.57662696430627" lon="8.952998465590149"><ele>190.0</ele><time>2026-04-19T13:52:55.999Z</time></trkpt><trkpt lat="45.576494401209715" lon="8.953089443628592"><ele>190.0</ele><time>2026-04-19T13:52:56.999Z</time></trkpt><trkpt lat="45.57636252785203" lon="8.953180867882326"><ele>190.0</ele><time>2026-04-19T13:52:57.999Z</time></trkpt><trkpt lat="45.57622921238413" lon="8.953272343585237"><ele>189.75</ele><time>2026-04-19T13:52:58.999Z</time></trkpt><trkpt lat="45.57609650078758" lon="8.953366187349788"><ele>189.5</ele><time>2026-04-19T13:52:59.999Z</time></trkpt><trkpt lat="45.57596551441337" lon="8.953460837174244"><ele>189.25</ele><time>2026-04-19T13:53:00.999Z</time></trkpt><trkpt lat="45.57584008007197" lon="8.953548115084471"><ele>189.0</ele><time>2026-04-19T13:53:01.999Z</time></trkpt><trkpt lat="45.57572844123391" lon="8.953627063905778"><ele>189.25</ele><time>2026-04-19T13:53:02.999Z</time></trkpt><trkpt lat="45.57562129532704" lon="8.953706599347294"><ele>189.5</ele><time>2026-04-19T13:53:03.999Z</time></trkpt><trkpt lat="45.57551138826542" lon="8.953781966182015"><ele>189.75</ele><time>2026-04-19T13:53:04.999Z</time></trkpt><trkpt lat="45.575396661314784" lon="8.953856507941602"><ele>190.0</ele><time>2026-04-19T13:53:05.999Z</time></trkpt><trkpt lat="45.57527985430319" lon="8.9539353254429"><ele>190.0</ele><time>2026-04-19T13:53:06.999Z</time></trkpt><trkpt lat="45.57515373861825" lon="8.954023250637528"><ele>190.0</ele><time>2026-04-19T13:53:07.999Z</time></trkpt><trkpt lat="45.575024527576375" lon="8.954120742482587"><ele>190.0</ele><time>2026-04-19T13:53:08.999Z</time></trkpt><trkpt lat="45.57489426509138" lon="8.95421922222544"><ele>190.0</ele><time>2026-04-19T13:53:09.999Z</time></trkpt><trkpt lat="45.574768698479595" lon="8.954329044776653"><ele>190.0</ele><time>2026-04-19T13:53:10.999Z</time></trkpt><trkpt lat="45.57464130876755" lon="8.954441733777387"><ele>190.0</ele><time>2026-04-19T13:53:11.999Z</time></trkpt><trkpt lat="45.574523076860466" lon="8.954550775005634"><ele>190.0</ele><time>2026-04-19T13:53:12.999Z</time></trkpt><trkpt lat="45.574407710447076" lon="8.954657228975634"><ele>190.0</ele><time>2026-04-19T13:53:13.999Z</time></trkpt><trkpt lat="45.5742965035023" lon="8.954755648493498"><ele>190.0</ele><time>2026-04-19T13:53:14.999Z</time></trkpt><trkpt lat="45.57418002968106" lon="8.954859935336396"><ele>190.0</ele><time>2026-04-19T13:53:15.999Z</time></trkpt><trkpt lat="45.574061281031106" lon="8.954964074560214"><ele>190.0</ele><time>2026-04-19T13:53:16.999Z</time></trkpt><trkpt lat="45.5739412556229" lon="8.95507554409794"><ele>190.0</ele><time>2026-04-19T13:53:17.999Z</time></trkpt><trkpt lat="45.57382023640584" lon="8.9551856357904"><ele>189.75</ele><time>2026-04-19T13:53:18.999Z</time></trkpt><trkpt lat="45.573701501805466" lon="8.955294669720589"><ele>189.5</ele><time>2026-04-19T13:53:19.999Z</time></trkpt><trkpt lat="45.5735778481925" lon="8.955408367848301"><ele>189.25</ele><time>2026-04-19T13:53:20.999Z</time></trkpt><trkpt lat="45.57345622404237" lon="8.95552150374216"><ele>189.0</ele><time>2026-04-19T13:53:21.999Z</time></trkpt><trkpt lat="45.573332858772055" lon="8.955635775210984"><ele>189.0</ele><time>2026-04-19T13:53:22.999Z</time></trkpt><trkpt lat="45.57321292795087" lon="8.95574505041456"><ele>189.0</ele><time>2026-04-19T13:53:23.999Z</time></trkpt><trkpt lat="45.57310050464486" lon="8.95584948672744"><ele>189.0</ele><time>2026-04-19T13:53:24.999Z</time></trkpt><trkpt lat="45.572988645372696" lon="8.95595101376433"><ele>189.0</ele><time>2026-04-19T13:53:25.999Z</time></trkpt><trkpt lat="45.572876817378685" lon="8.956053673222359"><ele>189.0</ele><time>2026-04-19T13:53:26.999Z</time></trkpt><trkpt lat="45.57276248847934" lon="8.956155219511558"><ele>189.0</ele><time>2026-04-19T13:53:27.999Z</time></trkpt><trkpt lat="45.57265028368671" lon="8.956257884829435"><ele>189.0</ele><time>2026-04-19T13:53:28.999Z</time></trkpt><trkpt lat="45.57253484875033" lon="8.956362815739128"><ele>189.0</ele><time>2026-04-19T13:53:29.999Z</time></trkpt><trkpt lat="45.572417449094424" lon="8.956468819929796"><ele>189.0</ele><time>2026-04-19T13:53:30.999Z</time></trkpt><trkpt lat="45.572296558396545" lon="8.95657729491108"><ele>189.0</ele><time>2026-04-19T13:53:31.999Z</time></trkpt><trkpt lat="45.57217379371062" lon="8.956685748353353"><ele>189.0</ele><time>2026-04-19T13:53:32.999Z</time></trkpt><trkpt lat="45.572057522416536" lon="8.95678707492879"><ele>189.0</ele><time>2026-04-19T13:53:33.999Z</time></trkpt><trkpt lat="45.5719566317957" lon="8.956879951282296"><ele>188.39999999999998</ele><time>2026-04-19T13:53:34.999Z</time></trkpt><trkpt lat="45.571861355317836" lon="8.956969032122295"><ele>187.8</ele><time>2026-04-19T13:53:35.999Z</time></trkpt><trkpt lat="45.57177277897265" lon="8.957053543692416"><ele>187.2</ele><time>2026-04-19T13:53:36.999Z</time></trkpt><trkpt lat="45.5716910040711" lon="8.957133788124942"><ele>186.60000000000002</ele><time>2026-04-19T13:53:37.999Z</time></trkpt><trkpt lat="45.571610806166014" lon="8.957205806046364"><ele>186.0</ele><time>2026-04-19T13:53:38.999Z</time></trkpt><trkpt lat="45.57153434009123" lon="8.957273134494221"><ele>186.0</ele><time>2026-04-19T13:53:39.999Z</time></trkpt><trkpt lat="45.57146718095531" lon="8.957328224864439"><ele>186.0</ele><time>2026-04-19T13:53:40.999Z</time></trkpt><trkpt lat="45.57140383540663" lon="8.957371683038305"><ele>186.0</ele><time>2026-04-19T13:53:41.999Z</time></trkpt><trkpt lat="45.571341342756824" lon="8.957403586124506"><ele>186.0</ele><time>2026-04-19T13:53:42.999Z</time></trkpt><trkpt lat="45.57121252945945" lon="8.957420549620636"><ele>186.0</ele><time>2026-04-19T13:53:44.999Z</time></trkpt><trkpt lat="45.57112864916512" lon="8.957412807666172"><ele>186.0</ele><time>2026-04-19T13:53:45.999Z</time></trkpt><trkpt lat="45.57103468109911" lon="8.957417688485577"><ele>185.83333333333334</ele><time>2026-04-19T13:53:46.999Z</time></trkpt><trkpt lat="45.570950694768314" lon="8.957456435863309"><ele>185.66666666666666</ele><time>2026-04-19T13:53:47.999Z</time></trkpt><trkpt lat="45.570885254810975" lon="8.95753911853853"><ele>185.5</ele><time>2026-04-19T13:53:48.999Z</time></trkpt><trkpt lat="45.570852408187726" lon="8.957655424576743"><ele>185.33333333333331</ele><time>2026-04-19T13:53:49.999Z</time></trkpt><trkpt lat="45.570858839296825" lon="8.957784294877305"><ele>185.16666666666666</ele><time>2026-04-19T13:53:50.999Z</time></trkpt><trkpt lat="45.57090380597715" lon="8.957896462966517"><ele>185.0</ele><time>2026-04-19T13:53:51.999Z</time></trkpt><trkpt lat="45.57097608714676" lon="8.957977405690292"><ele>185.4</ele><time>2026-04-19T13:53:52.999Z</time></trkpt><trkpt lat="45.5710695343534" lon="8.958032763890946"><ele>185.8</ele><time>2026-04-19T13:53:53.999Z</time></trkpt><trkpt lat="45.57116767305045" lon="8.958093242446203"><ele>186.2</ele><time>2026-04-19T13:53:54.999Z</time></trkpt><trkpt lat="45.5712611087816" lon="8.95818092194613"><ele>186.6</ele><time>2026-04-19T13:53:55.999Z</time></trkpt><trkpt lat="45.57134974263864" lon="8.958301783835303"><ele>187.0</ele><time>2026-04-19T13:53:56.999Z</time></trkpt><trkpt lat="45.57144266955411" lon="8.958423858884013"><ele>187.25</ele><time>2026-04-19T13:53:57.999Z</time></trkpt><trkpt lat="45.57148744070852" lon="8.95862160007089"><ele>187.5</ele><time>2026-04-19T13:53:58.999Z</time></trkpt><trkpt lat="45.571547658761915" lon="8.958787569813131"><ele>187.75</ele><time>2026-04-19T13:53:59.999Z</time></trkpt><trkpt lat="45.57161601882458" lon="8.958949707875274"><ele>188.0</ele><time>2026-04-19T13:54:00.999Z</time></trkpt><trkpt lat="45.5716862163631" lon="8.959109114678316"><ele>188.25</ele><time>2026-04-19T13:54:01.999Z</time></trkpt><trkpt lat="45.57175829016004" lon="8.959247344266634"><ele>188.5</ele><time>2026-04-19T13:54:02.999Z</time></trkpt><trkpt lat="45.57183084673587" lon="8.959393554216662"><ele>188.75</ele><time>2026-04-19T13:54:03.999Z</time></trkpt><trkpt lat="45.571902736053076" lon="8.959515022720785"><ele>189.0</ele><time>2026-04-19T13:54:04.999Z</time></trkpt><trkpt lat="45.571969595812746" lon="8.95961927768039"><ele>188.6</ele><time>2026-04-19T13:54:05.999Z</time></trkpt><trkpt lat="45.57202896414988" lon="8.959709824437246"><ele>188.2</ele><time>2026-04-19T13:54:06.999Z</time></trkpt><trkpt lat="45.57209049710978" lon="8.959794159793317"><ele>187.79999999999998</ele><time>2026-04-19T13:54:07.999Z</time></trkpt><trkpt lat="45.57213655666954" lon="8.95986632922303"><ele>187.39999999999998</ele><time>2026-04-19T13:54:08.999Z</time></trkpt><trkpt lat="45.57222188793857" lon="8.959983088613848"><ele>187.0</ele><time>2026-04-19T13:54:10.999Z</time></trkpt><trkpt lat="45.57228325747934" lon="8.960096113235101"><ele>187.0</ele><time>2026-04-19T13:54:12.999Z</time></trkpt><trkpt lat="45.57228854198244" lon="8.960230438791882"><ele>187.0</ele><time>2026-04-19T13:54:14.999Z</time></trkpt><trkpt lat="45.572249092054726" lon="8.960352390483441"><ele>187.0</ele><time>2026-04-19T13:54:16.999Z</time></trkpt><trkpt lat="45.57216986557189" lon="8.96042493666586"><ele>187.0</ele><time>2026-04-19T13:54:18.999Z</time></trkpt><trkpt lat="45.572272051018565" lon="8.960609135254744"><ele>187.0</ele><time>2026-04-19T13:54:22.999Z</time></trkpt><trkpt lat="45.57236297296686" lon="8.960707554248005"><ele>187.0</ele><time>2026-04-19T13:54:24.999Z</time></trkpt><trkpt lat="45.572474144472636" lon="8.96077734729602"><ele>187.0</ele><time>2026-04-19T13:54:26.999Z</time></trkpt><trkpt lat="45.57253738971021" lon="8.960796743779344"><ele>187.0</ele><time>2026-04-19T13:54:27.999Z</time></trkpt><trkpt lat="45.572590829393505" lon="8.960858138101754"><ele>187.0</ele><time>2026-04-19T13:54:28.999Z</time></trkpt><trkpt lat="45.57265207914307" lon="8.96088204116855"><ele>187.0</ele><time>2026-04-19T13:54:29.999Z</time></trkpt><trkpt lat="45.57276151259342" lon="8.960971345511776"><ele>187.0</ele><time>2026-04-19T13:54:31.999Z</time></trkpt><trkpt lat="45.57284964750863" lon="8.961048179429424"><ele>188.2</ele><time>2026-04-19T13:54:33.999Z</time></trkpt><trkpt lat="45.572930132352376" lon="8.961120680469024"><ele>189.39999999999998</ele><time>2026-04-19T13:54:35.999Z</time></trkpt><trkpt lat="45.57303699939074" lon="8.96116401339073"><ele>190.60000000000002</ele><time>2026-04-19T13:54:37.999Z</time></trkpt><trkpt lat="45.573129313087385" lon="8.961181811918722"><ele>191.8</ele><time>2026-04-19T13:54:39.999Z</time></trkpt><trkpt lat="45.57323953256079" lon="8.961170649522275"><ele>193.0</ele><time>2026-04-19T13:54:41.999Z</time></trkpt><trkpt lat="45.57335057736269" lon="8.961121515054925"><ele>192.99999999999997</ele><time>2026-04-19T13:54:43.999Z</time></trkpt><trkpt lat="45.57343412176973" lon="8.961046863731442"><ele>193.0</ele><time>2026-04-19T13:54:45.999Z</time></trkpt><trkpt lat="45.57350529353909" lon="8.960987906428855"><ele>193.0</ele><time>2026-04-19T13:54:48Z</time></trkpt><trkpt lat="45.573575330951975" lon="8.960962285927275"><ele>193.0</ele><time>2026-04-19T13:54:50Z</time></trkpt><trkpt lat="45.573659198205654" lon="8.960996361943492"><ele>192.99999999999997</ele><time>2026-04-19T13:54:52Z</time></trkpt><trkpt lat="45.57375235230514" lon="8.961060297846748"><ele>193.0</ele><time>2026-04-19T13:54:54Z</time></trkpt><trkpt lat="45.57383533115079" lon="8.961132652922238"><ele>193.0</ele><time>2026-04-19T13:54:56Z</time></trkpt><trkpt lat="45.573935818982164" lon="8.961201145477164"><ele>193.0</ele><time>2026-04-19T13:54:58Z</time></trkpt><trkpt lat="45.574025652775966" lon="8.96125996083691"><ele>193.0</ele><time>2026-04-19T13:55:00Z</time></trkpt><trkpt lat="45.57411064241082" lon="8.961320331352054"><ele>193.0</ele><time>2026-04-19T13:55:02Z</time></trkpt><trkpt lat="45.57420371754881" lon="8.961369953378034"><ele>193.0</ele><time>2026-04-19T13:55:04Z</time></trkpt><trkpt lat="45.57432236337557" lon="8.961419896883429"><ele>192.99999999999997</ele><time>2026-04-19T13:55:06Z</time></trkpt><trkpt lat="45.574441978127304" lon="8.961450895815949"><ele>193.0</ele><time>2026-04-19T13:55:08Z</time></trkpt><trkpt lat="45.574505494302656" lon="8.961469750248376"><ele>193.0</ele><time>2026-04-19T13:55:09Z</time></trkpt><trkpt lat="45.574571993355235" lon="8.961495482832538"><ele>193.0</ele><time>2026-04-19T13:55:10Z</time></trkpt><trkpt lat="45.574630310080174" lon="8.961543917883965"><ele>192.99999999999997</ele><time>2026-04-19T13:55:11Z</time></trkpt><trkpt lat="45.57470060044212" lon="8.96158248249018"><ele>193.0</ele><time>2026-04-19T13:55:12Z</time></trkpt><trkpt lat="45.57476814558208" lon="8.961623154889178"><ele>192.99999999999997</ele><time>2026-04-19T13:55:13Z</time></trkpt><trkpt lat="45.57483219293218" lon="8.96166335320692"><ele>193.0</ele><time>2026-04-19T13:55:14Z</time></trkpt><trkpt lat="45.57489228636403" lon="8.961706683637699"><ele>193.0</ele><time>2026-04-19T13:55:15Z</time></trkpt><trkpt lat="45.57498279342041" lon="8.961785123043542"><ele>193.0</ele><time>2026-04-19T13:55:17Z</time></trkpt><trkpt lat="45.575060354108665" lon="8.961864818854535"><ele>192.99999999999997</ele><time>2026-04-19T13:55:19Z</time></trkpt><trkpt lat="45.575112963856185" lon="8.961920941109453"><ele>193.0</ele><time>2026-04-19T13:55:20Z</time></trkpt><trkpt lat="45.57517309051806" lon="8.961961876565057"><ele>192.99999999999997</ele><time>2026-04-19T13:55:21Z</time></trkpt><trkpt lat="45.575222329909096" lon="8.962024964230512"><ele>193.0</ele><time>2026-04-19T13:55:22Z</time></trkpt><trkpt lat="45.57531514592795" lon="8.962154363671027"><ele>193.0</ele><time>2026-04-19T13:55:24Z</time></trkpt><trkpt lat="45.57535608204394" lon="8.962229430772203"><ele>193.0</ele><time>2026-04-19T13:55:25Z</time></trkpt><trkpt lat="45.57537621106727" lon="8.962320083861144"><ele>192.99999999999997</ele><time>2026-04-19T13:55:26Z</time></trkpt><trkpt lat="45.57538065436299" lon="8.962416309281684"><ele>193.0</ele><time>2026-04-19T13:55:27Z</time></trkpt><trkpt lat="45.575352146174396" lon="8.962502715749666"><ele>191.8</ele><time>2026-04-19T13:55:28Z</time></trkpt><trkpt lat="45.57535724321686" lon="8.962658086740273"><ele>190.60000000000002</ele><time>2026-04-19T13:55:30Z</time></trkpt><trkpt lat="45.575451356700725" lon="8.962798756303883"><ele>189.39999999999998</ele><time>2026-04-19T13:55:32Z</time></trkpt><trkpt lat="45.5755012401551" lon="8.962864001818808"><ele>188.2</ele><time>2026-04-19T13:55:33Z</time></trkpt><trkpt lat="45.57555992122713" lon="8.962925888305168"><ele>187.0</ele><time>2026-04-19T13:55:34Z</time></trkpt><trkpt lat="45.57560529430133" lon="8.963012148556384"><ele>187.0</ele><time>2026-04-19T13:55:35Z</time></trkpt><trkpt lat="45.57568999546023" lon="8.963100200966954"><ele>187.0</ele><time>2026-04-19T13:55:36Z</time></trkpt><trkpt lat="45.575792338222804" lon="8.963237622545591"><ele>187.0</ele><time>2026-04-19T13:55:37Z</time></trkpt><trkpt lat="45.57586223766185" lon="8.963337735575674"><ele>187.0</ele><time>2026-04-19T13:55:38Z</time></trkpt><trkpt lat="45.57591582480802" lon="8.963410454980611"><ele>187.0</ele><time>2026-04-19T13:55:39Z</time></trkpt><trkpt lat="45.57600438487881" lon="8.96353626024698"><ele>187.8</ele><time>2026-04-19T13:55:41Z</time></trkpt><trkpt lat="45.576070797195875" lon="8.963657720527818"><ele>188.6</ele><time>2026-04-19T13:55:43Z</time></trkpt><trkpt lat="45.57615014623755" lon="8.963740576101618"><ele>189.4</ele><time>2026-04-19T13:55:45Z</time></trkpt><trkpt lat="45.57622116784837" lon="8.96384618740761"><ele>190.20000000000002</ele><time>2026-04-19T13:55:47Z</time></trkpt><trkpt lat="45.5762750686684" lon="8.96391061756336"><ele>191.0</ele><time>2026-04-19T13:55:50Z</time></trkpt><trkpt lat="45.57632095280223" lon="8.963994158670209"><ele>191.16666666666666</ele><time>2026-04-19T13:56:38.999Z</time></trkpt><trkpt lat="45.57626930315449" lon="8.964083010914788"><ele>191.33333333333331</ele><time>2026-04-19T13:56:42Z</time></trkpt><trkpt lat="45.57620281989763" lon="8.96419813100722"><ele>191.5</ele><time>2026-04-19T13:56:44Z</time></trkpt><trkpt lat="45.57616219579241" lon="8.964268420129411"><ele>191.66666666666666</ele><time>2026-04-19T13:56:45Z</time></trkpt><trkpt lat="45.57611550343902" lon="8.96434920859329"><ele>191.83333333333334</ele><time>2026-04-19T13:56:46Z</time></trkpt><trkpt lat="45.576073094032864" lon="8.964452868417627"><ele>192.0</ele><time>2026-04-19T13:56:47Z</time></trkpt><trkpt lat="45.57601564461613" lon="8.964519168874675"><ele>192.2</ele><time>2026-04-19T13:56:48Z</time></trkpt><trkpt lat="45.57595371034486" lon="8.964654266197718"><ele>192.39999999999998</ele><time>2026-04-19T13:56:50Z</time></trkpt><trkpt lat="45.5758791078241" lon="8.964779048219537"><ele>192.60000000000002</ele><time>2026-04-19T13:56:52Z</time></trkpt><trkpt lat="45.57581283315165" lon="8.964887517442959"><ele>192.8</ele><time>2026-04-19T13:56:54Z</time></trkpt><trkpt lat="45.57574019780531" lon="8.965001757594877"><ele>193.0</ele><time>2026-04-19T13:56:56Z</time></trkpt><trkpt lat="45.575667734356244" lon="8.965120772056434"><ele>193.0</ele><time>2026-04-19T13:56:58Z</time></trkpt><trkpt lat="45.57557685829954" lon="8.965237274446604"><ele>193.0</ele><time>2026-04-19T13:57:00Z</time></trkpt><trkpt lat="45.57550952665439" lon="8.965384428051168"><ele>193.0</ele><time>2026-04-19T13:57:02Z</time></trkpt><trkpt lat="45.57544032081242" lon="8.965503480387003"><ele>193.0</ele><time>2026-04-19T13:57:04Z</time></trkpt><trkpt lat="45.57536452269678" lon="8.965626051442612"><ele>193.0</ele><time>2026-04-19T13:57:06Z</time></trkpt><trkpt lat="45.5753003897142" lon="8.965738694086768"><ele>193.0</ele><time>2026-04-19T13:57:08Z</time></trkpt><trkpt lat="45.57522751892277" lon="8.965851430060784"><ele>193.0</ele><time>2026-04-19T13:57:10Z</time></trkpt><trkpt lat="45.57516250545965" lon="8.965968883436178"><ele>193.0</ele><time>2026-04-19T13:57:12Z</time></trkpt><trkpt lat="45.57509504504207" lon="8.966100206692902"><ele>193.0</ele><time>2026-04-19T13:57:14Z</time></trkpt><trkpt lat="45.575014712056294" lon="8.96621778774711"><ele>192.83333333333331</ele><time>2026-04-19T13:57:16Z</time></trkpt><trkpt lat="45.57495885372362" lon="8.966364747406146"><ele>192.66666666666666</ele><time>2026-04-19T13:57:18Z</time></trkpt><trkpt lat="45.57490366820648" lon="8.966472787915635"><ele>192.5</ele><time>2026-04-19T13:57:20Z</time></trkpt><trkpt lat="45.57486598379124" lon="8.966559758044042"><ele>192.33333333333331</ele><time>2026-04-19T13:57:22Z</time></trkpt><trkpt lat="45.57483630138636" lon="8.966647786342847"><ele>192.16666666666666</ele><time>2026-04-19T13:57:26Z</time></trkpt><trkpt lat="45.5748507451233" lon="8.966743351751436"><ele>192.0</ele><time>2026-04-19T13:57:55Z</time></trkpt><trkpt lat="45.57486547667822" lon="8.96685243411577"><ele>192.0</ele><time>2026-04-19T13:57:58Z</time></trkpt><trkpt lat="45.57496292954122" lon="8.966895614545694"><ele>192.0</ele><time>2026-04-19T13:57:59Z</time></trkpt><trkpt lat="45.575029475867666" lon="8.967000704611868"><ele>192.0</ele><time>2026-04-19T13:58:00Z</time></trkpt><trkpt lat="45.57511349471782" lon="8.967139722191707"><ele>192.0</ele><time>2026-04-19T13:58:01Z</time></trkpt><trkpt lat="45.575205986393826" lon="8.967305234280403"><ele>192.0</ele><time>2026-04-19T13:58:02Z</time></trkpt><trkpt lat="45.5752906028292" lon="8.967412308119897"><ele>192.0</ele><time>2026-04-19T13:58:03Z</time></trkpt><trkpt lat="45.57535624828299" lon="8.967522011845169"><ele>192.0</ele><time>2026-04-19T13:58:04Z</time></trkpt><trkpt lat="45.57542510041114" lon="8.967638221362352"><ele>192.0</ele><time>2026-04-19T13:58:05Z</time></trkpt><trkpt lat="45.57549263864918" lon="8.967756681878178"><ele>192.0</ele><time>2026-04-19T13:58:06Z</time></trkpt><trkpt lat="45.57554827953858" lon="8.967884809894292"><ele>191.6</ele><time>2026-04-19T13:58:07Z</time></trkpt><trkpt lat="45.57560717934785" lon="8.967984725894535"><ele>191.2</ele><time>2026-04-19T13:58:08Z</time></trkpt><trkpt lat="45.57566330944332" lon="8.968078008022133"><ele>190.8</ele><time>2026-04-19T13:58:09Z</time></trkpt><trkpt lat="45.575733499072825" lon="8.96816311242447"><ele>190.4</ele><time>2026-04-19T13:58:10Z</time></trkpt><trkpt lat="45.57579983325189" lon="8.968271681715448"><ele>190.0</ele><time>2026-04-19T13:58:11Z</time></trkpt><trkpt lat="45.575867376305396" lon="8.968381559919955"><ele>190.0</ele><time>2026-04-19T13:58:12Z</time></trkpt><trkpt lat="45.575936651643055" lon="8.968490930632449"><ele>190.0</ele><time>2026-04-19T13:58:13Z</time></trkpt><trkpt lat="45.576007374816626" lon="8.968598312544101"><ele>190.0</ele><time>2026-04-19T13:58:14Z</time></trkpt><trkpt lat="45.57608426719876" lon="8.968713630959673"><ele>190.0</ele><time>2026-04-19T13:58:15Z</time></trkpt><trkpt lat="45.576159308781335" lon="8.968832385592973"><ele>190.0</ele><time>2026-04-19T13:58:15.999Z</time></trkpt><trkpt lat="45.576224210200735" lon="8.968935797231142"><ele>190.2</ele><time>2026-04-19T13:58:16.999Z</time></trkpt><trkpt lat="45.576294838282784" lon="8.969048558325342"><ele>190.4</ele><time>2026-04-19T13:58:17.999Z</time></trkpt><trkpt lat="45.57637000941369" lon="8.969162443934588"><ele>190.60000000000002</ele><time>2026-04-19T13:58:18.999Z</time></trkpt><trkpt lat="45.57644184059766" lon="8.96926837256022"><ele>190.8</ele><time>2026-04-19T13:58:19.999Z</time></trkpt><trkpt lat="45.57651205320707" lon="8.96937840974318"><ele>191.0</ele><time>2026-04-19T13:58:20.999Z</time></trkpt><trkpt lat="45.57657654592481" lon="8.96948236083071"><ele>191.0</ele><time>2026-04-19T13:58:21.999Z</time></trkpt><trkpt lat="45.57663288521524" lon="8.969607476240736"><ele>191.0</ele><time>2026-04-19T13:58:22.999Z</time></trkpt><trkpt lat="45.57672207734485" lon="8.969751935916591"><ele>191.0</ele><time>2026-04-19T13:58:23.999Z</time></trkpt><trkpt lat="45.576816904115454" lon="8.969872573055815"><ele>191.0</ele><time>2026-04-19T13:58:24.999Z</time></trkpt><trkpt lat="45.57688322171997" lon="8.969982195529743"><ele>190.75</ele><time>2026-04-19T13:58:25.999Z</time></trkpt><trkpt lat="45.576964424682046" lon="8.970115413536131"><ele>190.5</ele><time>2026-04-19T13:58:26.999Z</time></trkpt><trkpt lat="45.577070399480114" lon="8.970286364302687"><ele>190.25</ele><time>2026-04-19T13:58:27.999Z</time></trkpt><trkpt lat="45.57715403091571" lon="8.970424099712723"><ele>190.0</ele><time>2026-04-19T13:58:28.999Z</time></trkpt><trkpt lat="45.57722200630144" lon="8.970529903953677"><ele>190.4</ele><time>2026-04-19T13:58:29.999Z</time></trkpt><trkpt lat="45.57729118248457" lon="8.970643559068495"><ele>190.8</ele><time>2026-04-19T13:58:31Z</time></trkpt><trkpt lat="45.57736126199459" lon="8.970759619743887"><ele>191.2</ele><time>2026-04-19T13:58:32Z</time></trkpt><trkpt lat="45.57742348223543" lon="8.970863808872865"><ele>191.6</ele><time>2026-04-19T13:58:33Z</time></trkpt><trkpt lat="45.57749459170833" lon="8.970985808321416"><ele>192.0</ele><time>2026-04-19T13:58:34Z</time></trkpt><trkpt lat="45.577579893976846" lon="8.971126066252713"><ele>192.0</ele><time>2026-04-19T13:58:35Z</time></trkpt><trkpt lat="45.57767700044436" lon="8.971282285288313"><ele>192.0</ele><time>2026-04-19T13:58:36Z</time></trkpt><trkpt lat="45.57778527776928" lon="8.971428847476451"><ele>192.0</ele><time>2026-04-19T13:58:37Z</time></trkpt><trkpt lat="45.57788932170732" lon="8.971588886038141"><ele>192.0</ele><time>2026-04-19T13:58:38Z</time></trkpt><trkpt lat="45.578003002173865" lon="8.971753800814264"><ele>192.0</ele><time>2026-04-19T13:58:39Z</time></trkpt><trkpt lat="45.578105812375576" lon="8.971959623995193"><ele>192.0</ele><time>2026-04-19T13:58:40Z</time></trkpt><trkpt lat="45.57820159150447" lon="8.972115414844708"><ele>192.0</ele><time>2026-04-19T13:58:41Z</time></trkpt><trkpt lat="45.57828928336789" lon="8.972257433418836"><ele>192.0</ele><time>2026-04-19T13:58:42Z</time></trkpt><trkpt lat="45.578374410508154" lon="8.972392460886413"><ele>192.0</ele><time>2026-04-19T13:58:43Z</time></trkpt><trkpt lat="45.578452377249675" lon="8.972519793113817"><ele>192.0</ele><time>2026-04-19T13:58:44Z</time></trkpt><trkpt lat="45.57851667941635" lon="8.972621377851821"><ele>192.0</ele><time>2026-04-19T13:58:45Z</time></trkpt><trkpt lat="45.57859072010324" lon="8.972737654533505"><ele>192.5</ele><time>2026-04-19T13:58:46Z</time></trkpt><trkpt lat="45.578672253531956" lon="8.97286757193451"><ele>193.0</ele><time>2026-04-19T13:58:47Z</time></trkpt><trkpt lat="45.578746304985394" lon="8.972992242811927"><ele>193.5</ele><time>2026-04-19T13:58:48Z</time></trkpt><trkpt lat="45.57887811879893" lon="8.973055288771544"><ele>194.0</ele><time>2026-04-19T13:58:49Z</time></trkpt><trkpt lat="45.578941362843594" lon="8.973178309152832"><ele>194.16666666666669</ele><time>2026-04-19T13:58:50Z</time></trkpt><trkpt lat="45.579003073532014" lon="8.973293761735716"><ele>194.33333333333334</ele><time>2026-04-19T13:58:51Z</time></trkpt><trkpt lat="45.57905491707537" lon="8.973395951790708"><ele>194.5</ele><time>2026-04-19T13:58:52Z</time></trkpt><trkpt lat="45.579108625896865" lon="8.973502309231682"><ele>194.66666666666669</ele><time>2026-04-19T13:58:53Z</time></trkpt><trkpt lat="45.579159114402714" lon="8.973597718622333"><ele>194.83333333333334</ele><time>2026-04-19T13:58:54Z</time></trkpt><trkpt lat="45.57921013788252" lon="8.973686476520085"><ele>195.0</ele><time>2026-04-19T13:58:55Z</time></trkpt><trkpt lat="45.57926239755119" lon="8.973773065894537"><ele>195.0</ele><time>2026-04-19T13:58:56Z</time></trkpt><trkpt lat="45.579314245249904" lon="8.973858972710772"><ele>195.0</ele><time>2026-04-19T13:58:57Z</time></trkpt><trkpt lat="45.57935646401198" lon="8.9739357551114"><ele>195.0</ele><time>2026-04-19T13:58:58Z</time></trkpt><trkpt lat="45.5794280662226" lon="8.974065330373541"><ele>195.0</ele><time>2026-04-19T13:59:00Z</time></trkpt><trkpt lat="45.579506510953365" lon="8.974187991766962"><ele>195.0</ele><time>2026-04-19T13:59:02Z</time></trkpt><trkpt lat="45.57958279406431" lon="8.974293437483675"><ele>195.25</ele><time>2026-04-19T13:59:04Z</time></trkpt><trkpt lat="45.57966293450643" lon="8.97437436888705"><ele>195.5</ele><time>2026-04-19T13:59:06Z</time></trkpt><trkpt lat="45.57975025578366" lon="8.974407697370227"><ele>195.75</ele><time>2026-04-19T13:59:08Z</time></trkpt><trkpt lat="45.57982401399078" lon="8.974411420195302"><ele>196.0</ele><time>2026-04-19T13:59:10Z</time></trkpt><trkpt lat="45.57979136397102" lon="8.974734090467333"><ele>195.99999999999997</ele><time>2026-04-19T13:59:11Z</time></trkpt><trkpt lat="45.57982997718978" lon="8.974806055634335"><ele>196.0</ele><time>2026-04-19T13:59:12Z</time></trkpt><trkpt lat="45.57986977985731" lon="8.974880080414088"><ele>196.0</ele><time>2026-04-19T13:59:13Z</time></trkpt><trkpt lat="45.57992462750262" lon="8.974957560964146"><ele>196.0</ele><time>2026-04-19T13:59:14Z</time></trkpt><trkpt lat="45.5799810833311" lon="8.975048942600008"><ele>195.99999999999997</ele><time>2026-04-19T13:59:15Z</time></trkpt><trkpt lat="45.580040619095186" lon="8.975146161188947"><ele>196.0</ele><time>2026-04-19T13:59:16Z</time></trkpt><trkpt lat="45.58009665083955" lon="8.975239565300352"><ele>195.83333333333331</ele><time>2026-04-19T13:59:17Z</time></trkpt><trkpt lat="45.58015034202817" lon="8.975330627496929"><ele>195.66666666666666</ele><time>2026-04-19T13:59:18Z</time></trkpt><trkpt lat="45.58019930163358" lon="8.975410625951316"><ele>195.5</ele><time>2026-04-19T13:59:19Z</time></trkpt><trkpt lat="45.58024823189461" lon="8.975489166658978"><ele>195.33333333333331</ele><time>2026-04-19T13:59:20Z</time></trkpt><trkpt lat="45.58029384386673" lon="8.975569164797967"><ele>195.16666666666666</ele><time>2026-04-19T13:59:21Z</time></trkpt><trkpt lat="45.5803457071257" lon="8.97565124515768"><ele>195.0</ele><time>2026-04-19T13:59:22Z</time></trkpt><trkpt lat="45.58040100216081" lon="8.975728670844903"><ele>195.0</ele><time>2026-04-19T13:59:23Z</time></trkpt><trkpt lat="45.580449968657504" lon="8.975810485057508"><ele>195.0</ele><time>2026-04-19T13:59:24Z</time></trkpt><trkpt lat="45.58053403662077" lon="8.975945339134777"><ele>195.0</ele><time>2026-04-19T13:59:26Z</time></trkpt><trkpt lat="45.580575833316324" lon="8.976013123021694"><ele>195.0</ele><time>2026-04-19T13:59:27Z</time></trkpt><trkpt lat="45.58064741355555" lon="8.976134727805288"><ele>195.0</ele><time>2026-04-19T13:59:29Z</time></trkpt><trkpt lat="45.580691929520654" lon="8.976266875065267"><ele>195.0</ele><time>2026-04-19T13:59:31Z</time></trkpt><trkpt lat="45.58075713915054" lon="8.976349072567267"><ele>195.0</ele><time>2026-04-19T13:59:33Z</time></trkpt><trkpt lat="45.5807926969598" lon="8.976444170279475"><ele>195.0</ele><time>2026-04-19T13:59:35Z</time></trkpt><trkpt lat="45.58083866533872" lon="8.976529846670033"><ele>195.0</ele><time>2026-04-19T13:59:37Z</time></trkpt><trkpt lat="45.58088526459755" lon="8.976597752586011"><ele>195.0</ele><time>2026-04-19T13:59:39Z</time></trkpt><trkpt lat="45.580931877164446" lon="8.976673570087033"><ele>195.0</ele><time>2026-04-19T13:59:42Z</time></trkpt><trkpt lat="45.58099133238683" lon="8.976733318960552"><ele>195.0</ele><time>2026-04-19T14:00:50Z</time></trkpt><trkpt lat="45.58106067127089" lon="8.976868604771035"><ele>194.8</ele><time>2026-04-19T14:00:52Z</time></trkpt><trkpt lat="45.58113582339982" lon="8.976986979169839"><ele>194.6</ele><time>2026-04-19T14:00:54Z</time></trkpt><trkpt lat="45.581214920326005" lon="8.977060973136478"><ele>194.39999999999998</ele><time>2026-04-19T14:00:56Z</time></trkpt><trkpt lat="45.581291133287515" lon="8.977141156997954"><ele>194.2</ele><time>2026-04-19T14:00:58Z</time></trkpt><trkpt lat="45.58136235339001" lon="8.977248026646427"><ele>194.0</ele><time>2026-04-19T14:01:00Z</time></trkpt><trkpt lat="45.58144266271441" lon="8.977356601603192"><ele>193.79999999999998</ele><time>2026-04-19T14:01:02Z</time></trkpt><trkpt lat="45.58154623580025" lon="8.97732965860753"><ele>193.6</ele><time>2026-04-19T14:01:04Z</time></trkpt><trkpt lat="45.58156866951728" lon="8.977159112859471"><ele>193.4</ele><time>2026-04-19T14:01:06Z</time></trkpt><trkpt lat="45.58158035740334" lon="8.977057501834363"><ele>193.2</ele><time>2026-04-19T14:01:07Z</time></trkpt><trkpt lat="45.58162145859385" lon="8.976949356712884"><ele>193.0</ele><time>2026-04-19T14:01:08Z</time></trkpt><trkpt lat="45.58169462030357" lon="8.976844763426072"><ele>193.0</ele><time>2026-04-19T14:01:09Z</time></trkpt><trkpt lat="45.5817771532225" lon="8.976729943271632"><ele>193.0</ele><time>2026-04-19T14:01:10Z</time></trkpt><trkpt lat="45.58186074653128" lon="8.976604484144557"><ele>193.0</ele><time>2026-04-19T14:01:11Z</time></trkpt><trkpt lat="45.581950562203296" lon="8.9764744136044"><ele>193.0</ele><time>2026-04-19T14:01:12Z</time></trkpt><trkpt lat="45.58204574812523" lon="8.97633631091048"><ele>192.5</ele><time>2026-04-19T14:01:13Z</time></trkpt><trkpt lat="45.58214094144898" lon="8.976192526189882"><ele>192.0</ele><time>2026-04-19T14:01:14Z</time></trkpt><trkpt lat="45.58223704131119" lon="8.976050299785939"><ele>191.5</ele><time>2026-04-19T14:01:15Z</time></trkpt><trkpt lat="45.58233031140575" lon="8.975909485227"><ele>191.0</ele><time>2026-04-19T14:01:16Z</time></trkpt><trkpt lat="45.58241756822629" lon="8.975782638261014"><ele>190.5</ele><time>2026-04-19T14:01:17Z</time></trkpt><trkpt lat="45.5825009825956" lon="8.975662248900477"><ele>190.0</ele><time>2026-04-19T14:01:18Z</time></trkpt><trkpt lat="45.58258165314941" lon="8.975549872082134"><ele>189.5</ele><time>2026-04-19T14:01:19Z</time></trkpt><trkpt lat="45.58266866395114" lon="8.975413126077209"><ele>189.0</ele><time>2026-04-19T14:01:20Z</time></trkpt><trkpt lat="45.58275735817342" lon="8.975280147048892"><ele>189.0</ele><time>2026-04-19T14:01:21Z</time></trkpt><trkpt lat="45.582846128895056" lon="8.97514926728632"><ele>189.0</ele><time>2026-04-19T14:01:22Z</time></trkpt><trkpt lat="45.582933311508114" lon="8.975024285510823"><ele>189.0</ele><time>2026-04-19T14:01:23Z</time></trkpt><trkpt lat="45.58301851029721" lon="8.974896505410259"><ele>189.0</ele><time>2026-04-19T14:01:24Z</time></trkpt><trkpt lat="45.5830952062571" lon="8.974775064927506"><ele>190.2</ele><time>2026-04-19T14:01:25Z</time></trkpt><trkpt lat="45.583165524244464" lon="8.974667638642353"><ele>191.39999999999998</ele><time>2026-04-19T14:01:26Z</time></trkpt><trkpt lat="45.583232047392464" lon="8.9745658716086"><ele>192.6</ele><time>2026-04-19T14:01:27Z</time></trkpt><trkpt lat="45.583298746778055" lon="8.97446741962975"><ele>193.8</ele><time>2026-04-19T14:01:28Z</time></trkpt><trkpt lat="45.58335921889327" lon="8.974367480719705"><ele>195.0</ele><time>2026-04-19T14:01:29Z</time></trkpt><trkpt lat="45.58342250682465" lon="8.974278995201077"><ele>195.0</ele><time>2026-04-19T14:01:30Z</time></trkpt><trkpt lat="45.58349602340656" lon="8.974203466916174"><ele>195.0</ele><time>2026-04-19T14:01:31Z</time></trkpt><trkpt lat="45.58356921944479" lon="8.974114570479566"><ele>195.0</ele><time>2026-04-19T14:01:32Z</time></trkpt><trkpt lat="45.58365537937042" lon="8.974050855331486"><ele>195.0</ele><time>2026-04-19T14:01:33Z</time></trkpt><trkpt lat="45.58370832639628" lon="8.973909814033927"><ele>195.0</ele><time>2026-04-19T14:01:34Z</time></trkpt><trkpt lat="45.583768509730696" lon="8.973754471039776"><ele>194.5</ele><time>2026-04-19T14:01:35Z</time></trkpt><trkpt lat="45.583866421429406" lon="8.973615197159829"><ele>194.0</ele><time>2026-04-19T14:01:36Z</time></trkpt><trkpt lat="45.58397928892635" lon="8.973456740774314"><ele>193.5</ele><time>2026-04-19T14:01:37Z</time></trkpt><trkpt lat="45.58407953949172" lon="8.973306538124874"><ele>193.0</ele><time>2026-04-19T14:01:38Z</time></trkpt><trkpt lat="45.584168318309224" lon="8.97315804568419"><ele>193.75</ele><time>2026-04-19T14:01:39Z</time></trkpt><trkpt lat="45.58425173992202" lon="8.97302960974188"><ele>194.5</ele><time>2026-04-19T14:01:40Z</time></trkpt><trkpt lat="45.58433866409686" lon="8.972895357481603"><ele>195.25</ele><time>2026-04-19T14:01:41.001Z</time></trkpt><trkpt lat="45.58443024006359" lon="8.97276496592876"><ele>196.0</ele><time>2026-04-19T14:01:42.001Z</time></trkpt><trkpt lat="45.58451779720371" lon="8.972633036605195"><ele>197.0</ele><time>2026-04-19T14:01:43.001Z</time></trkpt><trkpt lat="45.58460666747344" lon="8.972503231877308"><ele>198.0</ele><time>2026-04-19T14:01:44.001Z</time></trkpt><trkpt lat="45.58469389318004" lon="8.972383338224073"><ele>199.0</ele><time>2026-04-19T14:01:45.001Z</time></trkpt><trkpt lat="45.58478201862854" lon="8.97225135318785"><ele>200.0</ele><time>2026-04-19T14:01:46.001Z</time></trkpt><trkpt lat="45.58486346160174" lon="8.972127394741092"><ele>200.0</ele><time>2026-04-19T14:01:47.001Z</time></trkpt><trkpt lat="45.58494680187656" lon="8.972005405740722"><ele>200.0</ele><time>2026-04-19T14:01:48.001Z</time></trkpt><trkpt lat="45.58502643689672" lon="8.971884089985338"><ele>200.0</ele><time>2026-04-19T14:01:49.001Z</time></trkpt><trkpt lat="45.58510538325363" lon="8.971758914568493"><ele>200.0</ele><time>2026-04-19T14:01:50.001Z</time></trkpt><trkpt lat="45.5851879970762" lon="8.97163718175999"><ele>199.5</ele><time>2026-04-19T14:01:51.001Z</time></trkpt><trkpt lat="45.585269832858586" lon="8.971522984601107"><ele>199.0</ele><time>2026-04-19T14:01:52.001Z</time></trkpt><trkpt lat="45.58534817042111" lon="8.971406677862026"><ele>198.5</ele><time>2026-04-19T14:01:53.001Z</time></trkpt><trkpt lat="45.58543069112284" lon="8.971291019207268"><ele>198.0</ele><time>2026-04-19T14:01:54.001Z</time></trkpt><trkpt lat="45.5855104162457" lon="8.971167103775738"><ele>197.75</ele><time>2026-04-19T14:01:55.001Z</time></trkpt><trkpt lat="45.58559786802377" lon="8.971041742538562"><ele>197.5</ele><time>2026-04-19T14:01:56.001Z</time></trkpt><trkpt lat="45.585686475252714" lon="8.970912749565011"><ele>197.25</ele><time>2026-04-19T14:01:57.001Z</time></trkpt><trkpt lat="45.58577821499022" lon="8.970778830296222"><ele>197.0</ele><time>2026-04-19T14:01:58.001Z</time></trkpt><trkpt lat="45.58587135911727" lon="8.970641694987428"><ele>197.0</ele><time>2026-04-19T14:01:59.001Z</time></trkpt><trkpt lat="45.58596645187677" lon="8.970499858505523"><ele>197.0</ele><time>2026-04-19T14:02:00.001Z</time></trkpt><trkpt lat="45.58605932125035" lon="8.970357369093978"><ele>197.0</ele><time>2026-04-19T14:02:01.001Z</time></trkpt><trkpt lat="45.586151464528434" lon="8.97021305354147"><ele>197.0</ele><time>2026-04-19T14:02:02.001Z</time></trkpt><trkpt lat="45.58624366551809" lon="8.970067222368852"><ele>197.25</ele><time>2026-04-19T14:02:03.001Z</time></trkpt><trkpt lat="45.586334302273144" lon="8.969907155483504"><ele>197.5</ele><time>2026-04-19T14:02:04.001Z</time></trkpt><trkpt lat="45.58641351364226" lon="8.969739100102377"><ele>197.75</ele><time>2026-04-19T14:02:05.001Z</time></trkpt><trkpt lat="45.586488294476936" lon="8.969562319905807"><ele>198.0</ele><time>2026-04-19T14:02:06.001Z</time></trkpt><trkpt lat="45.5865655389247" lon="8.969372995490033"><ele>198.0</ele><time>2026-04-19T14:02:07.001Z</time></trkpt><trkpt lat="45.586633739933106" lon="8.969202766850023"><ele>198.0</ele><time>2026-04-19T14:02:08.001Z</time></trkpt><trkpt lat="45.58669416488955" lon="8.969060418792273"><ele>198.0</ele><time>2026-04-19T14:02:09.001Z</time></trkpt><trkpt lat="45.58675456775488" lon="8.96890502700816"><ele>198.0</ele><time>2026-04-19T14:02:10.001Z</time></trkpt><trkpt lat="45.586816753632874" lon="8.968751272116657"><ele>198.0</ele><time>2026-04-19T14:02:11.001Z</time></trkpt><trkpt lat="45.58688198966402" lon="8.96859465156521"><ele>198.0</ele><time>2026-04-19T14:02:12.001Z</time></trkpt><trkpt lat="45.58693986445398" lon="8.968460175630623"><ele>198.0</ele><time>2026-04-19T14:02:13.001Z</time></trkpt><trkpt lat="45.58699261518573" lon="8.968321391790235"><ele>198.0</ele><time>2026-04-19T14:02:14.001Z</time></trkpt><trkpt lat="45.58704801294456" lon="8.968195043768443"><ele>198.0</ele><time>2026-04-19T14:02:15.001Z</time></trkpt><trkpt lat="45.58709915137244" lon="8.968075965497642"><ele>198.0</ele><time>2026-04-19T14:02:16.001Z</time></trkpt><trkpt lat="45.58715664643901" lon="8.967952211281311"><ele>198.0</ele><time>2026-04-19T14:02:17.001Z</time></trkpt><trkpt lat="45.58721679612184" lon="8.967815316787217"><ele>198.0</ele><time>2026-04-19T14:02:18.001Z</time></trkpt><trkpt lat="45.58725743533513" lon="8.967715564452135"><ele>198.0</ele><time>2026-04-19T14:02:19.001Z</time></trkpt><trkpt lat="45.58729758861" lon="8.967614001806625"><ele>197.83333333333334</ele><time>2026-04-19T14:02:20.001Z</time></trkpt><trkpt lat="45.587334460863794" lon="8.967518496778967"><ele>197.66666666666669</ele><time>2026-04-19T14:02:21.001Z</time></trkpt><trkpt lat="45.58737706181629" lon="8.967420918271626"><ele>197.5</ele><time>2026-04-19T14:02:22.001Z</time></trkpt><trkpt lat="45.5874245329349" lon="8.967331384395177"><ele>197.33333333333334</ele><time>2026-04-19T14:02:23.001Z</time></trkpt><trkpt lat="45.58745907498452" lon="8.9672134902935"><ele>197.16666666666669</ele><time>2026-04-19T14:02:24.001Z</time></trkpt><trkpt lat="45.5875414326762" lon="8.967140458955235"><ele>197.0</ele><time>2026-04-19T14:02:25.001Z</time></trkpt><trkpt lat="45.587573164338956" lon="8.967021297637435"><ele>197.0</ele><time>2026-04-19T14:02:26.001Z</time></trkpt><trkpt lat="45.58757825349624" lon="8.966862837182843"><ele>197.0</ele><time>2026-04-19T14:02:27.001Z</time></trkpt><trkpt lat="45.58758933311483" lon="8.96669015483261"><ele>197.0</ele><time>2026-04-19T14:02:28Z</time></trkpt><trkpt lat="45.58762441681974" lon="8.966523006897912"><ele>197.0</ele><time>2026-04-19T14:02:29Z</time></trkpt><trkpt lat="45.58766866051673" lon="8.966359737702794"><ele>196.75</ele><time>2026-04-19T14:02:30Z</time></trkpt><trkpt lat="45.58771753149611" lon="8.966190386531173"><ele>196.5</ele><time>2026-04-19T14:02:31Z</time></trkpt><trkpt lat="45.58776466331005" lon="8.966021620220149"><ele>196.25</ele><time>2026-04-19T14:02:32Z</time></trkpt><trkpt lat="45.58781339872501" lon="8.965863549336278"><ele>196.0</ele><time>2026-04-19T14:02:33Z</time></trkpt><trkpt lat="45.58786267438134" lon="8.965706922833116"><ele>196.5</ele><time>2026-04-19T14:02:34Z</time></trkpt><trkpt lat="45.587904719265076" lon="8.965531207847008"><ele>197.0</ele><time>2026-04-19T14:02:35Z</time></trkpt><trkpt lat="45.587973127837024" lon="8.965379345654192"><ele>197.5</ele><time>2026-04-19T14:02:36Z</time></trkpt><trkpt lat="45.588052618170934" lon="8.965226143189197"><ele>198.0</ele><time>2026-04-19T14:02:37Z</time></trkpt><trkpt lat="45.58814285664556" lon="8.96508677900154"><ele>198.2</ele><time>2026-04-19T14:02:38Z</time></trkpt><trkpt lat="45.5882256480245" lon="8.964983357460385"><ele>198.4</ele><time>2026-04-19T14:02:39Z</time></trkpt><trkpt lat="45.58829945677347" lon="8.964873576715716"><ele>198.6</ele><time>2026-04-19T14:02:40Z</time></trkpt><trkpt lat="45.58837165560976" lon="8.964754899214924"><ele>198.79999999999998</ele><time>2026-04-19T14:02:41Z</time></trkpt><trkpt lat="45.588457122918896" lon="8.964650320411176"><ele>199.0</ele><time>2026-04-19T14:02:42Z</time></trkpt><trkpt lat="45.588539633543164" lon="8.964525977509405"><ele>199.0</ele><time>2026-04-19T14:02:43Z</time></trkpt><trkpt lat="45.58862573186607" lon="8.964417150055775"><ele>199.0</ele><time>2026-04-19T14:02:44Z</time></trkpt><trkpt lat="45.588703462907766" lon="8.964310091293589"><ele>199.0</ele><time>2026-04-19T14:02:45Z</time></trkpt><trkpt lat="45.58877769172122" lon="8.964214506515438"><ele>199.0</ele><time>2026-04-19T14:02:46Z</time></trkpt><trkpt lat="45.58884631675039" lon="8.964123535030435"><ele>199.0</ele><time>2026-04-19T14:02:47Z</time></trkpt><trkpt lat="45.58891409525113" lon="8.964027822873863"><ele>199.39999999999998</ele><time>2026-04-19T14:02:48Z</time></trkpt><trkpt lat="45.58898068521892" lon="8.963921514224262"><ele>199.8</ele><time>2026-04-19T14:02:49Z</time></trkpt><trkpt lat="45.58903981120169" lon="8.963797611491026"><ele>200.2</ele><time>2026-04-19T14:02:50Z</time></trkpt><trkpt lat="45.58908506005644" lon="8.963659028556378"><ele>200.60000000000002</ele><time>2026-04-19T14:02:51Z</time></trkpt><trkpt lat="45.58912039431111" lon="8.96351495217825"><ele>201.0</ele><time>2026-04-19T14:02:52Z</time></trkpt><trkpt lat="45.58915752178876" lon="8.96336779791853"><ele>200.8</ele><time>2026-04-19T14:02:53Z</time></trkpt><trkpt lat="45.58919665581176" lon="8.963221190540903"><ele>200.60000000000002</ele><time>2026-04-19T14:02:54Z</time></trkpt><trkpt lat="45.589241117712916" lon="8.963074930971931"><ele>200.4</ele><time>2026-04-19T14:02:55Z</time></trkpt><trkpt lat="45.589288713749916" lon="8.962929619053245"><ele>200.2</ele><time>2026-04-19T14:02:56Z</time></trkpt><trkpt lat="45.589347035280916" lon="8.96279291028093"><ele>200.0</ele><time>2026-04-19T14:02:57Z</time></trkpt><trkpt lat="45.589434603110696" lon="8.96267671118899"><ele>200.0</ele><time>2026-04-19T14:02:58Z</time></trkpt><trkpt lat="45.58951634528242" lon="8.962564020593861"><ele>200.0</ele><time>2026-04-19T14:02:59Z</time></trkpt><trkpt lat="45.58959462472493" lon="8.9624761708427"><ele>200.0</ele><time>2026-04-19T14:03:00Z</time></trkpt><trkpt lat="45.58966576574212" lon="8.962389724492368"><ele>200.0</ele><time>2026-04-19T14:03:01Z</time></trkpt><trkpt lat="45.58973569062892" lon="8.962306609448245"><ele>200.0</ele><time>2026-04-19T14:03:02Z</time></trkpt><trkpt lat="45.58980089548515" lon="8.962234110562347"><ele>200.00000000000003</ele><time>2026-04-19T14:03:03Z</time></trkpt><trkpt lat="45.589855007106756" lon="8.962174144863011"><ele>200.0</ele><time>2026-04-19T14:03:04Z</time></trkpt><trkpt lat="45.58990759753031" lon="8.962116141128316"><ele>200.0</ele><time>2026-04-19T14:03:05Z</time></trkpt><trkpt lat="45.58996426114023" lon="8.962052918861733"><ele>200.0</ele><time>2026-04-19T14:03:06Z</time></trkpt><trkpt lat="45.590022065466606" lon="8.961986634630778"><ele>200.0</ele><time>2026-04-19T14:03:07Z</time></trkpt><trkpt lat="45.590085395091876" lon="8.961912092018578"><ele>200.00000000000003</ele><time>2026-04-19T14:03:08Z</time></trkpt><trkpt lat="45.59015190546606" lon="8.961837116578023"><ele>200.0</ele><time>2026-04-19T14:03:09Z</time></trkpt><trkpt lat="45.59021721964083" lon="8.961760746430821"><ele>200.2</ele><time>2026-04-19T14:03:10Z</time></trkpt><trkpt lat="45.59028884247471" lon="8.961678209741267"><ele>200.4</ele><time>2026-04-19T14:03:11Z</time></trkpt><trkpt lat="45.590364431376265" lon="8.961590442000848"><ele>200.60000000000002</ele><time>2026-04-19T14:03:12Z</time></trkpt><trkpt lat="45.59044369204653" lon="8.961496423185164"><ele>200.8</ele><time>2026-04-19T14:03:13Z</time></trkpt><trkpt lat="45.59052795833403" lon="8.961406383116278"><ele>201.0</ele><time>2026-04-19T14:03:14Z</time></trkpt><trkpt lat="45.59061646476741" lon="8.961321739625781"><ele>201.0</ele><time>2026-04-19T14:03:15Z</time></trkpt><trkpt lat="45.590699460011265" lon="8.961239712881671"><ele>201.0</ele><time>2026-04-19T14:03:16Z</time></trkpt><trkpt lat="45.59078134570513" lon="8.961151596222786"><ele>201.0</ele><time>2026-04-19T14:03:17Z</time></trkpt><trkpt lat="45.590868883759136" lon="8.961053301554465"><ele>201.0</ele><time>2026-04-19T14:03:18Z</time></trkpt><trkpt lat="45.59095516454367" lon="8.960958538932486"><ele>201.0</ele><time>2026-04-19T14:03:19Z</time></trkpt><trkpt lat="45.591046886739484" lon="8.960877517473158"><ele>201.0</ele><time>2026-04-19T14:03:20Z</time></trkpt><trkpt lat="45.59113427911531" lon="8.960785190905511"><ele>201.0</ele><time>2026-04-19T14:03:21Z</time></trkpt><trkpt lat="45.59122405396412" lon="8.960690821764064"><ele>201.0</ele><time>2026-04-19T14:03:22Z</time></trkpt><trkpt lat="45.59131263751628" lon="8.960595112110127"><ele>201.0</ele><time>2026-04-19T14:03:23Z</time></trkpt><trkpt lat="45.59140254404569" lon="8.960500192323536"><ele>201.0</ele><time>2026-04-19T14:03:24Z</time></trkpt><trkpt lat="45.591497092527604" lon="8.960404229116548"><ele>201.0</ele><time>2026-04-19T14:03:25Z</time></trkpt><trkpt lat="45.59158929645374" lon="8.960309021137402"><ele>201.0</ele><time>2026-04-19T14:03:26Z</time></trkpt><trkpt lat="45.5916744555824" lon="8.96021634962619"><ele>201.0</ele><time>2026-04-19T14:03:27Z</time></trkpt><trkpt lat="45.59175490086289" lon="8.960130392808408"><ele>201.0</ele><time>2026-04-19T14:03:28Z</time></trkpt><trkpt lat="45.59183017273478" lon="8.960057836649268"><ele>201.0</ele><time>2026-04-19T14:03:29Z</time></trkpt><trkpt lat="45.59190752992797" lon="8.959972584644579"><ele>201.0</ele><time>2026-04-19T14:03:30Z</time></trkpt><trkpt lat="45.59199223270059" lon="8.959885464585803"><ele>201.0</ele><time>2026-04-19T14:03:31Z</time></trkpt><trkpt lat="45.592076952662985" lon="8.959795941015422"><ele>201.0</ele><time>2026-04-19T14:03:32Z</time></trkpt><trkpt lat="45.59216318357689" lon="8.959702121682161"><ele>201.0</ele><time>2026-04-19T14:03:33Z</time></trkpt><trkpt lat="45.59225354842482" lon="8.959607388390657"><ele>201.0</ele><time>2026-04-19T14:03:34Z</time></trkpt><trkpt lat="45.59235574593676" lon="8.959515568204667"><ele>201.5</ele><time>2026-04-19T14:03:35Z</time></trkpt><trkpt lat="45.592456740388805" lon="8.959421654682357"><ele>202.0</ele><time>2026-04-19T14:03:36Z</time></trkpt><trkpt lat="45.59255596270332" lon="8.959318956520546"><ele>202.5</ele><time>2026-04-19T14:03:37Z</time></trkpt><trkpt lat="45.59265147425065" lon="8.959217523847057"><ele>203.0</ele><time>2026-04-19T14:03:38Z</time></trkpt><trkpt lat="45.59274974029294" lon="8.959129795097882"><ele>203.2</ele><time>2026-04-19T14:03:39Z</time></trkpt><trkpt lat="45.592845472239155" lon="8.959039439464002"><ele>203.4</ele><time>2026-04-19T14:03:40Z</time></trkpt><trkpt lat="45.59293247439947" lon="8.958955776139346"><ele>203.6</ele><time>2026-04-19T14:03:41Z</time></trkpt><trkpt lat="45.593010051663306" lon="8.958883042897055"><ele>203.79999999999998</ele><time>2026-04-19T14:03:42Z</time></trkpt><trkpt lat="45.59309044111054" lon="8.95880688623853"><ele>204.0</ele><time>2026-04-19T14:03:43Z</time></trkpt><trkpt lat="45.59317018405598" lon="8.9587285843108"><ele>204.0</ele><time>2026-04-19T14:03:44Z</time></trkpt><trkpt lat="45.59323766377988" lon="8.958671359468502"><ele>204.0</ele><time>2026-04-19T14:03:45Z</time></trkpt><trkpt lat="45.59330060619805" lon="8.9586076055761"><ele>204.0</ele><time>2026-04-19T14:03:46Z</time></trkpt><trkpt lat="45.59335624217485" lon="8.958552148113291"><ele>204.0</ele><time>2026-04-19T14:03:47Z</time></trkpt><trkpt lat="45.59341556269352" lon="8.958494030248104"><ele>204.0</ele><time>2026-04-19T14:03:48Z</time></trkpt><trkpt lat="45.59347856816278" lon="8.958442514773687"><ele>204.0</ele><time>2026-04-19T14:03:49Z</time></trkpt><trkpt lat="45.59354533207249" lon="8.95838084326403"><ele>204.0</ele><time>2026-04-19T14:03:50Z</time></trkpt><trkpt lat="45.59361545248052" lon="8.95830368340976"><ele>204.16666666666666</ele><time>2026-04-19T14:03:51Z</time></trkpt><trkpt lat="45.5936954811948" lon="8.958230870014775"><ele>204.33333333333331</ele><time>2026-04-19T14:03:52Z</time></trkpt><trkpt lat="45.59378629812587" lon="8.958154614178872"><ele>204.5</ele><time>2026-04-19T14:03:53Z</time></trkpt><trkpt lat="45.59386322551478" lon="8.958081172095875"><ele>204.66666666666666</ele><time>2026-04-19T14:03:54Z</time></trkpt><trkpt lat="45.59393149158997" lon="8.958018956414618"><ele>204.83333333333331</ele><time>2026-04-19T14:03:55.001Z</time></trkpt><trkpt lat="45.593994383433866" lon="8.957966666330716"><ele>205.0</ele><time>2026-04-19T14:03:56.001Z</time></trkpt><trkpt lat="45.594057381941596" lon="8.95790531127132"><ele>205.0</ele><time>2026-04-19T14:03:57.001Z</time></trkpt><trkpt lat="45.59410914900291" lon="8.957852378881991"><ele>205.0</ele><time>2026-04-19T14:03:58.001Z</time></trkpt><trkpt lat="45.59416469182579" lon="8.957794463865463"><ele>205.0</ele><time>2026-04-19T14:03:59.001Z</time></trkpt><trkpt lat="45.59421828778149" lon="8.957740226447577"><ele>205.0</ele><time>2026-04-19T14:04:00.001Z</time></trkpt><trkpt lat="45.59426764021202" lon="8.95768091493717"><ele>205.0</ele><time>2026-04-19T14:04:01.001Z</time></trkpt><trkpt lat="45.59436417073927" lon="8.95759417538458"><ele>205.0</ele><time>2026-04-19T14:04:03.001Z</time></trkpt><trkpt lat="45.59441856716315" lon="8.957545020075763"><ele>205.0</ele><time>2026-04-19T14:04:04.001Z</time></trkpt><trkpt lat="45.59448162165653" lon="8.957483272183577"><ele>205.2</ele><time>2026-04-19T14:04:05.001Z</time></trkpt><trkpt lat="45.594555921278655" lon="8.957412315249002"><ele>205.4</ele><time>2026-04-19T14:04:06.001Z</time></trkpt><trkpt lat="45.59464102569427" lon="8.95732876096118"><ele>205.60000000000002</ele><time>2026-04-19T14:04:07.001Z</time></trkpt><trkpt lat="45.59473658914986" lon="8.957238527489666"><ele>205.8</ele><time>2026-04-19T14:04:08.001Z</time></trkpt><trkpt lat="45.594841619979384" lon="8.957146160792941"><ele>206.0</ele><time>2026-04-19T14:04:09.001Z</time></trkpt><trkpt lat="45.594941341397195" lon="8.957048175827124"><ele>206.0</ele><time>2026-04-19T14:04:10.001Z</time></trkpt><trkpt lat="45.5950362743411" lon="8.956957910416135"><ele>206.0</ele><time>2026-04-19T14:04:11.001Z</time></trkpt><trkpt lat="45.5951236253587" lon="8.956876548378732"><ele>206.0</ele><time>2026-04-19T14:04:12.001Z</time></trkpt><trkpt lat="45.595210969751115" lon="8.956800050120734"><ele>206.0</ele><time>2026-04-19T14:04:13.001Z</time></trkpt><trkpt lat="45.595296509488456" lon="8.956725153870565"><ele>206.0</ele><time>2026-04-19T14:04:14.001Z</time></trkpt><trkpt lat="45.595384114816305" lon="8.956641981163456"><ele>206.0</ele><time>2026-04-19T14:04:15.001Z</time></trkpt><trkpt lat="45.59547372070529" lon="8.956558165410915"><ele>206.0</ele><time>2026-04-19T14:04:16.001Z</time></trkpt><trkpt lat="45.59556246863136" lon="8.956475400853712"><ele>206.0</ele><time>2026-04-19T14:04:17.001Z</time></trkpt><trkpt lat="45.595646350587586" lon="8.956392125719784"><ele>206.0</ele><time>2026-04-19T14:04:18.001Z</time></trkpt><trkpt lat="45.59574030397774" lon="8.95630919132918"><ele>206.0</ele><time>2026-04-19T14:04:19.001Z</time></trkpt><trkpt lat="45.595819821117125" lon="8.956232845260134"><ele>206.00000000000003</ele><time>2026-04-19T14:04:20.001Z</time></trkpt><trkpt lat="45.59588631551996" lon="8.956171760134433"><ele>206.0</ele><time>2026-04-19T14:04:21.001Z</time></trkpt><trkpt lat="45.595947979846784" lon="8.95611037056734"><ele>206.0</ele><time>2026-04-19T14:04:22.001Z</time></trkpt><trkpt lat="45.59600982462606" lon="8.956052607580117"><ele>206.0</ele><time>2026-04-19T14:04:23.001Z</time></trkpt><trkpt lat="45.59606535621731" lon="8.956000072067123"><ele>206.00000000000003</ele><time>2026-04-19T14:04:24.001Z</time></trkpt><trkpt lat="45.596127258578505" lon="8.95594381345294"><ele>206.0</ele><time>2026-04-19T14:04:25.001Z</time></trkpt><trkpt lat="45.59619360463609" lon="8.955873172700848"><ele>206.60000000000002</ele><time>2026-04-19T14:04:26.001Z</time></trkpt><trkpt lat="45.59626478224338" lon="8.95581899261135"><ele>207.2</ele><time>2026-04-19T14:04:27.001Z</time></trkpt><trkpt lat="45.59635635406477" lon="8.955719645444015"><ele>207.8</ele><time>2026-04-19T14:04:29.001Z</time></trkpt><trkpt lat="45.596451601580235" lon="8.955640246064728"><ele>208.39999999999998</ele><time>2026-04-19T14:04:31.001Z</time></trkpt><trkpt lat="45.59654592381667" lon="8.955594794581"><ele>209.0</ele><time>2026-04-19T14:04:33.001Z</time></trkpt><trkpt lat="45.5966572933046" lon="8.955710921608235"><ele>209.0</ele><time>2026-04-19T14:04:35Z</time></trkpt><trkpt lat="45.596702357868686" lon="8.955832861355209"><ele>209.0</ele><time>2026-04-19T14:04:36Z</time></trkpt><trkpt lat="45.59675532963987" lon="8.955965281189954"><ele>209.0</ele><time>2026-04-19T14:04:37Z</time></trkpt><trkpt lat="45.59682362977321" lon="8.95609481715252"><ele>209.0</ele><time>2026-04-19T14:04:38Z</time></trkpt><trkpt lat="45.59689532226625" lon="8.956233966444513"><ele>209.0</ele><time>2026-04-19T14:04:39Z</time></trkpt><trkpt lat="45.59696905463274" lon="8.956381528510567"><ele>208.75</ele><time>2026-04-19T14:04:40Z</time></trkpt><trkpt lat="45.59704891138265" lon="8.956542205590832"><ele>208.5</ele><time>2026-04-19T14:04:41Z</time></trkpt><trkpt lat="45.59713572110056" lon="8.956711318890893"><ele>208.25</ele><time>2026-04-19T14:04:42Z</time></trkpt><trkpt lat="45.597225378986714" lon="8.956899065047788"><ele>208.0</ele><time>2026-04-19T14:04:43Z</time></trkpt><trkpt lat="45.597332958500864" lon="8.957120998819828"><ele>207.5</ele><time>2026-04-19T14:04:44Z</time></trkpt><trkpt lat="45.59746616817703" lon="8.957388994919956"><ele>207.0</ele><time>2026-04-19T14:04:45Z</time></trkpt><trkpt lat="45.59761999529077" lon="8.957685967315392"><ele>207.0</ele><time>2026-04-19T14:04:46Z</time></trkpt><trkpt lat="45.597764447474844" lon="8.957946518038543"><ele>207.0</ele><time>2026-04-19T14:04:47Z</time></trkpt><trkpt lat="45.59789732401562" lon="8.958187641599137"><ele>207.0</ele><time>2026-04-19T14:04:48Z</time></trkpt><trkpt lat="45.598011733537874" lon="8.958449197352756"><ele>207.0</ele><time>2026-04-19T14:04:49Z</time></trkpt><trkpt lat="45.59813238010231" lon="8.958677236923167"><ele>207.0</ele><time>2026-04-19T14:04:50Z</time></trkpt><trkpt lat="45.59827454077288" lon="8.958978570915297"><ele>207.0</ele><time>2026-04-19T14:04:51Z</time></trkpt><trkpt lat="45.59839561265583" lon="8.959232446477634"><ele>207.0</ele><time>2026-04-19T14:04:52Z</time></trkpt><trkpt lat="45.5985127280497" lon="8.95945543837182"><ele>207.0</ele><time>2026-04-19T14:04:53Z</time></trkpt><trkpt lat="45.59861088589256" lon="8.959668226201723"><ele>207.0</ele><time>2026-04-19T14:04:54Z</time></trkpt><trkpt lat="45.59870534714875" lon="8.959887720897434"><ele>207.0</ele><time>2026-04-19T14:04:55Z</time></trkpt><trkpt lat="45.598820720000695" lon="8.96009597086519"><ele>207.0</ele><time>2026-04-19T14:04:56Z</time></trkpt><trkpt lat="45.59893016645095" lon="8.96030564923378"><ele>207.0</ele><time>2026-04-19T14:04:57Z</time></trkpt><trkpt lat="45.59904351113499" lon="8.9605167593854"><ele>207.0</ele><time>2026-04-19T14:04:58Z</time></trkpt><trkpt lat="45.599150372431886" lon="8.96073046427648"><ele>207.0</ele><time>2026-04-19T14:04:59Z</time></trkpt><trkpt lat="45.599257431086414" lon="8.960943975058111"><ele>207.0</ele><time>2026-04-19T14:05:00Z</time></trkpt><trkpt lat="45.599364107054726" lon="8.96116080649686"><ele>207.0</ele><time>2026-04-19T14:05:01Z</time></trkpt><trkpt lat="45.599471765125514" lon="8.96137542545752"><ele>207.0</ele><time>2026-04-19T14:05:02Z</time></trkpt><trkpt lat="45.59957947189166" lon="8.9615836628772"><ele>207.66666666666669</ele><time>2026-04-19T14:05:03Z</time></trkpt><trkpt lat="45.599682803348536" lon="8.96178667819923"><ele>208.33333333333334</ele><time>2026-04-19T14:05:04Z</time></trkpt><trkpt lat="45.59978624547793" lon="8.961986584222839"><ele>209.0</ele><time>2026-04-19T14:05:05Z</time></trkpt><trkpt lat="45.599881389481695" lon="8.962169409816157"><ele>209.0</ele><time>2026-04-19T14:05:06Z</time></trkpt><trkpt lat="45.59997516442154" lon="8.962344412160316"><ele>209.0</ele><time>2026-04-19T14:05:07Z</time></trkpt><trkpt lat="45.60006728884579" lon="8.962523891941535"><ele>209.0</ele><time>2026-04-19T14:05:08Z</time></trkpt><trkpt lat="45.600157165052615" lon="8.96270442361033"><ele>209.0</ele><time>2026-04-19T14:05:09Z</time></trkpt><trkpt lat="45.60024842783604" lon="8.962883897899296"><ele>209.0</ele><time>2026-04-19T14:05:10Z</time></trkpt><trkpt lat="45.60033835878257" lon="8.963061806179727"><ele>209.0</ele><time>2026-04-19T14:05:11Z</time></trkpt><trkpt lat="45.600426582710284" lon="8.963239906012097"><ele>208.0</ele><time>2026-04-19T14:05:12Z</time></trkpt><trkpt lat="45.60051001157546" lon="8.96340567215537"><ele>207.0</ele><time>2026-04-19T14:05:13Z</time></trkpt><trkpt lat="45.600581788503696" lon="8.96354475165391"><ele>206.0</ele><time>2026-04-19T14:05:14Z</time></trkpt><trkpt lat="45.60064450883797" lon="8.963669805115192"><ele>205.0</ele><time>2026-04-19T14:05:15Z</time></trkpt><trkpt lat="45.60072245877233" lon="8.963821789592444"><ele>205.0</ele><time>2026-04-19T14:05:16Z</time></trkpt><trkpt lat="45.6008259298312" lon="8.964030410030043"><ele>205.0</ele><time>2026-04-19T14:05:17Z</time></trkpt><trkpt lat="45.60094972938934" lon="8.96427513005805"><ele>205.0</ele><time>2026-04-19T14:05:18Z</time></trkpt><trkpt lat="45.601050719828116" lon="8.964471546119936"><ele>205.5</ele><time>2026-04-19T14:05:19Z</time></trkpt><trkpt lat="45.60114000781217" lon="8.964643820710165"><ele>206.0</ele><time>2026-04-19T14:05:20Z</time></trkpt><trkpt lat="45.60122113132121" lon="8.964812245201315"><ele>206.5</ele><time>2026-04-19T14:05:21Z</time></trkpt><trkpt lat="45.60130632776984" lon="8.964985651982744"><ele>207.0</ele><time>2026-04-19T14:05:22Z</time></trkpt><trkpt lat="45.60139315115664" lon="8.965161821968367"><ele>208.0</ele><time>2026-04-19T14:05:23Z</time></trkpt><trkpt lat="45.60147368694548" lon="8.965315022069099"><ele>209.0</ele><time>2026-04-19T14:05:24Z</time></trkpt><trkpt lat="45.60154132691755" lon="8.965452796008822"><ele>210.0</ele><time>2026-04-19T14:05:25Z</time></trkpt><trkpt lat="45.601606353268515" lon="8.965577184294073"><ele>211.0</ele><time>2026-04-19T14:05:26Z</time></trkpt><trkpt lat="45.601667471682816" lon="8.965694264940318"><ele>211.0</ele><time>2026-04-19T14:05:27Z</time></trkpt><trkpt lat="45.60171809744322" lon="8.965793428589317"><ele>211.0</ele><time>2026-04-19T14:05:28Z</time></trkpt><trkpt lat="45.60176260849222" lon="8.96587559584868"><ele>211.0</ele><time>2026-04-19T14:05:29Z</time></trkpt><trkpt lat="45.601808116487405" lon="8.966029998289883"><ele>211.0</ele><time>2026-04-19T14:05:31Z</time></trkpt><trkpt lat="45.60186089667735" lon="8.966121153992516"><ele>211.0</ele><time>2026-04-19T14:05:33Z</time></trkpt><trkpt lat="45.60174871618025" lon="8.966276069791464"><ele>210.0</ele><time>2026-04-19T14:05:34Z</time></trkpt><trkpt lat="45.60168910942467" lon="8.966352556516844"><ele>209.0</ele><time>2026-04-19T14:05:35Z</time></trkpt><trkpt lat="45.60160702759607" lon="8.966425194886746"><ele>208.0</ele><time>2026-04-19T14:05:36Z</time></trkpt><trkpt lat="45.6015181351005" lon="8.966507824604765"><ele>207.0</ele><time>2026-04-19T14:05:37Z</time></trkpt><trkpt lat="45.60143347451891" lon="8.96659307015854"><ele>206.0</ele><time>2026-04-19T14:05:38Z</time></trkpt><trkpt lat="45.601361022942235" lon="8.96665908959093"><ele>205.8</ele><time>2026-04-19T14:05:39.001Z</time></trkpt><trkpt lat="45.60128087130006" lon="8.966741001211913"><ele>205.60000000000002</ele><time>2026-04-19T14:05:40.001Z</time></trkpt><trkpt lat="45.60119674324272" lon="8.966828094481004"><ele>205.4</ele><time>2026-04-19T14:05:41.001Z</time></trkpt><trkpt lat="45.60110759436192" lon="8.966913615535265"><ele>205.2</ele><time>2026-04-19T14:05:42.001Z</time></trkpt><trkpt lat="45.60101622046894" lon="8.96700280917503"><ele>205.0</ele><time>2026-04-19T14:05:43.001Z</time></trkpt><trkpt lat="45.600919072639726" lon="8.967101034706527"><ele>205.0</ele><time>2026-04-19T14:05:44.001Z</time></trkpt><trkpt lat="45.600823421643575" lon="8.967196670913195"><ele>205.0</ele><time>2026-04-19T14:05:45.001Z</time></trkpt><trkpt lat="45.600725323777155" lon="8.96729549299988"><ele>205.0</ele><time>2026-04-19T14:05:46.001Z</time></trkpt><trkpt lat="45.600621372795544" lon="8.967398128364234"><ele>205.0</ele><time>2026-04-19T14:05:47.001Z</time></trkpt><trkpt lat="45.60051558287878" lon="8.967495334569039"><ele>205.2</ele><time>2026-04-19T14:05:48.001Z</time></trkpt><trkpt lat="45.6004084874991" lon="8.96759037261213"><ele>205.4</ele><time>2026-04-19T14:05:49.001Z</time></trkpt><trkpt lat="45.60031582281211" lon="8.967674767871799"><ele>205.60000000000002</ele><time>2026-04-19T14:05:50.001Z</time></trkpt><trkpt lat="45.600227442783655" lon="8.967749450347645"><ele>205.8</ele><time>2026-04-19T14:05:51.001Z</time></trkpt><trkpt lat="45.600139454907826" lon="8.967820276453368"><ele>206.0</ele><time>2026-04-19T14:05:52.001Z</time></trkpt><trkpt lat="45.600052990732" lon="8.967889776532575"><ele>206.0</ele><time>2026-04-19T14:05:53.001Z</time></trkpt><trkpt lat="45.59996155623344" lon="8.967948335733158"><ele>206.0</ele><time>2026-04-19T14:05:54.001Z</time></trkpt><trkpt lat="45.59986794127832" lon="8.968007784175176"><ele>206.0</ele><time>2026-04-19T14:05:55.001Z</time></trkpt><trkpt lat="45.59978788002786" lon="8.968077867903126"><ele>206.0</ele><time>2026-04-19T14:05:56.001Z</time></trkpt><trkpt lat="45.59968549016839" lon="8.96812469295461"><ele>206.0</ele><time>2026-04-19T14:05:57.001Z</time></trkpt><trkpt lat="45.599583943583056" lon="8.96817867010873"><ele>206.00000000000003</ele><time>2026-04-19T14:05:58.001Z</time></trkpt><trkpt lat="45.59948687753915" lon="8.968225818715968"><ele>206.0</ele><time>2026-04-19T14:05:59.001Z</time></trkpt><trkpt lat="45.59940240361156" lon="8.968258899924505"><ele>206.0</ele><time>2026-04-19T14:06:00.001Z</time></trkpt><trkpt lat="45.59932142202553" lon="8.968293918998244"><ele>206.0</ele><time>2026-04-19T14:06:01.001Z</time></trkpt><trkpt lat="45.599237573329525" lon="8.968330629352463"><ele>206.00000000000003</ele><time>2026-04-19T14:06:02.001Z</time></trkpt><trkpt lat="45.599157193457266" lon="8.968369472404035"><ele>206.0</ele><time>2026-04-19T14:06:03.001Z</time></trkpt><trkpt lat="45.5990796133185" lon="8.968402235427032"><ele>206.00000000000003</ele><time>2026-04-19T14:06:04.001Z</time></trkpt><trkpt lat="45.59900619645996" lon="8.96842145809511"><ele>206.0</ele><time>2026-04-19T14:06:05.001Z</time></trkpt><trkpt lat="45.59894419454727" lon="8.968454241375904"><ele>206.0</ele><time>2026-04-19T14:06:06.001Z</time></trkpt><trkpt lat="45.59888232239251" lon="8.968480059349194"><ele>206.0</ele><time>2026-04-19T14:06:07.001Z</time></trkpt><trkpt lat="45.598770726910985" lon="8.968518046574399"><ele>206.00000000000003</ele><time>2026-04-19T14:06:09.001Z</time></trkpt><trkpt lat="45.5986661827961" lon="8.968518344667677"><ele>206.0</ele><time>2026-04-19T14:06:11.001Z</time></trkpt><trkpt lat="45.598594290572656" lon="8.96849160358735"><ele>205.8</ele><time>2026-04-19T14:06:13.001Z</time></trkpt><trkpt lat="45.59852255355198" lon="8.968474137840003"><ele>205.60000000000002</ele><time>2026-04-19T14:06:16.001Z</time></trkpt><trkpt lat="45.598464830944515" lon="8.968662838509344"><ele>205.4</ele><time>2026-04-19T14:06:17.001Z</time></trkpt><trkpt lat="45.59842164572943" lon="8.968772608122423"><ele>205.2</ele><time>2026-04-19T14:06:19.001Z</time></trkpt><trkpt lat="45.59842615673285" lon="8.96888653532445"><ele>205.0</ele><time>2026-04-19T14:06:21.001Z</time></trkpt><trkpt lat="45.598448712265146" lon="8.969010810311303"><ele>204.99999999999997</ele><time>2026-04-19T14:06:23.001Z</time></trkpt><trkpt lat="45.59847502562235" lon="8.969150479694962"><ele>205.0</ele><time>2026-04-19T14:06:25.001Z</time></trkpt><trkpt lat="45.59848931451699" lon="8.969283477639987"><ele>205.0</ele><time>2026-04-19T14:06:27.001Z</time></trkpt><trkpt lat="45.59848782577764" lon="8.969406830862175"><ele>205.0</ele><time>2026-04-19T14:06:30.001Z</time></trkpt><trkpt lat="45.598404732828804" lon="8.969450409476623"><ele>204.99999999999997</ele><time>2026-04-19T14:06:33.001Z</time></trkpt><trkpt lat="45.59834851574486" lon="8.96950937076145"><ele>205.0</ele><time>2026-04-19T14:06:49Z</time></trkpt><trkpt lat="45.59841537611226" lon="8.969443247304579"><ele>205.0</ele><time>2026-04-19T14:09:49.001Z</time></trkpt><trkpt lat="45.59849673766195" lon="8.969388496090646"><ele>205.0</ele><time>2026-04-19T14:09:52.001Z</time></trkpt><trkpt lat="45.598470049024954" lon="8.969142580212493"><ele>205.0</ele><time>2026-04-19T14:09:54.001Z</time></trkpt><trkpt lat="45.59846325221953" lon="8.969034677713989"><ele>205.0</ele><time>2026-04-19T14:09:55.001Z</time></trkpt><trkpt lat="45.59846161221396" lon="8.968937169726845"><ele>205.0</ele><time>2026-04-19T14:09:56.001Z</time></trkpt><trkpt lat="45.59847433661364" lon="8.968820100959634"><ele>204.99999999999997</ele><time>2026-04-19T14:09:58.001Z</time></trkpt><trkpt lat="45.598506597697146" lon="8.968706451339457"><ele>205.0</ele><time>2026-04-19T14:10:00.001Z</time></trkpt><trkpt lat="45.59853102073222" lon="8.968596322212457"><ele>205.0</ele><time>2026-04-19T14:10:02.001Z</time></trkpt><trkpt lat="45.59850721799897" lon="8.968448591142511"><ele>205.0</ele><time>2026-04-19T14:10:04.001Z</time></trkpt><trkpt lat="45.59846972531449" lon="8.968356360675891"><ele>204.99999999999997</ele><time>2026-04-19T14:10:05.001Z</time></trkpt><trkpt lat="45.598426812525524" lon="8.968274223530516"><ele>205.0</ele><time>2026-04-19T14:10:06.001Z</time></trkpt><trkpt lat="45.59837204989391" lon="8.968170094246721"><ele>204.5</ele><time>2026-04-19T14:10:07.001Z</time></trkpt><trkpt lat="45.598306296519915" lon="8.968036988250992"><ele>204.0</ele><time>2026-04-19T14:10:08.001Z</time></trkpt><trkpt lat="45.59822818652385" lon="8.967892605171329"><ele>203.5</ele><time>2026-04-19T14:10:09.001Z</time></trkpt><trkpt lat="45.59815798813872" lon="8.967753160468508"><ele>203.0</ele><time>2026-04-19T14:10:10.001Z</time></trkpt><trkpt lat="45.59808871043189" lon="8.967611111041489"><ele>203.0</ele><time>2026-04-19T14:10:11.001Z</time></trkpt><trkpt lat="45.59800971567394" lon="8.967449674412988"><ele>203.0</ele><time>2026-04-19T14:10:12.001Z</time></trkpt><trkpt lat="45.5979296300197" lon="8.967279361313578"><ele>203.0</ele><time>2026-04-19T14:10:13.001Z</time></trkpt><trkpt lat="45.59785275639225" lon="8.96712749724623"><ele>203.0</ele><time>2026-04-19T14:10:14.001Z</time></trkpt><trkpt lat="45.59777813564692" lon="8.966979475853611"><ele>203.5</ele><time>2026-04-19T14:10:15.001Z</time></trkpt><trkpt lat="45.59770364483875" lon="8.966827971263799"><ele>204.0</ele><time>2026-04-19T14:10:16.001Z</time></trkpt><trkpt lat="45.597631190813644" lon="8.966677765956304"><ele>204.5</ele><time>2026-04-19T14:10:17.001Z</time></trkpt><trkpt lat="45.59755313026285" lon="8.966527341804104"><ele>205.0</ele><time>2026-04-19T14:10:18.001Z</time></trkpt><trkpt lat="45.59747713886664" lon="8.966375600165948"><ele>205.0</ele><time>2026-04-19T14:10:19.001Z</time></trkpt><trkpt lat="45.59740285573741" lon="8.966220807080667"><ele>205.0</ele><time>2026-04-19T14:10:20.001Z</time></trkpt><trkpt lat="45.59732670140988" lon="8.966067182628846"><ele>205.0</ele><time>2026-04-19T14:10:21.001Z</time></trkpt><trkpt lat="45.59724066082673" lon="8.965913875167933"><ele>205.0</ele><time>2026-04-19T14:10:22.001Z</time></trkpt><trkpt lat="45.59715401207995" lon="8.965751095293413"><ele>205.0</ele><time>2026-04-19T14:10:23.001Z</time></trkpt><trkpt lat="45.59707261264353" lon="8.965574680745311"><ele>205.0</ele><time>2026-04-19T14:10:24.001Z</time></trkpt><trkpt lat="45.596993513306096" lon="8.965422286608359"><ele>205.0</ele><time>2026-04-19T14:10:25.001Z</time></trkpt><trkpt lat="45.59692092317808" lon="8.965288687952889"><ele>205.0</ele><time>2026-04-19T14:10:26.001Z</time></trkpt><trkpt lat="45.59686378373138" lon="8.96517260279331"><ele>205.16666666666666</ele><time>2026-04-19T14:10:27.001Z</time></trkpt><trkpt lat="45.59680733238567" lon="8.965065519357063"><ele>205.33333333333331</ele><time>2026-04-19T14:10:28.001Z</time></trkpt><trkpt lat="45.59675359207972" lon="8.964968215232851"><ele>205.5</ele><time>2026-04-19T14:10:29.001Z</time></trkpt><trkpt lat="45.59671329159862" lon="8.964872193027523"><ele>205.66666666666669</ele><time>2026-04-19T14:10:30.001Z</time></trkpt><trkpt lat="45.596672215468054" lon="8.964792640098755"><ele>205.83333333333334</ele><time>2026-04-19T14:10:31.001Z</time></trkpt><trkpt lat="45.596628207650106" lon="8.964709055435028"><ele>206.0</ele><time>2026-04-19T14:10:32.001Z</time></trkpt><trkpt lat="45.596582221129495" lon="8.964626143370552"><ele>206.00000000000003</ele><time>2026-04-19T14:10:33.001Z</time></trkpt><trkpt lat="45.59652084440545" lon="8.964588517904998"><ele>206.0</ele><time>2026-04-19T14:10:34.001Z</time></trkpt><trkpt lat="45.59639985368856" lon="8.964635903733507"><ele>206.0</ele><time>2026-04-19T14:10:36.001Z</time></trkpt><trkpt lat="45.59634000016114" lon="8.964687040528679"><ele>206.0</ele><time>2026-04-19T14:10:37.001Z</time></trkpt><trkpt lat="45.59628005149647" lon="8.964752498378173"><ele>206.00000000000003</ele><time>2026-04-19T14:10:38.001Z</time></trkpt><trkpt lat="45.59621969609248" lon="8.964824292772501"><ele>206.0</ele><time>2026-04-19T14:10:39.001Z</time></trkpt><trkpt lat="45.5961571722421" lon="8.964894840436521"><ele>206.0</ele><time>2026-04-19T14:10:40.001Z</time></trkpt><trkpt lat="45.596086343936605" lon="8.964972072820206"><ele>206.0</ele><time>2026-04-19T14:10:41.001Z</time></trkpt><trkpt lat="45.596010081375375" lon="8.96504675192996"><ele>206.0</ele><time>2026-04-19T14:10:42.001Z</time></trkpt><trkpt lat="45.59593881070694" lon="8.965124939364971"><ele>206.0</ele><time>2026-04-19T14:10:43.001Z</time></trkpt><trkpt lat="45.59587827477064" lon="8.965187459349712"><ele>206.0</ele><time>2026-04-19T14:10:44.001Z</time></trkpt><trkpt lat="45.59579507803956" lon="8.965276325145782"><ele>205.83333333333334</ele><time>2026-04-19T14:10:46.001Z</time></trkpt><trkpt lat="45.595741841629525" lon="8.965363004564843"><ele>205.66666666666669</ele><time>2026-04-19T14:10:48.001Z</time></trkpt><trkpt lat="45.595669138402094" lon="8.965423806522637"><ele>205.5</ele><time>2026-04-19T14:10:50.001Z</time></trkpt><trkpt lat="45.595619016869506" lon="8.965485311020812"><ele>205.33333333333331</ele><time>2026-04-19T14:10:52Z</time></trkpt><trkpt lat="45.59556032725626" lon="8.965550258030486"><ele>205.16666666666666</ele><time>2026-04-19T14:10:55Z</time></trkpt><trkpt lat="45.59549873703357" lon="8.965612582718771"><ele>205.0</ele><time>2026-04-19T14:10:59Z</time></trkpt><trkpt lat="45.59543576289667" lon="8.96569484323873"><ele>205.0</ele><time>2026-04-19T14:11:02Z</time></trkpt><trkpt lat="45.59552235752984" lon="8.965659262425921"><ele>205.0</ele><time>2026-04-19T14:11:06Z</time></trkpt><trkpt lat="45.59560560988051" lon="8.965689849642438"><ele>205.0</ele><time>2026-04-19T14:11:07Z</time></trkpt><trkpt lat="45.59566634998963" lon="8.96557812497802"><ele>205.0</ele><time>2026-04-19T14:11:09Z</time></trkpt><trkpt lat="45.595740984185426" lon="8.965445441044848"><ele>205.0</ele><time>2026-04-19T14:11:11Z</time></trkpt><trkpt lat="45.595830590622434" lon="8.96533887490674"><ele>204.99999999999997</ele><time>2026-04-19T14:11:13Z</time></trkpt><trkpt lat="45.59592676777917" lon="8.965239714938953"><ele>205.0</ele><time>2026-04-19T14:11:15Z</time></trkpt><trkpt lat="45.59597797505595" lon="8.965184318123118"><ele>205.0</ele><time>2026-04-19T14:11:16Z</time></trkpt><trkpt lat="45.5960358464026" lon="8.965131408666458"><ele>205.0</ele><time>2026-04-19T14:11:17Z</time></trkpt><trkpt lat="45.596097234460856" lon="8.965055583791596"><ele>204.99999999999997</ele><time>2026-04-19T14:11:18Z</time></trkpt><trkpt lat="45.596164634865666" lon="8.964979259391805"><ele>205.0</ele><time>2026-04-19T14:11:19Z</time></trkpt><trkpt lat="45.59622507588082" lon="8.964910753538696"><ele>205.2</ele><time>2026-04-19T14:11:20Z</time></trkpt><trkpt lat="45.596347366288995" lon="8.964766737540785"><ele>205.4</ele><time>2026-04-19T14:11:23Z</time></trkpt><trkpt lat="45.596417101918654" lon="8.96470523933633"><ele>205.60000000000002</ele><time>2026-04-19T14:11:25Z</time></trkpt><trkpt lat="45.59647528336818" lon="8.964646387837115"><ele>205.8</ele><time>2026-04-19T14:11:27Z</time></trkpt><trkpt lat="45.59651867525534" lon="8.964531984704282"><ele>206.0</ele><time>2026-04-19T14:11:30Z</time></trkpt><trkpt lat="45.5964536858591" lon="8.96433842683458"><ele>206.00000000000003</ele><time>2026-04-19T14:11:32Z</time></trkpt><trkpt lat="45.59640517368307" lon="8.964257051439786"><ele>206.0</ele><time>2026-04-19T14:11:33Z</time></trkpt><trkpt lat="45.59635555718599" lon="8.964170350460853"><ele>206.0</ele><time>2026-04-19T14:11:34Z</time></trkpt><trkpt lat="45.59629882806908" lon="8.964067197681475"><ele>206.0</ele><time>2026-04-19T14:11:35Z</time></trkpt><trkpt lat="45.596256421830965" lon="8.963980289886505"><ele>206.00000000000003</ele><time>2026-04-19T14:11:36Z</time></trkpt><trkpt lat="45.59621542641068" lon="8.963894447293573"><ele>206.0</ele><time>2026-04-19T14:11:37Z</time></trkpt><trkpt lat="45.59617253606513" lon="8.963801561738975"><ele>206.0</ele><time>2026-04-19T14:11:38Z</time></trkpt><trkpt lat="45.59613298166246" lon="8.963695458668262"><ele>206.0</ele><time>2026-04-19T14:11:39Z</time></trkpt><trkpt lat="45.596110764809886" lon="8.963574546819451"><ele>206.0</ele><time>2026-04-19T14:11:40Z</time></trkpt><trkpt lat="45.59611029852394" lon="8.963441833776491"><ele>206.0</ele><time>2026-04-19T14:11:41Z</time></trkpt><trkpt lat="45.596121712431426" lon="8.963311009958845"><ele>206.0</ele><time>2026-04-19T14:11:42Z</time></trkpt><trkpt lat="45.59614401551079" lon="8.963179874599476"><ele>206.20000000000002</ele><time>2026-04-19T14:11:43Z</time></trkpt><trkpt lat="45.59618241922294" lon="8.963059362115336"><ele>206.4</ele><time>2026-04-19T14:11:44Z</time></trkpt><trkpt lat="45.59623050977761" lon="8.962948975255866"><ele>206.6</ele><time>2026-04-19T14:11:45Z</time></trkpt><trkpt lat="45.596294849550176" lon="8.962854132573963"><ele>206.8</ele><time>2026-04-19T14:11:46Z</time></trkpt><trkpt lat="45.59637251761875" lon="8.962770185084395"><ele>207.0</ele><time>2026-04-19T14:11:47Z</time></trkpt><trkpt lat="45.596457491209534" lon="8.96269088297301"><ele>207.0</ele><time>2026-04-19T14:11:48Z</time></trkpt><trkpt lat="45.59654316958477" lon="8.962610306348763"><ele>207.0</ele><time>2026-04-19T14:11:49Z</time></trkpt><trkpt lat="45.59662665307597" lon="8.9625219591621"><ele>207.0</ele><time>2026-04-19T14:11:50Z</time></trkpt><trkpt lat="45.5967118437522" lon="8.962438164606372"><ele>207.0</ele><time>2026-04-19T14:11:51Z</time></trkpt><trkpt lat="45.59679644667065" lon="8.962352126542903"><ele>207.0</ele><time>2026-04-19T14:11:52Z</time></trkpt><trkpt lat="45.59688142698109" lon="8.962265182240465"><ele>207.2</ele><time>2026-04-19T14:11:53Z</time></trkpt><trkpt lat="45.5969690558975" lon="8.962176976200679"><ele>207.39999999999998</ele><time>2026-04-19T14:11:54Z</time></trkpt><trkpt lat="45.59705977536233" lon="8.962089937467583"><ele>207.60000000000002</ele><time>2026-04-19T14:11:55Z</time></trkpt><trkpt lat="45.59715582929272" lon="8.962003128449046"><ele>207.8</ele><time>2026-04-19T14:11:56Z</time></trkpt><trkpt lat="45.597246625574584" lon="8.961908733575942"><ele>208.0</ele><time>2026-04-19T14:11:57Z</time></trkpt><trkpt lat="45.5973392813936" lon="8.961815403706805"><ele>207.66666666666666</ele><time>2026-04-19T14:11:58Z</time></trkpt><trkpt lat="45.59742929738792" lon="8.961728510843932"><ele>207.33333333333331</ele><time>2026-04-19T14:11:59Z</time></trkpt><trkpt lat="45.597502039795174" lon="8.961654695882913"><ele>207.0</ele><time>2026-04-19T14:12:00Z</time></trkpt><trkpt lat="45.59757110419431" lon="8.961584834600723"><ele>206.66666666666669</ele><time>2026-04-19T14:12:01Z</time></trkpt><trkpt lat="45.59764527521706" lon="8.961518688465134"><ele>206.33333333333334</ele><time>2026-04-19T14:12:02Z</time></trkpt><trkpt lat="45.59769892397104" lon="8.96146019794459"><ele>206.0</ele><time>2026-04-19T14:12:03Z</time></trkpt><trkpt lat="45.59777409076684" lon="8.961388565450102"><ele>206.33333333333334</ele><time>2026-04-19T14:12:04Z</time></trkpt><trkpt lat="45.597874239977386" lon="8.96128620404754"><ele>206.66666666666669</ele><time>2026-04-19T14:12:05Z</time></trkpt><trkpt lat="45.598002651866956" lon="8.961160819502386"><ele>207.0</ele><time>2026-04-19T14:12:06Z</time></trkpt><trkpt lat="45.598153952308564" lon="8.961011812764673"><ele>207.0</ele><time>2026-04-19T14:12:07Z</time></trkpt><trkpt lat="45.59829088411212" lon="8.960875803066754"><ele>207.0</ele><time>2026-04-19T14:12:08.001Z</time></trkpt><trkpt lat="45.598403564832246" lon="8.960760855238654"><ele>207.0</ele><time>2026-04-19T14:12:09.001Z</time></trkpt><trkpt lat="45.59850205424242" lon="8.9606632093785"><ele>207.0</ele><time>2026-04-19T14:12:10.001Z</time></trkpt><trkpt lat="45.59858803105531" lon="8.960580809110436"><ele>207.0</ele><time>2026-04-19T14:12:11.001Z</time></trkpt><trkpt lat="45.59865976745082" lon="8.960507194296271"><ele>207.0</ele><time>2026-04-19T14:12:12.001Z</time></trkpt><trkpt lat="45.59872146692853" lon="8.960445092491168"><ele>207.0</ele><time>2026-04-19T14:12:13.001Z</time></trkpt><trkpt lat="45.59877420742504" lon="8.960395289323618"><ele>207.0</ele><time>2026-04-19T14:12:14.001Z</time></trkpt><trkpt lat="45.598844234809754" lon="8.960338481477764"><ele>207.0</ele><time>2026-04-19T14:12:16.001Z</time></trkpt><trkpt lat="45.598901325587825" lon="8.960281341862858"><ele>207.0</ele><time>2026-04-19T14:12:19.001Z</time></trkpt><trkpt lat="45.598869985325315" lon="8.960062729800992"><ele>207.0</ele><time>2026-04-19T14:13:07.999Z</time></trkpt><trkpt lat="45.59882103913896" lon="8.959975630066001"><ele>207.0</ele><time>2026-04-19T14:13:08.999Z</time></trkpt><trkpt lat="45.598772172901505" lon="8.959884757692942"><ele>207.0</ele><time>2026-04-19T14:13:10Z</time></trkpt><trkpt lat="45.59870845928478" lon="8.959763397088851"><ele>207.0</ele><time>2026-04-19T14:13:11Z</time></trkpt><trkpt lat="45.59863308006666" lon="8.959620691356685"><ele>207.0</ele><time>2026-04-19T14:13:12Z</time></trkpt><trkpt lat="45.598550624828164" lon="8.959459226903128"><ele>207.0</ele><time>2026-04-19T14:13:13Z</time></trkpt><trkpt lat="45.59845458139638" lon="8.959277210177694"><ele>207.0</ele><time>2026-04-19T14:13:14Z</time></trkpt><trkpt lat="45.5983615547199" lon="8.959091688431593"><ele>207.0</ele><time>2026-04-19T14:13:15Z</time></trkpt><trkpt lat="45.59828729846776" lon="8.958945177446894"><ele>207.0</ele><time>2026-04-19T14:13:16Z</time></trkpt><trkpt lat="45.59822125009705" lon="8.958814850117154"><ele>207.0</ele><time>2026-04-19T14:13:17Z</time></trkpt><trkpt lat="45.598159791727056" lon="8.958688994974665"><ele>207.0</ele><time>2026-04-19T14:13:18Z</time></trkpt><trkpt lat="45.59810050042589" lon="8.95857289860986"><ele>207.0</ele><time>2026-04-19T14:13:19Z</time></trkpt><trkpt lat="45.59803829821749" lon="8.958450365971999"><ele>207.0</ele><time>2026-04-19T14:13:20Z</time></trkpt><trkpt lat="45.59795954124261" lon="8.958285982842614"><ele>207.0</ele><time>2026-04-19T14:13:21Z</time></trkpt><trkpt lat="45.5978629548174" lon="8.958092628459442"><ele>207.0</ele><time>2026-04-19T14:13:22Z</time></trkpt><trkpt lat="45.59775821310848" lon="8.957886177908433"><ele>207.0</ele><time>2026-04-19T14:13:23Z</time></trkpt><trkpt lat="45.5976274000433" lon="8.95763178660206"><ele>207.0</ele><time>2026-04-19T14:13:24Z</time></trkpt><trkpt lat="45.59751250013043" lon="8.957405127358749"><ele>207.0</ele><time>2026-04-19T14:13:25Z</time></trkpt><trkpt lat="45.59741023637612" lon="8.957209628357955"><ele>207.0</ele><time>2026-04-19T14:13:26Z</time></trkpt><trkpt lat="45.597336848611604" lon="8.957056692596721"><ele>207.0</ele><time>2026-04-19T14:13:27Z</time></trkpt><trkpt lat="45.59725316591584" lon="8.956896391064408"><ele>207.0</ele><time>2026-04-19T14:13:28Z</time></trkpt><trkpt lat="45.59718224954403" lon="8.956746085631897"><ele>207.0</ele><time>2026-04-19T14:13:29Z</time></trkpt><trkpt lat="45.59711619913129" lon="8.956608537621097"><ele>207.0</ele><time>2026-04-19T14:13:30Z</time></trkpt><trkpt lat="45.59704912538805" lon="8.956491846411506"><ele>207.2</ele><time>2026-04-19T14:13:31Z</time></trkpt><trkpt lat="45.59698783650761" lon="8.956362566405646"><ele>207.39999999999998</ele><time>2026-04-19T14:13:32Z</time></trkpt><trkpt lat="45.59692622226845" lon="8.95623100041866"><ele>207.60000000000002</ele><time>2026-04-19T14:13:33Z</time></trkpt><trkpt lat="45.5968712553111" lon="8.956111782788499"><ele>207.8</ele><time>2026-04-19T14:13:34Z</time></trkpt><trkpt lat="45.596821226670976" lon="8.9560084060516"><ele>208.0</ele><time>2026-04-19T14:13:35Z</time></trkpt><trkpt lat="45.59677976911115" lon="8.955920718935042"><ele>208.16666666666666</ele><time>2026-04-19T14:13:36Z</time></trkpt><trkpt lat="45.596745489195534" lon="8.955842869954468"><ele>208.33333333333331</ele><time>2026-04-19T14:13:37Z</time></trkpt><trkpt lat="45.59668128563193" lon="8.955705869026282"><ele>208.5</ele><time>2026-04-19T14:13:39Z</time></trkpt><trkpt lat="45.596641603292234" lon="8.955569811838664"><ele>208.66666666666669</ele><time>2026-04-19T14:13:41Z</time></trkpt><trkpt lat="45.59658413624276" lon="8.955470316895209"><ele>208.83333333333334</ele><time>2026-04-19T14:13:43Z</time></trkpt><trkpt lat="45.596518931998986" lon="8.955415298210694"><ele>209.0</ele><time>2026-04-19T14:13:45Z</time></trkpt><trkpt lat="45.596419474110576" lon="8.955556795128352"><ele>209.0</ele><time>2026-04-19T14:13:47Z</time></trkpt><trkpt lat="45.59635951121709" lon="8.955637281550695"><ele>209.0</ele><time>2026-04-19T14:13:48Z</time></trkpt><trkpt lat="45.59628878164246" lon="8.955715881261675"><ele>209.0</ele><time>2026-04-19T14:13:49Z</time></trkpt><trkpt lat="45.596197674712876" lon="8.955800520821187"><ele>209.0</ele><time>2026-04-19T14:13:50Z</time></trkpt><trkpt lat="45.5961108231242" lon="8.955879927176408"><ele>209.0</ele><time>2026-04-19T14:13:51Z</time></trkpt><trkpt lat="45.596002410711534" lon="8.955998629750981"><ele>208.25</ele><time>2026-04-19T14:13:52Z</time></trkpt><trkpt lat="45.59589438962576" lon="8.956093133850741"><ele>207.5</ele><time>2026-04-19T14:13:53Z</time></trkpt><trkpt lat="45.59579438073639" lon="8.956209468528746"><ele>206.75</ele><time>2026-04-19T14:13:54Z</time></trkpt><trkpt lat="45.595680668636746" lon="8.956307742603943"><ele>206.0</ele><time>2026-04-19T14:13:55Z</time></trkpt><trkpt lat="45.59558103814063" lon="8.956395702179998"><ele>206.0</ele><time>2026-04-19T14:13:56Z</time></trkpt><trkpt lat="45.59548194333379" lon="8.956479867471657"><ele>206.0</ele><time>2026-04-19T14:13:57Z</time></trkpt><trkpt lat="45.59538673618799" lon="8.956565491387003"><ele>206.0</ele><time>2026-04-19T14:13:58Z</time></trkpt><trkpt lat="45.595294443725976" lon="8.95663941369511"><ele>206.0</ele><time>2026-04-19T14:13:59Z</time></trkpt><trkpt lat="45.59520530017797" lon="8.956722950048254"><ele>206.0</ele><time>2026-04-19T14:14:00Z</time></trkpt><trkpt lat="45.5951185647583" lon="8.95680787019626"><ele>206.0</ele><time>2026-04-19T14:14:01Z</time></trkpt><trkpt lat="45.59502596287908" lon="8.956891496689849"><ele>206.0</ele><time>2026-04-19T14:14:02Z</time></trkpt><trkpt lat="45.59493570778391" lon="8.956966436269365"><ele>206.0</ele><time>2026-04-19T14:14:03Z</time></trkpt><trkpt lat="45.59485212943951" lon="8.9570334066036"><ele>206.0</ele><time>2026-04-19T14:14:04Z</time></trkpt><trkpt lat="45.594783680369154" lon="8.95709043919998"><ele>206.0</ele><time>2026-04-19T14:14:05Z</time></trkpt><trkpt lat="45.59471704799347" lon="8.957134760950174"><ele>206.00000000000003</ele><time>2026-04-19T14:14:06Z</time></trkpt><trkpt lat="45.59466237736261" lon="8.957190841806035"><ele>206.0</ele><time>2026-04-19T14:14:07Z</time></trkpt><trkpt lat="45.59459175091583" lon="8.957251156536307"><ele>206.0</ele><time>2026-04-19T14:14:08Z</time></trkpt><trkpt lat="45.594534725539624" lon="8.957307836692983"><ele>206.0</ele><time>2026-04-19T14:14:09Z</time></trkpt><trkpt lat="45.59444248623229" lon="8.957375975007402"><ele>206.00000000000003</ele><time>2026-04-19T14:14:11Z</time></trkpt><trkpt lat="45.59432871613058" lon="8.957430291364151"><ele>206.0</ele><time>2026-04-19T14:14:13Z</time></trkpt><trkpt lat="45.59427212974661" lon="8.957494370879282"><ele>205.8</ele><time>2026-04-19T14:14:14Z</time></trkpt><trkpt lat="45.594208473496906" lon="8.957580826210819"><ele>205.60000000000002</ele><time>2026-04-19T14:14:15Z</time></trkpt><trkpt lat="45.59414055504953" lon="8.957678202900691"><ele>205.4</ele><time>2026-04-19T14:14:16Z</time></trkpt><trkpt lat="45.59406641509261" lon="8.957775705688148"><ele>205.2</ele><time>2026-04-19T14:14:17Z</time></trkpt><trkpt lat="45.59398674842626" lon="8.957863941337747"><ele>205.0</ele><time>2026-04-19T14:14:18Z</time></trkpt><trkpt lat="45.59390677286012" lon="8.957943087021885"><ele>205.0</ele><time>2026-04-19T14:14:19Z</time></trkpt><trkpt lat="45.59381144101443" lon="8.958021949229702"><ele>205.0</ele><time>2026-04-19T14:14:20Z</time></trkpt><trkpt lat="45.59372498881272" lon="8.958102689102178"><ele>205.0</ele><time>2026-04-19T14:14:21Z</time></trkpt><trkpt lat="45.59364822909004" lon="8.958182390238829"><ele>205.0</ele><time>2026-04-19T14:14:22Z</time></trkpt><trkpt lat="45.59358252539543" lon="8.958252684832368"><ele>205.0</ele><time>2026-04-19T14:14:23Z</time></trkpt><trkpt lat="45.59349603278623" lon="8.958347175482027"><ele>204.83333333333331</ele><time>2026-04-19T14:14:25Z</time></trkpt><trkpt lat="45.59341572343636" lon="8.95840700736454"><ele>204.66666666666666</ele><time>2026-04-19T14:14:27Z</time></trkpt><trkpt lat="45.593317090522845" lon="8.958497225011303"><ele>204.5</ele><time>2026-04-19T14:14:29Z</time></trkpt><trkpt lat="45.59325367192614" lon="8.958551955128602"><ele>204.33333333333331</ele><time>2026-04-19T14:14:30Z</time></trkpt><trkpt lat="45.59318122383329" lon="8.958618283333884"><ele>204.16666666666666</ele><time>2026-04-19T14:14:31Z</time></trkpt><trkpt lat="45.59310887047346" lon="8.95866702226743"><ele>204.0</ele><time>2026-04-19T14:14:32Z</time></trkpt><trkpt lat="45.5930170162471" lon="8.958746712256916"><ele>204.0</ele><time>2026-04-19T14:14:33Z</time></trkpt><trkpt lat="45.59292187978265" lon="8.958835745371951"><ele>204.0</ele><time>2026-04-19T14:14:34Z</time></trkpt><trkpt lat="45.592844585206635" lon="8.958911687634851"><ele>204.0</ele><time>2026-04-19T14:14:35.001Z</time></trkpt><trkpt lat="45.59277563610667" lon="8.958978084320508"><ele>204.0</ele><time>2026-04-19T14:14:36.001Z</time></trkpt><trkpt lat="45.5927005813482" lon="8.959048591525962"><ele>204.0</ele><time>2026-04-19T14:14:37.001Z</time></trkpt><trkpt lat="45.59262161653626" lon="8.959119777517571"><ele>204.2</ele><time>2026-04-19T14:14:38.001Z</time></trkpt><trkpt lat="45.59254301610911" lon="8.959190331250245"><ele>204.39999999999998</ele><time>2026-04-19T14:14:39.001Z</time></trkpt><trkpt lat="45.59245845542263" lon="8.959271425293606"><ele>204.6</ele><time>2026-04-19T14:14:40.001Z</time></trkpt><trkpt lat="45.59236660730561" lon="8.95935907923674"><ele>204.8</ele><time>2026-04-19T14:14:41.001Z</time></trkpt><trkpt lat="45.59227283020177" lon="8.959456215890913"><ele>205.0</ele><time>2026-04-19T14:14:42.001Z</time></trkpt><trkpt lat="45.59218023372534" lon="8.959571681981952"><ele>204.5</ele><time>2026-04-19T14:14:43.001Z</time></trkpt><trkpt lat="45.592083153244296" lon="8.959693730331836"><ele>204.0</ele><time>2026-04-19T14:14:44.001Z</time></trkpt><trkpt lat="45.59196698517237" lon="8.959800629689843"><ele>203.5</ele><time>2026-04-19T14:14:45.001Z</time></trkpt><trkpt lat="45.591853884707625" lon="8.959918858685802"><ele>203.0</ele><time>2026-04-19T14:14:46.001Z</time></trkpt><trkpt lat="45.591745549413616" lon="8.960029420681835"><ele>202.5</ele><time>2026-04-19T14:14:47.001Z</time></trkpt><trkpt lat="45.591631275800744" lon="8.960158685389104"><ele>202.0</ele><time>2026-04-19T14:14:48.001Z</time></trkpt><trkpt lat="45.59151353373912" lon="8.960276300376371"><ele>201.5</ele><time>2026-04-19T14:14:49.001Z</time></trkpt><trkpt lat="45.59139533006894" lon="8.960400813470573"><ele>201.0</ele><time>2026-04-19T14:14:50.001Z</time></trkpt><trkpt lat="45.591267350720216" lon="8.960540991381004"><ele>201.0</ele><time>2026-04-19T14:14:51.001Z</time></trkpt><trkpt lat="45.5911272209463" lon="8.960690804316137"><ele>201.0</ele><time>2026-04-19T14:14:52.001Z</time></trkpt><trkpt lat="45.59097343477368" lon="8.960849315330021"><ele>201.0</ele><time>2026-04-19T14:14:53.001Z</time></trkpt><trkpt lat="45.59083688668179" lon="8.960988779550592"><ele>201.0</ele><time>2026-04-19T14:14:54.001Z</time></trkpt><trkpt lat="45.590712620434985" lon="8.961123866979525"><ele>201.0</ele><time>2026-04-19T14:14:55.001Z</time></trkpt><trkpt lat="45.590601337622694" lon="8.961242576617131"><ele>201.0</ele><time>2026-04-19T14:14:56.001Z</time></trkpt><trkpt lat="45.59048960372679" lon="8.961373782496581"><ele>201.0</ele><time>2026-04-19T14:14:57.001Z</time></trkpt><trkpt lat="45.59036864368524" lon="8.96151299349187"><ele>201.25</ele><time>2026-04-19T14:14:58.001Z</time></trkpt><trkpt lat="45.59025108914333" lon="8.961646446548718"><ele>201.5</ele><time>2026-04-19T14:14:59.001Z</time></trkpt><trkpt lat="45.59014376423967" lon="8.961766146500349"><ele>201.75</ele><time>2026-04-19T14:15:00.001Z</time></trkpt><trkpt lat="45.59004624453645" lon="8.961874871510702"><ele>202.0</ele><time>2026-04-19T14:15:01.001Z</time></trkpt><trkpt lat="45.58996921012688" lon="8.96195677469298"><ele>201.6</ele><time>2026-04-19T14:15:02.001Z</time></trkpt><trkpt lat="45.5898932768872" lon="8.962036870690376"><ele>201.2</ele><time>2026-04-19T14:15:03.001Z</time></trkpt><trkpt lat="45.5898305637328" lon="8.962112558941538"><ele>200.8</ele><time>2026-04-19T14:15:04Z</time></trkpt><trkpt lat="45.589764442603865" lon="8.96217998196338"><ele>200.4</ele><time>2026-04-19T14:15:05Z</time></trkpt><trkpt lat="45.58968982845696" lon="8.96226947771971"><ele>200.0</ele><time>2026-04-19T14:15:06Z</time></trkpt><trkpt lat="45.589596138023396" lon="8.962370987607084"><ele>200.0</ele><time>2026-04-19T14:15:07Z</time></trkpt><trkpt lat="45.58949645015986" lon="8.96248481433562"><ele>200.0</ele><time>2026-04-19T14:15:08Z</time></trkpt><trkpt lat="45.58938300848233" lon="8.962622913870932"><ele>200.0</ele><time>2026-04-19T14:15:09Z</time></trkpt><trkpt lat="45.58925359888824" lon="8.96277515365024"><ele>200.0</ele><time>2026-04-19T14:15:10Z</time></trkpt><trkpt lat="45.58912457014459" lon="8.962925083294696"><ele>200.0</ele><time>2026-04-19T14:15:11Z</time></trkpt><trkpt lat="45.58901140229954" lon="8.963060786959922"><ele>200.0</ele><time>2026-04-19T14:15:12Z</time></trkpt><trkpt lat="45.58890167030258" lon="8.963186503112716"><ele>200.0</ele><time>2026-04-19T14:15:13Z</time></trkpt><trkpt lat="45.58878496829646" lon="8.963316155617838"><ele>200.0</ele><time>2026-04-19T14:15:14Z</time></trkpt><trkpt lat="45.58866333865949" lon="8.963458832338041"><ele>199.66666666666669</ele><time>2026-04-19T14:15:15Z</time></trkpt><trkpt lat="45.58854867575117" lon="8.963626548778779"><ele>199.33333333333331</ele><time>2026-04-19T14:15:16Z</time></trkpt><trkpt lat="45.58843903539608" lon="8.963809921376496"><ele>199.0</ele><time>2026-04-19T14:15:17Z</time></trkpt><trkpt lat="45.58834951876314" lon="8.964001880449516"><ele>199.0</ele><time>2026-04-19T14:15:18Z</time></trkpt><trkpt lat="45.58825832882162" lon="8.964151847703597"><ele>199.0</ele><time>2026-04-19T14:15:19Z</time></trkpt><trkpt lat="45.58819836127015" lon="8.964289956397524"><ele>199.0</ele><time>2026-04-19T14:15:20Z</time></trkpt><trkpt lat="45.58815190297016" lon="8.964396679310644"><ele>199.0</ele><time>2026-04-19T14:15:21Z</time></trkpt><trkpt lat="45.58812459256613" lon="8.964481180546917"><ele>199.0</ele><time>2026-04-19T14:15:22Z</time></trkpt><trkpt lat="45.58808610805031" lon="8.964609159015389"><ele>198.99999999999997</ele><time>2026-04-19T14:15:24Z</time></trkpt><trkpt lat="45.5880348948171" lon="8.964768802792479"><ele>199.0</ele><time>2026-04-19T14:15:26Z</time></trkpt><trkpt lat="45.58800718350548" lon="8.964877354258523"><ele>199.0</ele><time>2026-04-19T14:15:27Z</time></trkpt><trkpt lat="45.58797756374228" lon="8.964989663125936"><ele>199.0</ele><time>2026-04-19T14:15:28Z</time></trkpt><trkpt lat="45.5879532049495" lon="8.965095456189557"><ele>198.99999999999997</ele><time>2026-04-19T14:15:29Z</time></trkpt><trkpt lat="45.58793042739066" lon="8.965180864769202"><ele>199.0</ele><time>2026-04-19T14:15:30Z</time></trkpt><trkpt lat="45.58787878966556" lon="8.965356855836088"><ele>198.79999999999998</ele><time>2026-04-19T14:15:32Z</time></trkpt><trkpt lat="45.58784883018042" lon="8.965447368357461"><ele>198.6</ele><time>2026-04-19T14:15:33Z</time></trkpt><trkpt lat="45.58783471842545" lon="8.965572258853168"><ele>198.4</ele><time>2026-04-19T14:15:34Z</time></trkpt><trkpt lat="45.58781425501955" lon="8.965707836948132"><ele>198.2</ele><time>2026-04-19T14:15:35Z</time></trkpt><trkpt lat="45.58774228403101" lon="8.965837220989709"><ele>198.0</ele><time>2026-04-19T14:15:36Z</time></trkpt><trkpt lat="45.58770298093635" lon="8.965978032092204"><ele>197.60000000000002</ele><time>2026-04-19T14:15:37Z</time></trkpt><trkpt lat="45.58766267542246" lon="8.966132113872328"><ele>197.20000000000002</ele><time>2026-04-19T14:15:38Z</time></trkpt><trkpt lat="45.58762764089149" lon="8.966265635672745"><ele>196.8</ele><time>2026-04-19T14:15:39Z</time></trkpt><trkpt lat="45.58758951061842" lon="8.966390998766098"><ele>196.4</ele><time>2026-04-19T14:15:40Z</time></trkpt><trkpt lat="45.58755800522178" lon="8.966500978431597"><ele>196.0</ele><time>2026-04-19T14:15:41Z</time></trkpt><trkpt lat="45.58753259458089" lon="8.966616403638023"><ele>196.20000000000002</ele><time>2026-04-19T14:15:42Z</time></trkpt><trkpt lat="45.587506360292906" lon="8.966737614069487"><ele>196.4</ele><time>2026-04-19T14:15:43Z</time></trkpt><trkpt lat="45.58746592548928" lon="8.96684224570918"><ele>196.6</ele><time>2026-04-19T14:15:44Z</time></trkpt><trkpt lat="45.58740670454787" lon="8.966942594189799"><ele>196.8</ele><time>2026-04-19T14:15:45Z</time></trkpt><trkpt lat="45.5873597515222" lon="8.96705852835916"><ele>197.0</ele><time>2026-04-19T14:15:46Z</time></trkpt><trkpt lat="45.587343520295796" lon="8.96721553822386"><ele>197.0</ele><time>2026-04-19T14:15:47Z</time></trkpt><trkpt lat="45.58730687359624" lon="8.967367231648483"><ele>197.0</ele><time>2026-04-19T14:15:48Z</time></trkpt><trkpt lat="45.58724829883987" lon="8.96752307409928"><ele>197.0</ele><time>2026-04-19T14:15:49Z</time></trkpt><trkpt lat="45.58717583706564" lon="8.96769567920763"><ele>197.0</ele><time>2026-04-19T14:15:50Z</time></trkpt><trkpt lat="45.58710194728131" lon="8.967872456853843"><ele>197.25</ele><time>2026-04-19T14:15:51Z</time></trkpt><trkpt lat="45.58704306297753" lon="8.968034407884097"><ele>197.5</ele><time>2026-04-19T14:15:52Z</time></trkpt><trkpt lat="45.586973222968346" lon="8.968204551222204"><ele>197.75</ele><time>2026-04-19T14:15:53Z</time></trkpt><trkpt lat="45.586905412935295" lon="8.968375983295225"><ele>198.0</ele><time>2026-04-19T14:15:54Z</time></trkpt><trkpt lat="45.586835568835845" lon="8.96854049105271"><ele>198.0</ele><time>2026-04-19T14:15:55Z</time></trkpt><trkpt lat="45.58676715510302" lon="8.968697037636556"><ele>198.0</ele><time>2026-04-19T14:15:56Z</time></trkpt><trkpt lat="45.58671060673781" lon="8.968855540583025"><ele>198.0</ele><time>2026-04-19T14:15:57Z</time></trkpt><trkpt lat="45.58664120144949" lon="8.968999398346941"><ele>198.0</ele><time>2026-04-19T14:15:58Z</time></trkpt><trkpt lat="45.58658428612663" lon="8.96915160726454"><ele>198.0</ele><time>2026-04-19T14:15:59Z</time></trkpt><trkpt lat="45.5865154518582" lon="8.969307687870328"><ele>198.0</ele><time>2026-04-19T14:16:00Z</time></trkpt><trkpt lat="45.58644673378826" lon="8.969469806259358"><ele>198.0</ele><time>2026-04-19T14:16:01Z</time></trkpt><trkpt lat="45.58637309049968" lon="8.969643305799018"><ele>198.0</ele><time>2026-04-19T14:16:02Z</time></trkpt><trkpt lat="45.58629781221815" lon="8.969808174873732"><ele>198.0</ele><time>2026-04-19T14:16:03Z</time></trkpt><trkpt lat="45.58620692940746" lon="8.969974300915188"><ele>198.0</ele><time>2026-04-19T14:16:04Z</time></trkpt><trkpt lat="45.586112909396014" lon="8.9701383516926"><ele>198.0</ele><time>2026-04-19T14:16:05Z</time></trkpt><trkpt lat="45.5860133616293" lon="8.970294122310499"><ele>198.0</ele><time>2026-04-19T14:16:06Z</time></trkpt><trkpt lat="45.58590311085733" lon="8.970459493316804"><ele>197.66666666666669</ele><time>2026-04-19T14:16:07Z</time></trkpt><trkpt lat="45.585800373695974" lon="8.970618668560805"><ele>197.33333333333334</ele><time>2026-04-19T14:16:08Z</time></trkpt><trkpt lat="45.58568421767024" lon="8.970781680019716"><ele>197.0</ele><time>2026-04-19T14:16:09Z</time></trkpt><trkpt lat="45.585570027000415" lon="8.970947057053754"><ele>197.0</ele><time>2026-04-19T14:16:10Z</time></trkpt><trkpt lat="45.58546609697045" lon="8.971111591262616"><ele>197.0</ele><time>2026-04-19T14:16:11Z</time></trkpt><trkpt lat="45.585354858303596" lon="8.971277535737272"><ele>197.0</ele><time>2026-04-19T14:16:12Z</time></trkpt><trkpt lat="45.585245786842215" lon="8.971440193593157"><ele>197.33333333333334</ele><time>2026-04-19T14:16:13Z</time></trkpt><trkpt lat="45.58513846559936" lon="8.971607514793886"><ele>197.66666666666669</ele><time>2026-04-19T14:16:14Z</time></trkpt><trkpt lat="45.58502680423563" lon="8.971777946763147"><ele>198.0</ele><time>2026-04-19T14:16:15Z</time></trkpt><trkpt lat="45.58491554128161" lon="8.971941457221096"><ele>198.66666666666669</ele><time>2026-04-19T14:16:16Z</time></trkpt><trkpt lat="45.584806119734345" lon="8.972104874360076"><ele>199.33333333333334</ele><time>2026-04-19T14:16:17Z</time></trkpt><trkpt lat="45.58469266335893" lon="8.972271108643712"><ele>200.0</ele><time>2026-04-19T14:16:18Z</time></trkpt><trkpt lat="45.58458575032455" lon="8.972427934298857"><ele>199.33333333333334</ele><time>2026-04-19T14:16:19Z</time></trkpt><trkpt lat="45.58447779787796" lon="8.972590700233212"><ele>198.66666666666669</ele><time>2026-04-19T14:16:20Z</time></trkpt><trkpt lat="45.5843725432701" lon="8.972748431001714"><ele>198.0</ele><time>2026-04-19T14:16:21Z</time></trkpt><trkpt lat="45.5842700299877" lon="8.9729032808702"><ele>198.0</ele><time>2026-04-19T14:16:22.001Z</time></trkpt><trkpt lat="45.584178788044426" lon="8.973042144508177"><ele>198.0</ele><time>2026-04-19T14:16:23.001Z</time></trkpt><trkpt lat="45.58409168879083" lon="8.973174589006033"><ele>198.0</ele><time>2026-04-19T14:16:24.001Z</time></trkpt><trkpt lat="45.584007527089" lon="8.973297187642181"><ele>198.0</ele><time>2026-04-19T14:16:25.001Z</time></trkpt><trkpt lat="45.58392978637815" lon="8.973406919974567"><ele>197.0</ele><time>2026-04-19T14:16:26.001Z</time></trkpt><trkpt lat="45.5838596156557" lon="8.973513552395644"><ele>196.0</ele><time>2026-04-19T14:16:27.001Z</time></trkpt><trkpt lat="45.583794677914796" lon="8.973613822319269"><ele>195.0</ele><time>2026-04-19T14:16:28.001Z</time></trkpt><trkpt lat="45.58371856696369" lon="8.973716855101461"><ele>194.0</ele><time>2026-04-19T14:16:29.001Z</time></trkpt><trkpt lat="45.58365235224761" lon="8.973786129676352"><ele>193.0</ele><time>2026-04-19T14:16:30.001Z</time></trkpt><trkpt lat="45.58357020362239" lon="8.973861222151221"><ele>193.0</ele><time>2026-04-19T14:16:31.001Z</time></trkpt><trkpt lat="45.58349051754734" lon="8.973949859026657"><ele>193.0</ele><time>2026-04-19T14:16:32.001Z</time></trkpt><trkpt lat="45.583441422448516" lon="8.974062378624417"><ele>193.0</ele><time>2026-04-19T14:16:33.001Z</time></trkpt><trkpt lat="45.58338494432204" lon="8.97419319756946"><ele>193.0</ele><time>2026-04-19T14:16:34.001Z</time></trkpt><trkpt lat="45.58331766750009" lon="8.974313754353451"><ele>193.0</ele><time>2026-04-19T14:16:35.001Z</time></trkpt><trkpt lat="45.583243083433885" lon="8.974435083641472"><ele>193.5</ele><time>2026-04-19T14:16:36.001Z</time></trkpt><trkpt lat="45.58316403557716" lon="8.974555579765232"><ele>194.0</ele><time>2026-04-19T14:16:37.001Z</time></trkpt><trkpt lat="45.583082954577556" lon="8.974684482909543"><ele>194.5</ele><time>2026-04-19T14:16:38.001Z</time></trkpt><trkpt lat="45.58299698312288" lon="8.974804152996912"><ele>195.0</ele><time>2026-04-19T14:16:39.001Z</time></trkpt><trkpt lat="45.58291075901799" lon="8.974932716275488"><ele>193.5</ele><time>2026-04-19T14:16:40.001Z</time></trkpt><trkpt lat="45.582819947330066" lon="8.975068412058938"><ele>192.0</ele><time>2026-04-19T14:16:41.001Z</time></trkpt><trkpt lat="45.58273032327497" lon="8.975200588008308"><ele>190.5</ele><time>2026-04-19T14:16:42.001Z</time></trkpt><trkpt lat="45.58264364298919" lon="8.97533037683338"><ele>189.0</ele><time>2026-04-19T14:16:43.001Z</time></trkpt><trkpt lat="45.58254924410618" lon="8.975474113722353"><ele>189.0</ele><time>2026-04-19T14:16:44.001Z</time></trkpt><trkpt lat="45.58245555617311" lon="8.975620891042436"><ele>189.0</ele><time>2026-04-19T14:16:45.001Z</time></trkpt><trkpt lat="45.582364570436425" lon="8.975751508650902"><ele>189.0</ele><time>2026-04-19T14:16:46.001Z</time></trkpt><trkpt lat="45.58227833162919" lon="8.975876491847094"><ele>189.0</ele><time>2026-04-19T14:16:47.001Z</time></trkpt><trkpt lat="45.582190528905386" lon="8.97600134075433"><ele>189.5</ele><time>2026-04-19T14:16:48.001Z</time></trkpt><trkpt lat="45.58210727620253" lon="8.976128295385688"><ele>190.0</ele><time>2026-04-19T14:16:49.001Z</time></trkpt><trkpt lat="45.58202568426194" lon="8.976255005263983"><ele>190.5</ele><time>2026-04-19T14:16:50.001Z</time></trkpt><trkpt lat="45.58194467102083" lon="8.97636880525171"><ele>191.0</ele><time>2026-04-19T14:16:51.001Z</time></trkpt><trkpt lat="45.581872695226096" lon="8.976477761797053"><ele>191.16666666666666</ele><time>2026-04-19T14:16:52.001Z</time></trkpt><trkpt lat="45.58180525621094" lon="8.976576693934772"><ele>191.33333333333331</ele><time>2026-04-19T14:16:53.001Z</time></trkpt><trkpt lat="45.58174636566451" lon="8.976662361583633"><ele>191.5</ele><time>2026-04-19T14:16:54.001Z</time></trkpt><trkpt lat="45.58168683646978" lon="8.976747773562803"><ele>191.66666666666666</ele><time>2026-04-19T14:16:55.001Z</time></trkpt><trkpt lat="45.581633390686434" lon="8.976827100541389"><ele>191.83333333333334</ele><time>2026-04-19T14:16:56.001Z</time></trkpt><trkpt lat="45.581582224334944" lon="8.976907327656063"><ele>192.0</ele><time>2026-04-19T14:16:57.001Z</time></trkpt><trkpt lat="45.58152701893311" lon="8.976987102875448"><ele>192.16666666666666</ele><time>2026-04-19T14:16:58.001Z</time></trkpt><trkpt lat="45.5814727742562" lon="8.977062054533215"><ele>192.33333333333331</ele><time>2026-04-19T14:16:59.001Z</time></trkpt><trkpt lat="45.58142350406349" lon="8.977118554156862"><ele>192.5</ele><time>2026-04-19T14:17:00.001Z</time></trkpt><trkpt lat="45.58138202126503" lon="8.977263655300254"><ele>192.66666666666666</ele><time>2026-04-19T14:17:02.001Z</time></trkpt><trkpt lat="45.58139980478746" lon="8.977376655597444"><ele>192.83333333333331</ele><time>2026-04-19T14:17:03.001Z</time></trkpt><trkpt lat="45.58144270035303" lon="8.977498465280782"><ele>193.0</ele><time>2026-04-19T14:17:04.001Z</time></trkpt><trkpt lat="45.581501656766584" lon="8.977634468198671"><ele>193.0</ele><time>2026-04-19T14:17:05.001Z</time></trkpt><trkpt lat="45.58155805255452" lon="8.977772450258545"><ele>193.0</ele><time>2026-04-19T14:17:06.001Z</time></trkpt><trkpt lat="45.58162181334732" lon="8.97792069285492"><ele>193.0</ele><time>2026-04-19T14:17:07.001Z</time></trkpt><trkpt lat="45.58168071021144" lon="8.978066424618534"><ele>193.0</ele><time>2026-04-19T14:17:08.001Z</time></trkpt><trkpt lat="45.58173789459996" lon="8.978214498211226"><ele>193.5</ele><time>2026-04-19T14:17:09.001Z</time></trkpt><trkpt lat="45.581796393910636" lon="8.97836390894583"><ele>194.0</ele><time>2026-04-19T14:17:10Z</time></trkpt><trkpt lat="45.58185769823046" lon="8.978512906088726"><ele>194.5</ele><time>2026-04-19T14:17:11Z</time></trkpt><trkpt lat="45.581921299741225" lon="8.978658583099008"><ele>195.0</ele><time>2026-04-19T14:17:12Z</time></trkpt><trkpt lat="45.58197272804146" lon="8.978789250441508"><ele>195.0</ele><time>2026-04-19T14:17:13Z</time></trkpt><trkpt lat="45.58201759415097" lon="8.978902289262745"><ele>195.0</ele><time>2026-04-19T14:17:14Z</time></trkpt><trkpt lat="45.582054897335205" lon="8.979000394895118"><ele>195.0</ele><time>2026-04-19T14:17:15Z</time></trkpt><trkpt lat="45.5820889364443" lon="8.979088503368835"><ele>195.0</ele><time>2026-04-19T14:17:16Z</time></trkpt><trkpt lat="45.582108710686526" lon="8.97918006438617"><ele>195.0</ele><time>2026-04-19T14:17:17Z</time></trkpt><trkpt lat="45.58210682091591" lon="8.979273979276408"><ele>195.0</ele><time>2026-04-19T14:17:18Z</time></trkpt><trkpt lat="45.58208581918364" lon="8.979364418402174"><ele>195.0</ele><time>2026-04-19T14:17:19Z</time></trkpt><trkpt lat="45.58198280528626" lon="8.979488690933879"><ele>194.8</ele><time>2026-04-19T14:17:21Z</time></trkpt><trkpt lat="45.58190697574956" lon="8.979547948543848"><ele>194.6</ele><time>2026-04-19T14:17:22Z</time></trkpt><trkpt lat="45.58183069207664" lon="8.979626423917592"><ele>194.39999999999998</ele><time>2026-04-19T14:17:23Z</time></trkpt><trkpt lat="45.581745354699436" lon="8.979716297831848"><ele>194.2</ele><time>2026-04-19T14:17:24Z</time></trkpt><trkpt lat="45.58166666012606" lon="8.979808082149464"><ele>194.0</ele><time>2026-04-19T14:17:25Z</time></trkpt><trkpt lat="45.58158493086159" lon="8.979891903465278"><ele>194.0</ele><time>2026-04-19T14:17:26Z</time></trkpt><trkpt lat="45.58150509605614" lon="8.979976121135422"><ele>194.0</ele><time>2026-04-19T14:17:27Z</time></trkpt><trkpt lat="45.581422731843105" lon="8.9800635951968"><ele>194.0</ele><time>2026-04-19T14:17:28Z</time></trkpt><trkpt lat="45.58134324190604" lon="8.980145805504225"><ele>194.0</ele><time>2026-04-19T14:17:29Z</time></trkpt><trkpt lat="45.581278217201174" lon="8.980224096663969"><ele>194.0</ele><time>2026-04-19T14:17:30Z</time></trkpt><trkpt lat="45.581220251072295" lon="8.980287068571132"><ele>192.16666666666669</ele><time>2026-04-19T14:17:31Z</time></trkpt><trkpt lat="45.581163113927296" lon="8.980337085920373"><ele>190.33333333333334</ele><time>2026-04-19T14:17:32Z</time></trkpt><trkpt lat="45.581104380367904" lon="8.980402344594511"><ele>188.5</ele><time>2026-04-19T14:17:33Z</time></trkpt><trkpt lat="45.58104316817402" lon="8.980469395651049"><ele>186.66666666666669</ele><time>2026-04-19T14:17:34Z</time></trkpt><trkpt lat="45.58097828545866" lon="8.980537113512398"><ele>184.83333333333334</ele><time>2026-04-19T14:17:35Z</time></trkpt><trkpt lat="45.58089908907503" lon="8.980618581219915"><ele>183.0</ele><time>2026-04-19T14:17:36Z</time></trkpt><trkpt lat="45.58082084485804" lon="8.980701215771493"><ele>183.0</ele><time>2026-04-19T14:17:37Z</time></trkpt><trkpt lat="45.580754681128155" lon="8.98077407964111"><ele>183.0</ele><time>2026-04-19T14:17:38Z</time></trkpt><trkpt lat="45.58069032153141" lon="8.980851290401535"><ele>183.0</ele><time>2026-04-19T14:17:39Z</time></trkpt><trkpt lat="45.58062500793595" lon="8.98091214895849"><ele>183.0</ele><time>2026-04-19T14:17:40Z</time></trkpt><trkpt lat="45.58056747199739" lon="8.980963038501104"><ele>183.0</ele><time>2026-04-19T14:17:41Z</time></trkpt><trkpt lat="45.58047126483438" lon="8.981012579942114"><ele>183.0</ele><time>2026-04-19T14:17:43Z</time></trkpt><trkpt lat="45.580404220882" lon="8.98113760535061"><ele>183.2</ele><time>2026-04-19T14:17:45Z</time></trkpt><trkpt lat="45.58045335413871" lon="8.981301306069922"><ele>183.4</ele><time>2026-04-19T14:17:47Z</time></trkpt><trkpt lat="45.58051603470512" lon="8.981400716339888"><ele>183.6</ele><time>2026-04-19T14:17:48Z</time></trkpt><trkpt lat="45.58057190374027" lon="8.981502338975046"><ele>183.79999999999998</ele><time>2026-04-19T14:17:49Z</time></trkpt><trkpt lat="45.580629835181" lon="8.981609200877974"><ele>184.0</ele><time>2026-04-19T14:17:50Z</time></trkpt><trkpt lat="45.58069257386782" lon="8.981722203638677"><ele>185.2</ele><time>2026-04-19T14:17:51Z</time></trkpt><trkpt lat="45.580753878241794" lon="8.98183648721515"><ele>186.39999999999998</ele><time>2026-04-19T14:17:52Z</time></trkpt><trkpt lat="45.58081424816913" lon="8.981946077227883"><ele>187.6</ele><time>2026-04-19T14:17:53Z</time></trkpt><trkpt lat="45.58087626819758" lon="8.982054836631418"><ele>188.8</ele><time>2026-04-19T14:17:54Z</time></trkpt><trkpt lat="45.580931395458514" lon="8.982154203767832"><ele>190.0</ele><time>2026-04-19T14:17:55Z</time></trkpt><trkpt lat="45.5809779885135" lon="8.98223800576853"><ele>190.0</ele><time>2026-04-19T14:17:56Z</time></trkpt><trkpt lat="45.58101362086999" lon="8.98231729755096"><ele>190.0</ele><time>2026-04-19T14:17:57Z</time></trkpt><trkpt lat="45.581044993186396" lon="8.982435713979578"><ele>190.0</ele><time>2026-04-19T14:17:59Z</time></trkpt><trkpt lat="45.5809477769286" lon="8.982553193866881"><ele>190.0</ele><time>2026-04-19T14:18:00Z</time></trkpt><trkpt lat="45.58086516495231" lon="8.982621274560271"><ele>190.0</ele><time>2026-04-19T14:18:01Z</time></trkpt><trkpt lat="45.5807794322224" lon="8.982706184722739"><ele>189.75</ele><time>2026-04-19T14:18:02Z</time></trkpt><trkpt lat="45.580698380408634" lon="8.982806209905986"><ele>189.5</ele><time>2026-04-19T14:18:03Z</time></trkpt><trkpt lat="45.58060845162816" lon="8.982922683383995"><ele>189.25</ele><time>2026-04-19T14:18:04Z</time></trkpt><trkpt lat="45.58051159157863" lon="8.983040607219671"><ele>189.0</ele><time>2026-04-19T14:18:05Z</time></trkpt><trkpt lat="45.58041203566995" lon="8.983151460842375"><ele>189.5</ele><time>2026-04-19T14:18:06Z</time></trkpt><trkpt lat="45.580317100998634" lon="8.983269051287712"><ele>190.0</ele><time>2026-04-19T14:18:07Z</time></trkpt><trkpt lat="45.58021758183445" lon="8.983386727196867"><ele>190.5</ele><time>2026-04-19T14:18:08Z</time></trkpt><trkpt lat="45.58011889562759" lon="8.983504578334921"><ele>191.0</ele><time>2026-04-19T14:18:09Z</time></trkpt><trkpt lat="45.58002704074987" lon="8.983608498607575"><ele>191.0</ele><time>2026-04-19T14:18:10Z</time></trkpt><trkpt lat="45.57994862117777" lon="8.983696730850362"><ele>191.0</ele><time>2026-04-19T14:18:11Z</time></trkpt><trkpt lat="45.57986962542251" lon="8.983781469726884"><ele>191.0</ele><time>2026-04-19T14:18:12Z</time></trkpt><trkpt lat="45.579798735174634" lon="8.983865966067754"><ele>191.0</ele><time>2026-04-19T14:18:13Z</time></trkpt><trkpt lat="45.579739111111486" lon="8.983937885112045"><ele>191.0</ele><time>2026-04-19T14:18:14Z</time></trkpt><trkpt lat="45.579686906190986" lon="8.984000793167102"><ele>191.0</ele><time>2026-04-19T14:18:15Z</time></trkpt><trkpt lat="45.57959820108312" lon="8.984105260662307"><ele>190.83333333333331</ele><time>2026-04-19T14:18:17.001Z</time></trkpt><trkpt lat="45.579538868430866" lon="8.98418472802644"><ele>190.66666666666666</ele><time>2026-04-19T14:18:19.001Z</time></trkpt><trkpt lat="45.579508608725725" lon="8.984266330701708"><ele>190.5</ele><time>2026-04-19T14:18:31.001Z</time></trkpt><trkpt lat="45.57956645960716" lon="8.984435558598049"><ele>190.33333333333334</ele><time>2026-04-19T14:18:33.001Z</time></trkpt><trkpt lat="45.57961566601679" lon="8.984518202557599"><ele>190.16666666666669</ele><time>2026-04-19T14:18:34.001Z</time></trkpt><trkpt lat="45.57967281905508" lon="8.984614039965695"><ele>190.0</ele><time>2026-04-19T14:18:35.001Z</time></trkpt><trkpt lat="45.5797291405572" lon="8.984713999097027"><ele>190.0</ele><time>2026-04-19T14:18:36.001Z</time></trkpt><trkpt lat="45.5797804542576" lon="8.984812847168255"><ele>190.0</ele><time>2026-04-19T14:18:37.001Z</time></trkpt><trkpt lat="45.579828036867035" lon="8.984902758995402"><ele>190.0</ele><time>2026-04-19T14:18:38.001Z</time></trkpt><trkpt lat="45.57988226625579" lon="8.985001089483644"><ele>190.0</ele><time>2026-04-19T14:18:39.001Z</time></trkpt><trkpt lat="45.57993818278774" lon="8.985100473418905"><ele>190.0</ele><time>2026-04-19T14:18:40.001Z</time></trkpt><trkpt lat="45.58000121820918" lon="8.98520984586534"><ele>190.0</ele><time>2026-04-19T14:18:41.001Z</time></trkpt><trkpt lat="45.580068901389566" lon="8.985335779912285"><ele>189.75</ele><time>2026-04-19T14:18:42.001Z</time></trkpt><trkpt lat="45.58013582842907" lon="8.985452737186009"><ele>189.5</ele><time>2026-04-19T14:18:43.001Z</time></trkpt><trkpt lat="45.58020898465405" lon="8.985576616936433"><ele>189.25</ele><time>2026-04-19T14:18:44.001Z</time></trkpt><trkpt lat="45.58028795163618" lon="8.985721689329214"><ele>189.0</ele><time>2026-04-19T14:18:45.001Z</time></trkpt><trkpt lat="45.58036929794819" lon="8.985876344609403"><ele>189.5</ele><time>2026-04-19T14:18:46.001Z</time></trkpt><trkpt lat="45.580455053673845" lon="8.986034054613688"><ele>190.0</ele><time>2026-04-19T14:18:47.001Z</time></trkpt><trkpt lat="45.58054650808353" lon="8.986194899391283"><ele>190.5</ele><time>2026-04-19T14:18:48.001Z</time></trkpt><trkpt lat="45.580639304230424" lon="8.986361586871917"><ele>191.0</ele><time>2026-04-19T14:18:49.001Z</time></trkpt><trkpt lat="45.580733483958966" lon="8.98653230608673"><ele>190.5</ele><time>2026-04-19T14:18:50.001Z</time></trkpt><trkpt lat="45.58083072654939" lon="8.986700095741138"><ele>190.0</ele><time>2026-04-19T14:18:51.001Z</time></trkpt><trkpt lat="45.58092089658787" lon="8.986851949739526"><ele>189.5</ele><time>2026-04-19T14:18:52.001Z</time></trkpt><trkpt lat="45.58099254150716" lon="8.986994788936013"><ele>189.0</ele><time>2026-04-19T14:18:53.001Z</time></trkpt><trkpt lat="45.58106527139691" lon="8.987141564611022"><ele>189.0</ele><time>2026-04-19T14:18:54.001Z</time></trkpt><trkpt lat="45.58114170050327" lon="8.987285245993158"><ele>189.0</ele><time>2026-04-19T14:18:55.001Z</time></trkpt><trkpt lat="45.58121945813223" lon="8.987430603743867"><ele>189.0</ele><time>2026-04-19T14:18:56.001Z</time></trkpt><trkpt lat="45.58129908449901" lon="8.987578885673841"><ele>189.0</ele><time>2026-04-19T14:18:57.001Z</time></trkpt><trkpt lat="45.58137853779374" lon="8.98772784164153"><ele>189.25</ele><time>2026-04-19T14:18:58.001Z</time></trkpt><trkpt lat="45.58145923308921" lon="8.987875370642023"><ele>189.5</ele><time>2026-04-19T14:18:59.001Z</time></trkpt><trkpt lat="45.581539747599074" lon="8.98801825739625"><ele>189.75</ele><time>2026-04-19T14:19:00.001Z</time></trkpt><trkpt lat="45.58160811554772" lon="8.988145616545674"><ele>190.0</ele><time>2026-04-19T14:19:01.001Z</time></trkpt><trkpt lat="45.58167418543414" lon="8.988257140722038"><ele>189.83333333333334</ele><time>2026-04-19T14:19:02.001Z</time></trkpt><trkpt lat="45.58173075410576" lon="8.988361496748421"><ele>189.66666666666669</ele><time>2026-04-19T14:19:03.001Z</time></trkpt><trkpt lat="45.58178329406608" lon="8.988455994913194"><ele>189.5</ele><time>2026-04-19T14:19:04.001Z</time></trkpt><trkpt lat="45.5818178724114" lon="8.988545876093857"><ele>189.33333333333334</ele><time>2026-04-19T14:19:05.001Z</time></trkpt><trkpt lat="45.58184217841038" lon="8.98864568719199"><ele>189.16666666666666</ele><time>2026-04-19T14:19:06.001Z</time></trkpt><trkpt lat="45.58189775006718" lon="8.98870733893018"><ele>189.0</ele><time>2026-04-19T14:19:07.001Z</time></trkpt><trkpt lat="45.58185566824799" lon="8.988901070025667"><ele>189.0</ele><time>2026-04-19T14:19:08.001Z</time></trkpt><trkpt lat="45.58189058624161" lon="8.988988843169547"><ele>189.0</ele><time>2026-04-19T14:19:09.001Z</time></trkpt><trkpt lat="45.58195660067347" lon="8.989054390236598"><ele>189.0</ele><time>2026-04-19T14:19:10.001Z</time></trkpt><trkpt lat="45.58203820528583" lon="8.989094439797336"><ele>189.0</ele><time>2026-04-19T14:19:11.001Z</time></trkpt><trkpt lat="45.58212503056432" lon="8.989143020203505"><ele>189.0</ele><time>2026-04-19T14:19:12.001Z</time></trkpt><trkpt lat="45.58219956867406" lon="8.989225886779419"><ele>189.0</ele><time>2026-04-19T14:19:13.001Z</time></trkpt><trkpt lat="45.582262122630524" lon="8.989327230724452"><ele>189.2</ele><time>2026-04-19T14:19:14.001Z</time></trkpt><trkpt lat="45.5823171310508" lon="8.989412864992824"><ele>189.39999999999998</ele><time>2026-04-19T14:19:15.001Z</time></trkpt><trkpt lat="45.58233926254248" lon="8.989526164202037"><ele>189.6</ele><time>2026-04-19T14:19:18Z</time></trkpt><trkpt lat="45.5823913369634" lon="8.989627499639134"><ele>189.8</ele><time>2026-04-19T14:19:21Z</time></trkpt><trkpt lat="45.5824569423304" lon="8.989758505450245"><ele>190.0</ele><time>2026-04-19T14:19:23Z</time></trkpt><trkpt lat="45.58251077595769" lon="8.989889931245832"><ele>190.33333333333334</ele><time>2026-04-19T14:19:25Z</time></trkpt><trkpt lat="45.58255209864836" lon="8.990010464642802"><ele>190.66666666666669</ele><time>2026-04-19T14:19:27Z</time></trkpt><trkpt lat="45.58257823840132" lon="8.990142722150475"><ele>191.0</ele><time>2026-04-19T14:19:29Z</time></trkpt><trkpt lat="45.58261338870814" lon="8.99026405127739"><ele>191.33333333333334</ele><time>2026-04-19T14:19:31Z</time></trkpt><trkpt lat="45.5826323374264" lon="8.990370624306355"><ele>191.66666666666666</ele><time>2026-04-19T14:19:34Z</time></trkpt><trkpt lat="45.58266773053007" lon="8.990484227470432"><ele>192.0</ele><time>2026-04-19T14:19:38Z</time></trkpt><trkpt lat="45.58268423763437" lon="8.990576543779145"><ele>192.0</ele><time>2026-04-19T14:19:41Z</time></trkpt><trkpt lat="45.58270680510553" lon="8.990702753086266"><ele>192.0</ele><time>2026-04-19T14:19:44Z</time></trkpt><trkpt lat="45.58273152967823" lon="8.990830625573794"><ele>192.0</ele><time>2026-04-19T14:19:46Z</time></trkpt><trkpt lat="45.58276642985956" lon="8.990993564749653"><ele>192.0</ele><time>2026-04-19T14:19:48Z</time></trkpt><trkpt lat="45.58280359838919" lon="8.991146653502986"><ele>192.0</ele><time>2026-04-19T14:19:50Z</time></trkpt><trkpt lat="45.58284459700484" lon="8.991285042397676"><ele>192.0</ele><time>2026-04-19T14:19:52Z</time></trkpt><trkpt lat="45.5828867095208" lon="8.991398309211077"><ele>192.0</ele><time>2026-04-19T14:19:54Z</time></trkpt><trkpt lat="45.5829196356249" lon="8.991487630579202"><ele>192.0</ele><time>2026-04-19T14:19:55Z</time></trkpt><trkpt lat="45.58295162609003" lon="8.991569415789362"><ele>192.0</ele><time>2026-04-19T14:19:56Z</time></trkpt><trkpt lat="45.582985378768484" lon="8.991656174277159"><ele>192.0</ele><time>2026-04-19T14:19:57Z</time></trkpt><trkpt lat="45.583038459213924" lon="8.991792046417014"><ele>192.0</ele><time>2026-04-19T14:19:59Z</time></trkpt><trkpt lat="45.58308208823009" lon="8.991903533755481"><ele>192.0</ele><time>2026-04-19T14:20:01Z</time></trkpt><trkpt lat="45.58311830000056" lon="8.991996432888508"><ele>192.0</ele><time>2026-04-19T14:20:03Z</time></trkpt><trkpt lat="45.58315453070623" lon="8.99208938037889"><ele>192.0</ele><time>2026-04-19T14:20:05Z</time></trkpt><trkpt lat="45.58318537172676" lon="8.992168501109782"><ele>192.0</ele><time>2026-04-19T14:20:07Z</time></trkpt><trkpt lat="45.58292318555404" lon="8.992395174655602"><ele>192.0</ele><time>2026-04-19T14:20:10Z</time></trkpt><trkpt lat="45.582862231962835" lon="8.992464930986817"><ele>192.0</ele><time>2026-04-19T14:22:20.001Z</time></trkpt><trkpt lat="45.582831973690986" lon="8.992556907293473"><ele>192.0</ele><time>2026-04-19T14:22:22.001Z</time></trkpt><trkpt lat="45.582773277158154" lon="8.992679831476318"><ele>192.0</ele><time>2026-04-19T14:22:24.001Z</time></trkpt><trkpt lat="45.582727181218296" lon="8.992794999706694"><ele>192.0</ele><time>2026-04-19T14:22:26.001Z</time></trkpt><trkpt lat="45.58266061371044" lon="8.992893463172312"><ele>192.0</ele><time>2026-04-19T14:22:28.001Z</time></trkpt><trkpt lat="45.58258809084763" lon="8.993010448071583"><ele>191.6</ele><time>2026-04-19T14:22:30.001Z</time></trkpt><trkpt lat="45.58251593456142" lon="8.993114199434249"><ele>191.2</ele><time>2026-04-19T14:22:32.001Z</time></trkpt><trkpt lat="45.58243633290916" lon="8.993187900056068"><ele>190.8</ele><time>2026-04-19T14:22:34.001Z</time></trkpt><trkpt lat="45.58235874573073" lon="8.993268305568076"><ele>190.4</ele><time>2026-04-19T14:22:36.001Z</time></trkpt><trkpt lat="45.58227537206905" lon="8.993343862048194"><ele>190.0</ele><time>2026-04-19T14:22:38.001Z</time></trkpt><trkpt lat="45.58219326323964" lon="8.993419932291117"><ele>190.0</ele><time>2026-04-19T14:22:40.001Z</time></trkpt><trkpt lat="45.582108952592165" lon="8.993508194816897"><ele>190.0</ele><time>2026-04-19T14:22:42.001Z</time></trkpt><trkpt lat="45.582031311896586" lon="8.99359501552318"><ele>190.0</ele><time>2026-04-19T14:22:44.001Z</time></trkpt><trkpt lat="45.5819501339795" lon="8.993682589876698"><ele>190.0</ele><time>2026-04-19T14:22:46.001Z</time></trkpt><trkpt lat="45.58186750863482" lon="8.993775550850842"><ele>190.0</ele><time>2026-04-19T14:22:48.001Z</time></trkpt><trkpt lat="45.58178350713847" lon="8.993866110106302"><ele>190.0</ele><time>2026-04-19T14:22:50.001Z</time></trkpt><trkpt lat="45.5816930589463" lon="8.993961136603993"><ele>190.0</ele><time>2026-04-19T14:22:52.001Z</time></trkpt><trkpt lat="45.58160834169348" lon="8.99405562655376"><ele>190.0</ele><time>2026-04-19T14:22:54.001Z</time></trkpt><trkpt lat="45.58152128204773" lon="8.994146822012887"><ele>190.0</ele><time>2026-04-19T14:22:56.001Z</time></trkpt><trkpt lat="45.5814400917072" lon="8.994230322314365"><ele>190.0</ele><time>2026-04-19T14:22:58.001Z</time></trkpt><trkpt lat="45.58137099310444" lon="8.994301993183901"><ele>189.6</ele><time>2026-04-19T14:23:00.001Z</time></trkpt><trkpt lat="45.58128963788232" lon="8.994392610559295"><ele>189.2</ele><time>2026-04-19T14:23:02.001Z</time></trkpt><trkpt lat="45.58121514097861" lon="8.994474731726193"><ele>188.8</ele><time>2026-04-19T14:23:04.001Z</time></trkpt><trkpt lat="45.58113868696962" lon="8.994558444491037"><ele>188.4</ele><time>2026-04-19T14:23:06.001Z</time></trkpt><trkpt lat="45.58106878691627" lon="8.994632272037144"><ele>188.0</ele><time>2026-04-19T14:23:08.001Z</time></trkpt><trkpt lat="45.58099781028172" lon="8.994703275666373"><ele>188.0</ele><time>2026-04-19T14:23:10.001Z</time></trkpt><trkpt lat="45.58092648779911" lon="8.994785958180183"><ele>188.0</ele><time>2026-04-19T14:23:12.001Z</time></trkpt><trkpt lat="45.58084637878312" lon="8.994873426204704"><ele>188.0</ele><time>2026-04-19T14:23:14.001Z</time></trkpt><trkpt lat="45.580766658083746" lon="8.994960255833163"><ele>188.0</ele><time>2026-04-19T14:23:16.001Z</time></trkpt><trkpt lat="45.58067647649236" lon="8.995058173120713"><ele>188.0</ele><time>2026-04-19T14:23:18.001Z</time></trkpt><trkpt lat="45.58058316176525" lon="8.995162243656814"><ele>188.0</ele><time>2026-04-19T14:23:20.001Z</time></trkpt><trkpt lat="45.58049457967737" lon="8.995264301025944"><ele>188.0</ele><time>2026-04-19T14:23:22.001Z</time></trkpt><trkpt lat="45.58039116666925" lon="8.995376508625931"><ele>188.0</ele><time>2026-04-19T14:23:24.001Z</time></trkpt><trkpt lat="45.58033214159531" lon="8.995446790686266"><ele>188.0</ele><time>2026-04-19T14:23:25.001Z</time></trkpt><trkpt lat="45.58026600023099" lon="8.995516183141103"><ele>188.0</ele><time>2026-04-19T14:23:26.001Z</time></trkpt><trkpt lat="45.58020808392158" lon="8.995590486223318"><ele>187.0</ele><time>2026-04-19T14:23:27.001Z</time></trkpt><trkpt lat="45.58014068637007" lon="8.99565785762669"><ele>186.0</ele><time>2026-04-19T14:23:28Z</time></trkpt><trkpt lat="45.58007928691987" lon="8.995727947494059"><ele>185.0</ele><time>2026-04-19T14:23:29Z</time></trkpt><trkpt lat="45.58001787729861" lon="8.995791975968109"><ele>184.0</ele><time>2026-04-19T14:23:30Z</time></trkpt><trkpt lat="45.5799624707292" lon="8.995847031627905"><ele>183.0</ele><time>2026-04-19T14:23:31Z</time></trkpt><trkpt lat="45.579898759351856" lon="8.995911243555991"><ele>182.0</ele><time>2026-04-19T14:23:32Z</time></trkpt><trkpt lat="45.57984634797159" lon="8.995987576295626"><ele>182.0</ele><time>2026-04-19T14:23:33Z</time></trkpt><trkpt lat="45.57977931900595" lon="8.996059729746518"><ele>182.0</ele><time>2026-04-19T14:23:34Z</time></trkpt><trkpt lat="45.57971250796171" lon="8.996128962919654"><ele>182.0</ele><time>2026-04-19T14:23:35Z</time></trkpt><trkpt lat="45.57964763777391" lon="8.996201694593838"><ele>182.0</ele><time>2026-04-19T14:23:36Z</time></trkpt><trkpt lat="45.57958079366791" lon="8.996274890214831"><ele>182.0</ele><time>2026-04-19T14:23:37Z</time></trkpt><trkpt lat="45.57952713394038" lon="8.996343015349337"><ele>182.0</ele><time>2026-04-19T14:23:38Z</time></trkpt><trkpt lat="45.57947164087595" lon="8.99641158021001"><ele>183.2</ele><time>2026-04-19T14:23:39Z</time></trkpt><trkpt lat="45.57940729837719" lon="8.996489399721776"><ele>184.39999999999998</ele><time>2026-04-19T14:23:40Z</time></trkpt><trkpt lat="45.57934437095402" lon="8.996569686473327"><ele>185.60000000000002</ele><time>2026-04-19T14:23:41Z</time></trkpt><trkpt lat="45.57925917645724" lon="8.996652360891959"><ele>186.8</ele><time>2026-04-19T14:23:42Z</time></trkpt><trkpt lat="45.57917020924093" lon="8.9967494291835"><ele>188.0</ele><time>2026-04-19T14:23:43Z</time></trkpt><trkpt lat="45.579080510884644" lon="8.99686300197237"><ele>189.0</ele><time>2026-04-19T14:23:44Z</time></trkpt><trkpt lat="45.5789899927618" lon="8.996983706678082"><ele>190.0</ele><time>2026-04-19T14:23:45Z</time></trkpt><trkpt lat="45.57890486343723" lon="8.997105867556701"><ele>191.0</ele><time>2026-04-19T14:23:46Z</time></trkpt><trkpt lat="45.57880430766209" lon="8.997222554467365"><ele>192.0</ele><time>2026-04-19T14:23:47Z</time></trkpt><trkpt lat="45.57870785350104" lon="8.99732421985029"><ele>191.8</ele><time>2026-04-19T14:23:48Z</time></trkpt><trkpt lat="45.57860799728222" lon="8.997434448021899"><ele>191.6</ele><time>2026-04-19T14:23:49Z</time></trkpt><trkpt lat="45.578524298137495" lon="8.997533881742774"><ele>191.4</ele><time>2026-04-19T14:23:50Z</time></trkpt><trkpt lat="45.57845314600066" lon="8.997623857674292"><ele>191.20000000000002</ele><time>2026-04-19T14:23:51Z</time></trkpt><trkpt lat="45.578392387125014" lon="8.997698196352902"><ele>191.0</ele><time>2026-04-19T14:23:52Z</time></trkpt><trkpt lat="45.578322521918764" lon="8.997774618162223"><ele>191.0</ele><time>2026-04-19T14:23:53Z</time></trkpt><trkpt lat="45.57823673847038" lon="8.997866105814357"><ele>191.0</ele><time>2026-04-19T14:23:54Z</time></trkpt><trkpt lat="45.57813025379892" lon="8.99797805280925"><ele>191.0</ele><time>2026-04-19T14:23:55Z</time></trkpt><trkpt lat="45.57803252179258" lon="8.998089314325469"><ele>191.0</ele><time>2026-04-19T14:23:56Z</time></trkpt><trkpt lat="45.57792578029593" lon="8.998196075464442"><ele>190.25</ele><time>2026-04-19T14:23:57Z</time></trkpt><trkpt lat="45.57780522274163" lon="8.998317652757999"><ele>189.5</ele><time>2026-04-19T14:23:58Z</time></trkpt><trkpt lat="45.577708043353184" lon="8.998416234394066"><ele>188.75</ele><time>2026-04-19T14:23:59Z</time></trkpt><trkpt lat="45.57761161186557" lon="8.998501503393454"><ele>188.0</ele><time>2026-04-19T14:24:00Z</time></trkpt><trkpt lat="45.57751439186092" lon="8.998605506309403"><ele>187.83333333333331</ele><time>2026-04-19T14:24:01Z</time></trkpt><trkpt lat="45.57742660215103" lon="8.998698387661218"><ele>187.66666666666666</ele><time>2026-04-19T14:24:02Z</time></trkpt><trkpt lat="45.57737509743134" lon="8.998768055290167"><ele>187.5</ele><time>2026-04-19T14:24:03Z</time></trkpt><trkpt lat="45.57728830519881" lon="8.99884754132674"><ele>187.33333333333334</ele><time>2026-04-19T14:24:05Z</time></trkpt><trkpt lat="45.577224693252916" lon="8.998874647077542"><ele>187.16666666666669</ele><time>2026-04-19T14:24:08Z</time></trkpt><trkpt lat="45.5771705147846" lon="8.998818786222765"><ele>187.0</ele><time>2026-04-19T14:24:10Z</time></trkpt><trkpt lat="45.5771087393777" lon="8.99869382184905"><ele>187.0</ele><time>2026-04-19T14:24:12Z</time></trkpt><trkpt lat="45.57702902872325" lon="8.99857854490041"><ele>187.0</ele><time>2026-04-19T14:24:14Z</time></trkpt><trkpt lat="45.5769495741656" lon="8.998455943820463"><ele>187.0</ele><time>2026-04-19T14:24:16Z</time></trkpt><trkpt lat="45.57690476711449" lon="8.99838455340956"><ele>187.0</ele><time>2026-04-19T14:24:17Z</time></trkpt><trkpt lat="45.57686029823741" lon="8.998314677466274"><ele>187.0</ele><time>2026-04-19T14:24:18Z</time></trkpt><trkpt lat="45.576813352099286" lon="8.998243113578157"><ele>187.0</ele><time>2026-04-19T14:24:19Z</time></trkpt><trkpt lat="45.57676071940468" lon="8.998162040173284"><ele>186.5</ele><time>2026-04-19T14:24:20Z</time></trkpt><trkpt lat="45.576711072278755" lon="8.998080113906264"><ele>186.0</ele><time>2026-04-19T14:24:21Z</time></trkpt><trkpt lat="45.57666287210723" lon="8.997999136510664"><ele>185.5</ele><time>2026-04-19T14:24:22Z</time></trkpt><trkpt lat="45.576614682919185" lon="8.997920767741524"><ele>185.0</ele><time>2026-04-19T14:24:23Z</time></trkpt><trkpt lat="45.57656446674332" lon="8.997846616002326"><ele>184.5</ele><time>2026-04-19T14:24:24Z</time></trkpt><trkpt lat="45.5765093508587" lon="8.99776048888082"><ele>184.0</ele><time>2026-04-19T14:24:25Z</time></trkpt><trkpt lat="45.57645590488299" lon="8.99766548326869"><ele>184.0</ele><time>2026-04-19T14:24:26Z</time></trkpt><trkpt lat="45.57639512140677" lon="8.99757498316254"><ele>184.0</ele><time>2026-04-19T14:24:27Z</time></trkpt><trkpt lat="45.576343609381794" lon="8.997488985127626"><ele>184.0</ele><time>2026-04-19T14:24:28Z</time></trkpt><trkpt lat="45.576291676185065" lon="8.99740183666811"><ele>184.0</ele><time>2026-04-19T14:24:29Z</time></trkpt><trkpt lat="45.57623259099117" lon="8.997310368301973"><ele>184.0</ele><time>2026-04-19T14:24:30.001Z</time></trkpt><trkpt lat="45.57617002200911" lon="8.997212041978436"><ele>184.0</ele><time>2026-04-19T14:24:31.001Z</time></trkpt><trkpt lat="45.57612070874608" lon="8.997139827418874"><ele>183.83333333333334</ele><time>2026-04-19T14:24:32.001Z</time></trkpt><trkpt lat="45.57607156034317" lon="8.997068038681883"><ele>183.66666666666669</ele><time>2026-04-19T14:24:33.001Z</time></trkpt><trkpt lat="45.576027391478675" lon="8.997003135484823"><ele>183.5</ele><time>2026-04-19T14:24:34.001Z</time></trkpt><trkpt lat="45.575983285564604" lon="8.996934683980585"><ele>183.33333333333334</ele><time>2026-04-19T14:24:35.001Z</time></trkpt><trkpt lat="45.57590663294846" lon="8.99681648311347"><ele>183.16666666666666</ele><time>2026-04-19T14:24:37.001Z</time></trkpt><trkpt lat="45.575848344814844" lon="8.99673379986767"><ele>183.0</ele><time>2026-04-19T14:24:38.001Z</time></trkpt><trkpt lat="45.5757655901571" lon="8.996610464393603"><ele>182.33333333333334</ele><time>2026-04-19T14:24:39.001Z</time></trkpt><trkpt lat="45.57565329571134" lon="8.996443587489528"><ele>181.66666666666669</ele><time>2026-04-19T14:24:40.001Z</time></trkpt><trkpt lat="45.57553571814609" lon="8.996270201855635"><ele>181.0</ele><time>2026-04-19T14:24:41.001Z</time></trkpt><trkpt lat="45.57544455475366" lon="8.996119323321766"><ele>181.0</ele><time>2026-04-19T14:24:42.001Z</time></trkpt><trkpt lat="45.57537418786604" lon="8.99600110470069"><ele>181.0</ele><time>2026-04-19T14:24:43.001Z</time></trkpt><trkpt lat="45.57531523603662" lon="8.99591210139302"><ele>181.0</ele><time>2026-04-19T14:24:44.001Z</time></trkpt><trkpt lat="45.5752707727086" lon="8.99584523761192"><ele>181.0</ele><time>2026-04-19T14:24:45.001Z</time></trkpt><trkpt lat="45.57523002578599" lon="8.995761412394307"><ele>181.0</ele><time>2026-04-19T14:24:47.001Z</time></trkpt><trkpt lat="45.575261160048534" lon="8.99564565276865"><ele>181.0</ele><time>2026-04-19T14:25:15.001Z</time></trkpt><trkpt lat="45.575358999886085" lon="8.995519513765542"><ele>180.4</ele><time>2026-04-19T14:25:17.001Z</time></trkpt><trkpt lat="45.57542703944885" lon="8.99544236354378"><ele>179.8</ele><time>2026-04-19T14:25:18.001Z</time></trkpt><trkpt lat="45.57551410159888" lon="8.995336212968425"><ele>179.20000000000002</ele><time>2026-04-19T14:25:19.001Z</time></trkpt><trkpt lat="45.57561863691768" lon="8.995206409261108"><ele>178.60000000000002</ele><time>2026-04-19T14:25:20.001Z</time></trkpt><trkpt lat="45.57569651942387" lon="8.9951056538822"><ele>178.0</ele><time>2026-04-19T14:25:21.001Z</time></trkpt><trkpt lat="45.57576120067143" lon="8.995026164821267"><ele>178.0</ele><time>2026-04-19T14:25:22.001Z</time></trkpt><trkpt lat="45.57582631186303" lon="8.994944738007726"><ele>178.0</ele><time>2026-04-19T14:25:23.001Z</time></trkpt><trkpt lat="45.57589567403217" lon="8.99485386773672"><ele>178.0</ele><time>2026-04-19T14:25:24.001Z</time></trkpt><trkpt lat="45.57596754011146" lon="8.994763759815156"><ele>178.0</ele><time>2026-04-19T14:25:25.001Z</time></trkpt><trkpt lat="45.57603853840033" lon="8.994671678081847"><ele>178.0</ele><time>2026-04-19T14:25:26.001Z</time></trkpt><trkpt lat="45.57611623254715" lon="8.99457298992652"><ele>178.5</ele><time>2026-04-19T14:25:27.001Z</time></trkpt><trkpt lat="45.57618835352404" lon="8.994482586293211"><ele>179.0</ele><time>2026-04-19T14:25:28.001Z</time></trkpt><trkpt lat="45.57624568430483" lon="8.99440896107115"><ele>179.5</ele><time>2026-04-19T14:25:29.001Z</time></trkpt><trkpt lat="45.5763017009324" lon="8.994339407289413"><ele>180.0</ele><time>2026-04-19T14:25:30.001Z</time></trkpt><trkpt lat="45.57635893176102" lon="8.994266067126807"><ele>180.5</ele><time>2026-04-19T14:25:31.001Z</time></trkpt><trkpt lat="45.576417175475754" lon="8.99419241537955"><ele>181.0</ele><time>2026-04-19T14:25:32.001Z</time></trkpt><trkpt lat="45.57646648006193" lon="8.994131024610796"><ele>181.60000000000002</ele><time>2026-04-19T14:25:33.001Z</time></trkpt><trkpt lat="45.576535972339094" lon="8.994024651476469"><ele>182.2</ele><time>2026-04-19T14:25:34.999Z</time></trkpt><trkpt lat="45.576520919596454" lon="8.99388228524576"><ele>182.8</ele><time>2026-04-19T14:25:36.999Z</time></trkpt><trkpt lat="45.57647357867404" lon="8.993795900745187"><ele>183.39999999999998</ele><time>2026-04-19T14:25:37.999Z</time></trkpt><trkpt lat="45.576398383699114" lon="8.993690160666382"><ele>184.0</ele><time>2026-04-19T14:25:38.999Z</time></trkpt><trkpt lat="45.57632524666608" lon="8.993578490062129"><ele>184.0</ele><time>2026-04-19T14:25:39.999Z</time></trkpt><trkpt lat="45.57627152113295" lon="8.993480719054864"><ele>184.0</ele><time>2026-04-19T14:25:40.999Z</time></trkpt><trkpt lat="45.57623605017853" lon="8.993397740258782"><ele>184.0</ele><time>2026-04-19T14:25:41.999Z</time></trkpt><trkpt lat="45.57621232614349" lon="8.993238613281063"><ele>184.0</ele><time>2026-04-19T14:25:43.999Z</time></trkpt><trkpt lat="45.576270432259456" lon="8.993110414743244"><ele>184.0</ele><time>2026-04-19T14:25:45.999Z</time></trkpt><trkpt lat="45.576342107276865" lon="8.99299101783208"><ele>184.2</ele><time>2026-04-19T14:25:47.999Z</time></trkpt><trkpt lat="45.57630395970667" lon="8.992819943755212"><ele>184.39999999999998</ele><time>2026-04-19T14:25:49.999Z</time></trkpt><trkpt lat="45.5762416226425" lon="8.99273310385921"><ele>184.6</ele><time>2026-04-19T14:25:50.999Z</time></trkpt><trkpt lat="45.576165996298975" lon="8.992627832936927"><ele>184.8</ele><time>2026-04-19T14:25:51.999Z</time></trkpt><trkpt lat="45.576085984842734" lon="8.992509718975233"><ele>185.0</ele><time>2026-04-19T14:25:52.999Z</time></trkpt><trkpt lat="45.57600433663555" lon="8.992385790531939"><ele>184.0</ele><time>2026-04-19T14:25:53.999Z</time></trkpt><trkpt lat="45.57591979015095" lon="8.992259344385038"><ele>183.0</ele><time>2026-04-19T14:25:55Z</time></trkpt><trkpt lat="45.57584038919054" lon="8.992135364766973"><ele>182.0</ele><time>2026-04-19T14:25:56Z</time></trkpt><trkpt lat="45.575770178715814" lon="8.992025822036956"><ele>181.0</ele><time>2026-04-19T14:25:57Z</time></trkpt><trkpt lat="45.575704521943166" lon="8.991917940727836"><ele>180.0</ele><time>2026-04-19T14:25:58Z</time></trkpt><trkpt lat="45.57563932550272" lon="8.99181573746547"><ele>180.0</ele><time>2026-04-19T14:25:59Z</time></trkpt><trkpt lat="45.57556950252846" lon="8.991708436069162"><ele>180.0</ele><time>2026-04-19T14:26:00Z</time></trkpt><trkpt lat="45.575498136458805" lon="8.991602592193653"><ele>180.0</ele><time>2026-04-19T14:26:01Z</time></trkpt><trkpt lat="45.57542877161975" lon="8.991491979342756"><ele>180.0</ele><time>2026-04-19T14:26:02Z</time></trkpt><trkpt lat="45.57535850763804" lon="8.991384753941723"><ele>180.0</ele><time>2026-04-19T14:26:03Z</time></trkpt><trkpt lat="45.57528808038021" lon="8.991276441293264"><ele>180.2</ele><time>2026-04-19T14:26:04Z</time></trkpt><trkpt lat="45.57521807406366" lon="8.991162399567436"><ele>180.4</ele><time>2026-04-19T14:26:05Z</time></trkpt><trkpt lat="45.575146472020265" lon="8.991042445758564"><ele>180.60000000000002</ele><time>2026-04-19T14:26:06Z</time></trkpt><trkpt lat="45.57507273408039" lon="8.990925588225359"><ele>180.8</ele><time>2026-04-19T14:26:07Z</time></trkpt><trkpt lat="45.57500552384415" lon="8.990818099543036"><ele>181.0</ele><time>2026-04-19T14:26:08Z</time></trkpt><trkpt lat="45.57493733708251" lon="8.990717993398828"><ele>181.4</ele><time>2026-04-19T14:26:09Z</time></trkpt><trkpt lat="45.574874528398084" lon="8.99062306463835"><ele>181.8</ele><time>2026-04-19T14:26:10Z</time></trkpt><trkpt lat="45.574810764552296" lon="8.990528896057814"><ele>182.20000000000002</ele><time>2026-04-19T14:26:11Z</time></trkpt><trkpt lat="45.57473545273704" lon="8.990409289871154"><ele>182.60000000000002</ele><time>2026-04-19T14:26:13Z</time></trkpt><trkpt lat="45.57466799913626" lon="8.990299522564625"><ele>183.0</ele><time>2026-04-19T14:26:15Z</time></trkpt><trkpt lat="45.57460471746851" lon="8.990188317988197"><ele>183.0</ele><time>2026-04-19T14:26:17Z</time></trkpt><trkpt lat="45.57452892959123" lon="8.99006094567719"><ele>183.0</ele><time>2026-04-19T14:26:19Z</time></trkpt><trkpt lat="45.57445648989537" lon="8.989949939868218"><ele>183.0</ele><time>2026-04-19T14:26:20Z</time></trkpt><trkpt lat="45.57436376460193" lon="8.98981282616591"><ele>183.0</ele><time>2026-04-19T14:26:21Z</time></trkpt><trkpt lat="45.574275945248395" lon="8.989685238710884"><ele>183.0</ele><time>2026-04-19T14:26:22Z</time></trkpt><trkpt lat="45.574201245216344" lon="8.989532056789026"><ele>183.0</ele><time>2026-04-19T14:26:23Z</time></trkpt><trkpt lat="45.574110658696355" lon="8.98937446363563"><ele>183.0</ele><time>2026-04-19T14:26:24Z</time></trkpt><trkpt lat="45.57399613150131" lon="8.98920520958571"><ele>183.0</ele><time>2026-04-19T14:26:25Z</time></trkpt><trkpt lat="45.5738695992666" lon="8.98901061646705"><ele>182.66666666666666</ele><time>2026-04-19T14:26:26Z</time></trkpt><trkpt lat="45.57375218610017" lon="8.98880177177666"><ele>182.33333333333331</ele><time>2026-04-19T14:26:27Z</time></trkpt><trkpt lat="45.57363796243533" lon="8.988627205247441"><ele>182.0</ele><time>2026-04-19T14:26:28Z</time></trkpt><trkpt lat="45.573545672017055" lon="8.98848615897534"><ele>182.0</ele><time>2026-04-19T14:26:29Z</time></trkpt><trkpt lat="45.573459375008376" lon="8.98835427243263"><ele>182.0</ele><time>2026-04-19T14:26:30Z</time></trkpt><trkpt lat="45.57338177496567" lon="8.988235583596051"><ele>182.0</ele><time>2026-04-19T14:26:31Z</time></trkpt><trkpt lat="45.573300934782246" lon="8.98813174379679"><ele>182.0</ele><time>2026-04-19T14:26:32Z</time></trkpt><trkpt lat="45.57322884570889" lon="8.98800149929097"><ele>182.5</ele><time>2026-04-19T14:26:33Z</time></trkpt><trkpt lat="45.573140058440416" lon="8.987894922466252"><ele>183.0</ele><time>2026-04-19T14:26:34Z</time></trkpt><trkpt lat="45.573063449504964" lon="8.987772723684538"><ele>183.5</ele><time>2026-04-19T14:26:35Z</time></trkpt><trkpt lat="45.57298476488115" lon="8.987655451758222"><ele>184.0</ele><time>2026-04-19T14:26:36Z</time></trkpt><trkpt lat="45.57290526081993" lon="8.987525000862803"><ele>184.25</ele><time>2026-04-19T14:26:37Z</time></trkpt><trkpt lat="45.572820937987615" lon="8.987391820997846"><ele>184.5</ele><time>2026-04-19T14:26:38Z</time></trkpt><trkpt lat="45.572750489471744" lon="8.987245541611852"><ele>184.75</ele><time>2026-04-19T14:26:39Z</time></trkpt><trkpt lat="45.57267803087027" lon="8.987128463815516"><ele>185.0</ele><time>2026-04-19T14:26:40Z</time></trkpt><trkpt lat="45.57261445838515" lon="8.98702585101103"><ele>185.0</ele><time>2026-04-19T14:26:41Z</time></trkpt><trkpt lat="45.57253127440465" lon="8.986922663677152"><ele>185.0</ele><time>2026-04-19T14:26:42Z</time></trkpt><trkpt lat="45.572462208062" lon="8.986778545714252"><ele>185.0</ele><time>2026-04-19T14:26:43Z</time></trkpt><trkpt lat="45.57239672467047" lon="8.9866649880039"><ele>185.0</ele><time>2026-04-19T14:26:44Z</time></trkpt><trkpt lat="45.57232903669694" lon="8.986583207590987"><ele>185.0</ele><time>2026-04-19T14:26:45Z</time></trkpt><trkpt lat="45.57228162316236" lon="8.986500917927046"><ele>185.0</ele><time>2026-04-19T14:26:46Z</time></trkpt><trkpt lat="45.57223970165077" lon="8.986425779427535"><ele>185.0</ele><time>2026-04-19T14:26:47Z</time></trkpt><trkpt lat="45.57219034860908" lon="8.986360510477807"><ele>185.0</ele><time>2026-04-19T14:26:48Z</time></trkpt><trkpt lat="45.572146746361945" lon="8.986289718869743"><ele>185.0</ele><time>2026-04-19T14:26:49Z</time></trkpt><trkpt lat="45.57206995244113" lon="8.986159678900654"><ele>185.0</ele><time>2026-04-19T14:26:51Z</time></trkpt><trkpt lat="45.572002288384596" lon="8.986041358724858"><ele>185.0</ele><time>2026-04-19T14:26:53.001Z</time></trkpt><trkpt lat="45.57193826892096" lon="8.985935657189529"><ele>185.0</ele><time>2026-04-19T14:26:55.001Z</time></trkpt><trkpt lat="45.57187356634629" lon="8.985856890132682"><ele>185.0</ele><time>2026-04-19T14:27:40.999Z</time></trkpt><trkpt lat="45.57172375794604" lon="8.985913393276864"><ele>185.0</ele><time>2026-04-19T14:27:43.999Z</time></trkpt><trkpt lat="45.57164634385654" lon="8.986006188810727"><ele>185.0</ele><time>2026-04-19T14:27:44.999Z</time></trkpt><trkpt lat="45.57153861741593" lon="8.986107305022855"><ele>185.0</ele><time>2026-04-19T14:27:45.999Z</time></trkpt><trkpt lat="45.57141465659708" lon="8.98622832814756"><ele>185.0</ele><time>2026-04-19T14:27:46.999Z</time></trkpt><trkpt lat="45.57127583959189" lon="8.986364026979592"><ele>185.0</ele><time>2026-04-19T14:27:47.999Z</time></trkpt><trkpt lat="45.57115343733638" lon="8.986480159420267"><ele>184.75</ele><time>2026-04-19T14:27:48.999Z</time></trkpt><trkpt lat="45.5710432579114" lon="8.986592133895961"><ele>184.5</ele><time>2026-04-19T14:27:49.999Z</time></trkpt><trkpt lat="45.570940972455325" lon="8.986695001909869"><ele>184.25</ele><time>2026-04-19T14:27:51Z</time></trkpt><trkpt lat="45.57083194730966" lon="8.986795645608256"><ele>184.0</ele><time>2026-04-19T14:27:52Z</time></trkpt><trkpt lat="45.57073522122736" lon="8.986885919364116"><ele>184.0</ele><time>2026-04-19T14:27:53Z</time></trkpt><trkpt lat="45.57064889682302" lon="8.986953439083788"><ele>184.0</ele><time>2026-04-19T14:27:54Z</time></trkpt><trkpt lat="45.5705826858738" lon="8.987031589309067"><ele>184.0</ele><time>2026-04-19T14:27:55Z</time></trkpt><trkpt lat="45.57051409629164" lon="8.98708126868366"><ele>184.0</ele><time>2026-04-19T14:27:56Z</time></trkpt><trkpt lat="45.57059684934307" lon="8.987334775305495"><ele>184.0</ele><time>2026-04-19T14:27:59Z</time></trkpt><trkpt lat="45.5706791232423" lon="8.987365518618578"><ele>184.0</ele><time>2026-04-19T14:28:00Z</time></trkpt><trkpt lat="45.570797562622396" lon="8.987390028079055"><ele>184.0</ele><time>2026-04-19T14:28:01Z</time></trkpt><trkpt lat="45.57093373977816" lon="8.987450797239404"><ele>184.0</ele><time>2026-04-19T14:28:02Z</time></trkpt><trkpt lat="45.57106964651675" lon="8.987545526355955"><ele>183.5</ele><time>2026-04-19T14:28:03Z</time></trkpt><trkpt lat="45.57117633842885" lon="8.987670178163519"><ele>183.0</ele><time>2026-04-19T14:28:04Z</time></trkpt><trkpt lat="45.57124942900018" lon="8.98781638738989"><ele>182.5</ele><time>2026-04-19T14:28:05Z</time></trkpt><trkpt lat="45.57129561129829" lon="8.988002776926635"><ele>182.0</ele><time>2026-04-19T14:28:06Z</time></trkpt><trkpt lat="45.57131743587199" lon="8.988198242024495"><ele>182.25</ele><time>2026-04-19T14:28:07Z</time></trkpt><trkpt lat="45.57130833257704" lon="8.9883992581211"><ele>182.5</ele><time>2026-04-19T14:28:08Z</time></trkpt><trkpt lat="45.57126878305116" lon="8.988585975807057"><ele>182.75</ele><time>2026-04-19T14:28:09Z</time></trkpt><trkpt lat="45.571177115223286" lon="8.988723531258511"><ele>183.0</ele><time>2026-04-19T14:28:10Z</time></trkpt><trkpt lat="45.571077097329365" lon="8.988868908451176"><ele>183.0</ele><time>2026-04-19T14:28:11Z</time></trkpt><trkpt lat="45.570952828315285" lon="8.988980601121941"><ele>183.0</ele><time>2026-04-19T14:28:12Z</time></trkpt><trkpt lat="45.57083145786507" lon="8.989084466247839"><ele>183.0</ele><time>2026-04-19T14:28:13Z</time></trkpt><trkpt lat="45.57073523183203" lon="8.989170696528271"><ele>183.0</ele><time>2026-04-19T14:28:14Z</time></trkpt><trkpt lat="45.570647169377864" lon="8.989257256726052"><ele>182.60000000000002</ele><time>2026-04-19T14:28:15Z</time></trkpt><trkpt lat="45.57057314208701" lon="8.989325121295167"><ele>182.20000000000002</ele><time>2026-04-19T14:28:16Z</time></trkpt><trkpt lat="45.5705042741745" lon="8.989386797967457"><ele>181.8</ele><time>2026-04-19T14:28:17Z</time></trkpt><trkpt lat="45.570444099984584" lon="8.989442411283289"><ele>181.4</ele><time>2026-04-19T14:28:18Z</time></trkpt><trkpt lat="45.57040723979213" lon="8.98952788345287"><ele>181.0</ele><time>2026-04-19T14:28:20Z</time></trkpt><trkpt lat="45.57052416325656" lon="8.98979764961531"><ele>181.0</ele><time>2026-04-19T14:28:27Z</time></trkpt><trkpt lat="45.57057598872977" lon="8.989900599474291"><ele>181.0</ele><time>2026-04-19T14:29:11.001Z</time></trkpt><trkpt lat="45.570652966749385" lon="8.990046679294712"><ele>181.0</ele><time>2026-04-19T14:29:13.001Z</time></trkpt><trkpt lat="45.57070272827432" lon="8.99014352302952"><ele>181.0</ele><time>2026-04-19T14:29:14.001Z</time></trkpt><trkpt lat="45.5707552375866" lon="8.990266538823724"><ele>181.0</ele><time>2026-04-19T14:29:15.001Z</time></trkpt><trkpt lat="45.57080834039125" lon="8.990376191516278"><ele>181.0</ele><time>2026-04-19T14:29:16.001Z</time></trkpt><trkpt lat="45.570872018457884" lon="8.99050059019007"><ele>181.0</ele><time>2026-04-19T14:29:17.001Z</time></trkpt><trkpt lat="45.5709367652725" lon="8.990628001518493"><ele>181.0</ele><time>2026-04-19T14:29:18.001Z</time></trkpt><trkpt lat="45.57098920153807" lon="8.99072620807875"><ele>181.0</ele><time>2026-04-19T14:29:19.001Z</time></trkpt><trkpt lat="45.57103087392471" lon="8.990810071935222"><ele>181.0</ele><time>2026-04-19T14:29:20.001Z</time></trkpt><trkpt lat="45.57107567771682" lon="8.990901415329958"><ele>181.33333333333334</ele><time>2026-04-19T14:29:21.001Z</time></trkpt><trkpt lat="45.571124916418874" lon="8.991002071097471"><ele>181.66666666666669</ele><time>2026-04-19T14:29:22.001Z</time></trkpt><trkpt lat="45.571173279323254" lon="8.991092056997443"><ele>182.0</ele><time>2026-04-19T14:29:23.001Z</time></trkpt><trkpt lat="45.57122505802254" lon="8.991180029281923"><ele>182.33333333333334</ele><time>2026-04-19T14:29:24.001Z</time></trkpt><trkpt lat="45.57128213726083" lon="8.991280860873237"><ele>182.66666666666666</ele><time>2026-04-19T14:29:25.001Z</time></trkpt><trkpt lat="45.57133856382313" lon="8.991380459091069"><ele>183.0</ele><time>2026-04-19T14:29:26.001Z</time></trkpt><trkpt lat="45.57139649032851" lon="8.99147084300468"><ele>183.0</ele><time>2026-04-19T14:29:27.001Z</time></trkpt><trkpt lat="45.57144958014727" lon="8.991557184488636"><ele>183.0</ele><time>2026-04-19T14:29:28.001Z</time></trkpt><trkpt lat="45.571511356986164" lon="8.991659100293589"><ele>183.0</ele><time>2026-04-19T14:29:29.001Z</time></trkpt><trkpt lat="45.571575703147964" lon="8.991756857163256"><ele>183.0</ele><time>2026-04-19T14:29:30.001Z</time></trkpt><trkpt lat="45.5716410942147" lon="8.99186269020068"><ele>183.0</ele><time>2026-04-19T14:29:31.001Z</time></trkpt><trkpt lat="45.571704941694726" lon="8.991957989392171"><ele>182.66666666666666</ele><time>2026-04-19T14:29:32.001Z</time></trkpt><trkpt lat="45.5717709588829" lon="8.992053105623224"><ele>182.33333333333334</ele><time>2026-04-19T14:29:33.001Z</time></trkpt><trkpt lat="45.57182817558124" lon="8.992134190986613"><ele>182.0</ele><time>2026-04-19T14:29:34.001Z</time></trkpt><trkpt lat="45.57187873654713" lon="8.992206013894817"><ele>181.66666666666669</ele><time>2026-04-19T14:29:35.001Z</time></trkpt><trkpt lat="45.571937726475895" lon="8.992275795413619"><ele>181.33333333333334</ele><time>2026-04-19T14:29:36.001Z</time></trkpt><trkpt lat="45.57199383526227" lon="8.992364712381324"><ele>181.0</ele><time>2026-04-19T14:29:37.001Z</time></trkpt><trkpt lat="45.572033102619386" lon="8.992452961562845"><ele>181.66666666666669</ele><time>2026-04-19T14:29:38.001Z</time></trkpt><trkpt lat="45.57209083936205" lon="8.992527321178393"><ele>182.33333333333334</ele><time>2026-04-19T14:29:39.001Z</time></trkpt><trkpt lat="45.572151819156815" lon="8.992603523999184"><ele>183.0</ele><time>2026-04-19T14:29:40.001Z</time></trkpt><trkpt lat="45.57221351517969" lon="8.992682327064204"><ele>183.66666666666666</ele><time>2026-04-19T14:29:41.001Z</time></trkpt><trkpt lat="45.57226947005454" lon="8.992754906766674"><ele>184.33333333333331</ele><time>2026-04-19T14:29:42.001Z</time></trkpt><trkpt lat="45.57232462751807" lon="8.992840379177123"><ele>185.0</ele><time>2026-04-19T14:29:43.001Z</time></trkpt><trkpt lat="45.572380116264924" lon="8.99292708210775"><ele>185.0</ele><time>2026-04-19T14:29:44.001Z</time></trkpt><trkpt lat="45.57242548299071" lon="8.9929970631219"><ele>185.0</ele><time>2026-04-19T14:29:45.001Z</time></trkpt><trkpt lat="45.57247771581632" lon="8.993081486800852"><ele>185.0</ele><time>2026-04-19T14:29:46Z</time></trkpt><trkpt lat="45.57255297585457" lon="8.993203306550031"><ele>185.0</ele><time>2026-04-19T14:29:48Z</time></trkpt><trkpt lat="45.57262612681926" lon="8.993315076857575"><ele>185.0</ele><time>2026-04-19T14:29:50Z</time></trkpt><trkpt lat="45.57272946466878" lon="8.993438252512318"><ele>184.7142857142857</ele><time>2026-04-19T14:29:52Z</time></trkpt><trkpt lat="45.57278119726467" lon="8.993511676083964"><ele>184.42857142857142</ele><time>2026-04-19T14:29:53Z</time></trkpt><trkpt lat="45.57282939652513" lon="8.993581134542866"><ele>184.14285714285714</ele><time>2026-04-19T14:29:54Z</time></trkpt><trkpt lat="45.5728679700954" lon="8.993655515659778"><ele>183.85714285714283</ele><time>2026-04-19T14:29:55Z</time></trkpt><trkpt lat="45.57292386797588" lon="8.993721027106858"><ele>183.57142857142858</ele><time>2026-04-19T14:29:56Z</time></trkpt><trkpt lat="45.572973684126275" lon="8.993782345912415"><ele>183.28571428571428</ele><time>2026-04-19T14:29:57Z</time></trkpt><trkpt lat="45.57303010116565" lon="8.993855132871403"><ele>183.0</ele><time>2026-04-19T14:29:58Z</time></trkpt><trkpt lat="45.573104989612915" lon="8.993932661526683"><ele>183.0</ele><time>2026-04-19T14:30:00Z</time></trkpt><trkpt lat="45.573089050437" lon="8.99402955712622"><ele>183.0</ele><time>2026-04-19T14:30:33.001Z</time></trkpt><trkpt lat="45.57298999412947" lon="8.994118335531526"><ele>183.0</ele><time>2026-04-19T14:30:35.001Z</time></trkpt><trkpt lat="45.57289736503649" lon="8.994208358218222"><ele>183.0</ele><time>2026-04-19T14:30:37.001Z</time></trkpt><trkpt lat="45.57281826363927" lon="8.994307878976338"><ele>183.0</ele><time>2026-04-19T14:30:39.001Z</time></trkpt><trkpt lat="45.57276751231823" lon="8.994397906486297"><ele>182.85714285714286</ele><time>2026-04-19T14:30:41.001Z</time></trkpt><trkpt lat="45.572714532933645" lon="8.994448020831198"><ele>182.71428571428572</ele><time>2026-04-19T14:30:43.001Z</time></trkpt><trkpt lat="45.5726517091705" lon="8.99445988730474"><ele>182.57142857142856</ele><time>2026-04-19T14:30:45.001Z</time></trkpt><trkpt lat="45.57258484930024" lon="8.994459713605192"><ele>182.42857142857144</ele><time>2026-04-19T14:30:47.001Z</time></trkpt><trkpt lat="45.57249930979875" lon="8.994440644085874"><ele>182.28571428571428</ele><time>2026-04-19T14:30:49.001Z</time></trkpt><trkpt lat="45.572399597517496" lon="8.994443898137584"><ele>182.14285714285714</ele><time>2026-04-19T14:30:51.001Z</time></trkpt><trkpt lat="45.57233039539028" lon="8.99443728365768"><ele>182.0</ele><time>2026-04-19T14:30:52.001Z</time></trkpt><trkpt lat="45.57225508161076" lon="8.994422903041388"><ele>182.0</ele><time>2026-04-19T14:30:53.001Z</time></trkpt><trkpt lat="45.572169265075544" lon="8.994409467695606"><ele>182.0</ele><time>2026-04-19T14:30:54.001Z</time></trkpt><trkpt lat="45.57207280386296" lon="8.994395792276375"><ele>182.0</ele><time>2026-04-19T14:30:55.001Z</time></trkpt><trkpt lat="45.57197874062038" lon="8.994389146193921"><ele>182.0</ele><time>2026-04-19T14:30:56.001Z</time></trkpt><trkpt lat="45.57187681402741" lon="8.99437247572504"><ele>182.0</ele><time>2026-04-19T14:30:57.001Z</time></trkpt><trkpt lat="45.57177484887593" lon="8.99435387561356"><ele>182.5</ele><time>2026-04-19T14:30:58.001Z</time></trkpt><trkpt lat="45.571678324207745" lon="8.994323980206394"><ele>183.0</ele><time>2026-04-19T14:30:59.001Z</time></trkpt><trkpt lat="45.571592570187406" lon="8.994297198067203"><ele>183.5</ele><time>2026-04-19T14:31:00.001Z</time></trkpt><trkpt lat="45.57151532466163" lon="8.994274918425544"><ele>184.0</ele><time>2026-04-19T14:31:01.001Z</time></trkpt><trkpt lat="45.57144318935167" lon="8.994244802643605"><ele>184.5</ele><time>2026-04-19T14:31:02.001Z</time></trkpt><trkpt lat="45.57137727579204" lon="8.994216058350933"><ele>185.0</ele><time>2026-04-19T14:31:03.001Z</time></trkpt><trkpt lat="45.57130945722439" lon="8.994177674006437"><ele>184.83333333333331</ele><time>2026-04-19T14:31:04.001Z</time></trkpt><trkpt lat="45.57125235763966" lon="8.994137104980675"><ele>184.66666666666666</ele><time>2026-04-19T14:31:05.001Z</time></trkpt><trkpt lat="45.571192493709795" lon="8.994084245340312"><ele>184.5</ele><time>2026-04-19T14:31:06.001Z</time></trkpt><trkpt lat="45.571137895636454" lon="8.99401833922073"><ele>184.33333333333334</ele><time>2026-04-19T14:31:07.001Z</time></trkpt><trkpt lat="45.57106064879503" lon="8.993917468727528"><ele>184.16666666666669</ele><time>2026-04-19T14:31:09.001Z</time></trkpt><trkpt lat="45.57102171950774" lon="8.993836580610186"><ele>184.0</ele><time>2026-04-19T14:31:10.001Z</time></trkpt><trkpt lat="45.570974880305975" lon="8.993745963046168"><ele>184.0</ele><time>2026-04-19T14:31:11.001Z</time></trkpt><trkpt lat="45.570918213234435" lon="8.99364094692304"><ele>184.0</ele><time>2026-04-19T14:31:12.001Z</time></trkpt><trkpt lat="45.57083573006863" lon="8.99349092337898"><ele>184.0</ele><time>2026-04-19T14:31:13.001Z</time></trkpt><trkpt lat="45.57072573395787" lon="8.993295644192232"><ele>184.0</ele><time>2026-04-19T14:31:14.001Z</time></trkpt><trkpt lat="45.570628400587616" lon="8.993130469877649"><ele>183.79999999999998</ele><time>2026-04-19T14:31:15.001Z</time></trkpt><trkpt lat="45.57055573235792" lon="8.992989275169894"><ele>183.6</ele><time>2026-04-19T14:31:16.001Z</time></trkpt><trkpt lat="45.5704953798766" lon="8.992861504393316"><ele>183.4</ele><time>2026-04-19T14:31:17.001Z</time></trkpt><trkpt lat="45.570434375672505" lon="8.992754131981702"><ele>183.2</ele><time>2026-04-19T14:31:18.001Z</time></trkpt><trkpt lat="45.570377956785656" lon="8.992646955736618"><ele>183.0</ele><time>2026-04-19T14:31:19.001Z</time></trkpt><trkpt lat="45.570328193766144" lon="8.992557917077463"><ele>182.8</ele><time>2026-04-19T14:31:20.001Z</time></trkpt><trkpt lat="45.5702817201671" lon="8.992477104322846"><ele>182.60000000000002</ele><time>2026-04-19T14:31:21.001Z</time></trkpt><trkpt lat="45.57023859479199" lon="8.992404346155583"><ele>182.39999999999998</ele><time>2026-04-19T14:31:22.001Z</time></trkpt><trkpt lat="45.57015467603859" lon="8.99229664794122"><ele>182.2</ele><time>2026-04-19T14:31:24.001Z</time></trkpt><trkpt lat="45.570061460554946" lon="8.992291510071244"><ele>182.0</ele><time>2026-04-19T14:31:26.001Z</time></trkpt><trkpt lat="45.569957280455455" lon="8.992372707286131"><ele>182.0</ele><time>2026-04-19T14:31:28.001Z</time></trkpt><trkpt lat="45.569884676374" lon="8.992428803103529"><ele>182.0</ele><time>2026-04-19T14:31:30.001Z</time></trkpt><trkpt lat="45.569806137686214" lon="8.992469000005446"><ele>182.0</ele><time>2026-04-19T14:31:32.001Z</time></trkpt><trkpt lat="45.56971433317375" lon="8.992583352046047"><ele>182.0</ele><time>2026-04-19T14:31:34.001Z</time></trkpt><trkpt lat="45.569670184400515" lon="8.99266201866206"><ele>182.0</ele><time>2026-04-19T14:31:35.001Z</time></trkpt><trkpt lat="45.569628866057414" lon="8.992746281492447"><ele>182.0</ele><time>2026-04-19T14:31:36.001Z</time></trkpt><trkpt lat="45.569581854888476" lon="8.992829035280495"><ele>182.16666666666666</ele><time>2026-04-19T14:31:37.001Z</time></trkpt><trkpt lat="45.56953890239646" lon="8.9929012008517"><ele>182.33333333333331</ele><time>2026-04-19T14:31:38.001Z</time></trkpt><trkpt lat="45.56946070764538" lon="8.993011474315617"><ele>182.5</ele><time>2026-04-19T14:31:40.001Z</time></trkpt><trkpt lat="45.56940907354093" lon="8.99308520790352"><ele>182.66666666666666</ele><time>2026-04-19T14:31:42.002Z</time></trkpt><trkpt lat="45.569337480836005" lon="8.993115929237474"><ele>182.83333333333334</ele><time>2026-04-19T14:31:46.002Z</time></trkpt><trkpt lat="45.56928615594641" lon="8.993053411770648"><ele>183.0</ele><time>2026-04-19T14:31:55Z</time></trkpt><trkpt lat="45.5692724004607" lon="8.992875931779658"><ele>183.0</ele><time>2026-04-19T14:31:57Z</time></trkpt><trkpt lat="45.56926268519226" lon="8.992780429892552"><ele>183.0</ele><time>2026-04-19T14:31:58Z</time></trkpt><trkpt lat="45.56924305560058" lon="8.99266357648193"><ele>183.0</ele><time>2026-04-19T14:31:59Z</time></trkpt><trkpt lat="45.56922360435551" lon="8.992535316417767"><ele>183.0</ele><time>2026-04-19T14:32:00Z</time></trkpt><trkpt lat="45.56919993678233" lon="8.992394145701168"><ele>183.0</ele><time>2026-04-19T14:32:01Z</time></trkpt><trkpt lat="45.569179820801146" lon="8.992241459961345"><ele>183.0</ele><time>2026-04-19T14:32:02Z</time></trkpt><trkpt lat="45.56915366035747" lon="8.992096574294274"><ele>183.0</ele><time>2026-04-19T14:32:03Z</time></trkpt><trkpt lat="45.56912830020417" lon="8.991938075794707"><ele>183.0</ele><time>2026-04-19T14:32:04Z</time></trkpt><trkpt lat="45.56910422950822" lon="8.991780434663259"><ele>183.0</ele><time>2026-04-19T14:32:05Z</time></trkpt><trkpt lat="45.56908233491567" lon="8.99164372347096"><ele>183.0</ele><time>2026-04-19T14:32:06Z</time></trkpt><trkpt lat="45.56906453165887" lon="8.99151745365202"><ele>183.2</ele><time>2026-04-19T14:32:07Z</time></trkpt><trkpt lat="45.56905338014081" lon="8.991422671595283"><ele>183.4</ele><time>2026-04-19T14:32:08Z</time></trkpt><trkpt lat="45.569043594804754" lon="8.991310741358545"><ele>183.6</ele><time>2026-04-19T14:32:09Z</time></trkpt><trkpt lat="45.56902706329633" lon="8.99122266664461"><ele>183.79999999999998</ele><time>2026-04-19T14:32:10Z</time></trkpt><trkpt lat="45.568975788214885" lon="8.991061960869887"><ele>184.0</ele><time>2026-04-19T14:32:12Z</time></trkpt><trkpt lat="45.568794412243996" lon="8.991068085750845"><ele>184.0</ele><time>2026-04-19T14:32:15Z</time></trkpt><trkpt lat="45.56872931685385" lon="8.991132659488937"><ele>184.0</ele><time>2026-04-19T14:32:16Z</time></trkpt><trkpt lat="45.568641139224546" lon="8.991227099393383"><ele>184.0</ele><time>2026-04-19T14:32:17Z</time></trkpt><trkpt lat="45.568553188722944" lon="8.991333259157622"><ele>184.0</ele><time>2026-04-19T14:32:18Z</time></trkpt><trkpt lat="45.56845054442281" lon="8.991426819023125"><ele>184.0</ele><time>2026-04-19T14:32:19Z</time></trkpt><trkpt lat="45.56834537498277" lon="8.991524718363516"><ele>183.75</ele><time>2026-04-19T14:32:20Z</time></trkpt><trkpt lat="45.56823972013374" lon="8.991627917046067"><ele>183.5</ele><time>2026-04-19T14:32:21Z</time></trkpt><trkpt lat="45.568128630520334" lon="8.991720719338282"><ele>183.25</ele><time>2026-04-19T14:32:22Z</time></trkpt><trkpt lat="45.56802190537081" lon="8.991842644388292"><ele>183.0</ele><time>2026-04-19T14:32:23Z</time></trkpt><trkpt lat="45.56791431824054" lon="8.991945333052556"><ele>182.4</ele><time>2026-04-19T14:32:24Z</time></trkpt><trkpt lat="45.56781292603916" lon="8.992048482226915"><ele>181.8</ele><time>2026-04-19T14:32:25Z</time></trkpt><trkpt lat="45.56772631252711" lon="8.992136054103241"><ele>181.2</ele><time>2026-04-19T14:32:26Z</time></trkpt><trkpt lat="45.56764267929165" lon="8.992220829496013"><ele>180.6</ele><time>2026-04-19T14:32:27Z</time></trkpt><trkpt lat="45.5675561987479" lon="8.992307185160358"><ele>180.0</ele><time>2026-04-19T14:32:28Z</time></trkpt><trkpt lat="45.56747074903041" lon="8.992391555189947"><ele>180.0</ele><time>2026-04-19T14:32:29Z</time></trkpt><trkpt lat="45.56738118409204" lon="8.99248154231236"><ele>180.0</ele><time>2026-04-19T14:32:30Z</time></trkpt><trkpt lat="45.56729024510001" lon="8.992577305896246"><ele>180.0</ele><time>2026-04-19T14:32:31Z</time></trkpt><trkpt lat="45.56720007652424" lon="8.992674456088197"><ele>180.0</ele><time>2026-04-19T14:32:32Z</time></trkpt><trkpt lat="45.56710855984741" lon="8.992771820247835"><ele>180.4</ele><time>2026-04-19T14:32:33Z</time></trkpt><trkpt lat="45.5670162029835" lon="8.992870822930145"><ele>180.8</ele><time>2026-04-19T14:32:34Z</time></trkpt><trkpt lat="45.566926520456185" lon="8.992966377748333"><ele>181.2</ele><time>2026-04-19T14:32:35Z</time></trkpt><trkpt lat="45.56684383576407" lon="8.993053008482692"><ele>181.6</ele><time>2026-04-19T14:32:36Z</time></trkpt><trkpt lat="45.56676895595623" lon="8.993129996395286"><ele>182.0</ele><time>2026-04-19T14:32:37Z</time></trkpt><trkpt lat="45.566701027555396" lon="8.993201491149215"><ele>182.0</ele><time>2026-04-19T14:32:38Z</time></trkpt><trkpt lat="45.56663926191978" lon="8.993267328319787"><ele>182.0</ele><time>2026-04-19T14:32:39Z</time></trkpt><trkpt lat="45.566579779218394" lon="8.99333285590958"><ele>182.0</ele><time>2026-04-19T14:32:40Z</time></trkpt><trkpt lat="45.56652213909213" lon="8.993394925604656"><ele>182.0</ele><time>2026-04-19T14:32:41Z</time></trkpt><trkpt lat="45.56644885376669" lon="8.993460500508963"><ele>182.0</ele><time>2026-04-19T14:32:42Z</time></trkpt><trkpt lat="45.56638666993324" lon="8.993520032058386"><ele>182.0</ele><time>2026-04-19T14:32:43.001Z</time></trkpt><trkpt lat="45.56632679684185" lon="8.993576261123264"><ele>181.66666666666666</ele><time>2026-04-19T14:32:44.001Z</time></trkpt><trkpt lat="45.56627341317969" lon="8.993626853973891"><ele>181.33333333333331</ele><time>2026-04-19T14:32:45.001Z</time></trkpt><trkpt lat="45.56619425754164" lon="8.993731818356014"><ele>181.0</ele><time>2026-04-19T14:32:47.001Z</time></trkpt><trkpt lat="45.56610163470769" lon="8.993743791719913"><ele>180.66666666666666</ele><time>2026-04-19T14:32:48.001Z</time></trkpt><trkpt lat="45.56602726560306" lon="8.993792616642965"><ele>180.33333333333334</ele><time>2026-04-19T14:32:49.001Z</time></trkpt><trkpt lat="45.56596026232455" lon="8.99385777483115"><ele>180.0</ele><time>2026-04-19T14:32:50.001Z</time></trkpt><trkpt lat="45.565915468554834" lon="8.993935275734149"><ele>179.75</ele><time>2026-04-19T14:32:51.001Z</time></trkpt><trkpt lat="45.56589871239498" lon="8.994112489568677"><ele>179.5</ele><time>2026-04-19T14:32:53.001Z</time></trkpt><trkpt lat="45.56598014604326" lon="8.994218513432338"><ele>179.25</ele><time>2026-04-19T14:32:54.001Z</time></trkpt><trkpt lat="45.56606289854809" lon="8.99427710334726"><ele>179.0</ele><time>2026-04-19T14:32:55.001Z</time></trkpt><trkpt lat="45.566191770124156" lon="8.994198374842506"><ele>179.0</ele><time>2026-04-19T14:32:56.001Z</time></trkpt><trkpt lat="45.56630093662443" lon="8.994162619491988"><ele>179.0</ele><time>2026-04-19T14:32:57.001Z</time></trkpt><trkpt lat="45.56642318174257" lon="8.994138945752763"><ele>179.0</ele><time>2026-04-19T14:32:58.001Z</time></trkpt><trkpt lat="45.56652889032778" lon="8.994151133186834"><ele>179.0</ele><time>2026-04-19T14:32:59.001Z</time></trkpt><trkpt lat="45.566628915988765" lon="8.994174615102592"><ele>179.0</ele><time>2026-04-19T14:33:00.001Z</time></trkpt><trkpt lat="45.5667316626296" lon="8.99420450963984"><ele>179.0</ele><time>2026-04-19T14:33:01.001Z</time></trkpt><trkpt lat="45.566840483188194" lon="8.994236869359176"><ele>179.0</ele><time>2026-04-19T14:33:02.001Z</time></trkpt><trkpt lat="45.566952813296446" lon="8.994275328726376"><ele>179.0</ele><time>2026-04-19T14:33:03.001Z</time></trkpt><trkpt lat="45.56706545676809" lon="8.994316570918802"><ele>179.0</ele><time>2026-04-19T14:33:04.001Z</time></trkpt><trkpt lat="45.567164675841184" lon="8.99434777545837"><ele>179.0</ele><time>2026-04-19T14:33:05.001Z</time></trkpt><trkpt lat="45.56725303432144" lon="8.994379334825735"><ele>179.2</ele><time>2026-04-19T14:33:06.001Z</time></trkpt><trkpt lat="45.56734984417909" lon="8.994414360404235"><ele>179.39999999999998</ele><time>2026-04-19T14:33:07.001Z</time></trkpt><trkpt lat="45.56745212965121" lon="8.994450644913037"><ele>179.6</ele><time>2026-04-19T14:33:08.001Z</time></trkpt><trkpt lat="45.567558589912394" lon="8.994486055660884"><ele>179.8</ele><time>2026-04-19T14:33:09.001Z</time></trkpt><trkpt lat="45.567667949169504" lon="8.994524813208917"><ele>180.0</ele><time>2026-04-19T14:33:10.001Z</time></trkpt><trkpt lat="45.5677761190881" lon="8.994562225300815"><ele>180.0</ele><time>2026-04-19T14:33:11.001Z</time></trkpt><trkpt lat="45.56788728391757" lon="8.994597199430222"><ele>180.0</ele><time>2026-04-19T14:33:12.001Z</time></trkpt><trkpt lat="45.5680002966079" lon="8.994636229394246"><ele>180.0</ele><time>2026-04-19T14:33:13.001Z</time></trkpt><trkpt lat="45.56811426124364" lon="8.994676157781301"><ele>180.0</ele><time>2026-04-19T14:33:14.001Z</time></trkpt><trkpt lat="45.56823295918552" lon="8.994716876885747"><ele>180.0</ele><time>2026-04-19T14:33:15.001Z</time></trkpt><trkpt lat="45.56835170493975" lon="8.994754681300423"><ele>180.0</ele><time>2026-04-19T14:33:16.001Z</time></trkpt><trkpt lat="45.56847191725912" lon="8.994793347656316"><ele>180.0</ele><time>2026-04-19T14:33:17.001Z</time></trkpt><trkpt lat="45.568589473459106" lon="8.994832848413898"><ele>180.0</ele><time>2026-04-19T14:33:18.001Z</time></trkpt><trkpt lat="45.568710223682615" lon="8.99487454690434"><ele>179.5</ele><time>2026-04-19T14:33:19.001Z</time></trkpt><trkpt lat="45.56882675441557" lon="8.994933278821001"><ele>179.0</ele><time>2026-04-19T14:33:20.001Z</time></trkpt><trkpt lat="45.56894725797661" lon="8.994994109561198"><ele>178.5</ele><time>2026-04-19T14:33:21.001Z</time></trkpt><trkpt lat="45.56906385982724" lon="8.995060227637655"><ele>178.0</ele><time>2026-04-19T14:33:22.001Z</time></trkpt><trkpt lat="45.569178361557015" lon="8.995132400901202"><ele>177.5</ele><time>2026-04-19T14:33:23.001Z</time></trkpt><trkpt lat="45.56929254152811" lon="8.995206977396549"><ele>177.0</ele><time>2026-04-19T14:33:24.001Z</time></trkpt><trkpt lat="45.56940884197189" lon="8.995290223675665"><ele>176.5</ele><time>2026-04-19T14:33:25.001Z</time></trkpt><trkpt lat="45.56951996993133" lon="8.995374091110484"><ele>176.0</ele><time>2026-04-19T14:33:26.001Z</time></trkpt><trkpt lat="45.56963010973602" lon="8.995463385853549"><ele>177.25</ele><time>2026-04-19T14:33:27.001Z</time></trkpt><trkpt lat="45.569737274187176" lon="8.995557665073962"><ele>178.5</ele><time>2026-04-19T14:33:28.001Z</time></trkpt><trkpt lat="45.569842842420655" lon="8.995659918126812"><ele>179.75</ele><time>2026-04-19T14:33:29.001Z</time></trkpt><trkpt lat="45.5699450777548" lon="8.995766484331137"><ele>181.0</ele><time>2026-04-19T14:33:30.001Z</time></trkpt><trkpt lat="45.57004816092719" lon="8.995878938403605"><ele>181.0</ele><time>2026-04-19T14:33:31.001Z</time></trkpt><trkpt lat="45.57014740871137" lon="8.995995422900997"><ele>181.0</ele><time>2026-04-19T14:33:32.001Z</time></trkpt><trkpt lat="45.57024712255524" lon="8.996117645426859"><ele>181.0</ele><time>2026-04-19T14:33:33.001Z</time></trkpt><trkpt lat="45.57033974368175" lon="8.996244535103138"><ele>181.0</ele><time>2026-04-19T14:33:34.001Z</time></trkpt><trkpt lat="45.57042904058584" lon="8.99637445744044"><ele>181.0</ele><time>2026-04-19T14:33:35.001Z</time></trkpt><trkpt lat="45.57051383268367" lon="8.99650407990636"><ele>181.0</ele><time>2026-04-19T14:33:36.001Z</time></trkpt><trkpt lat="45.57059570651376" lon="8.996636390911291"><ele>181.0</ele><time>2026-04-19T14:33:37.001Z</time></trkpt><trkpt lat="45.57067896871825" lon="8.996766740055866"><ele>181.0</ele><time>2026-04-19T14:33:38.001Z</time></trkpt><trkpt lat="45.57076149813162" lon="8.996902797537189"><ele>180.25</ele><time>2026-04-19T14:33:39.001Z</time></trkpt><trkpt lat="45.570844774095946" lon="8.997040447192537"><ele>179.5</ele><time>2026-04-19T14:33:40.001Z</time></trkpt><trkpt lat="45.570928336018895" lon="8.997181892228134"><ele>178.75</ele><time>2026-04-19T14:33:41.001Z</time></trkpt><trkpt lat="45.57101065997231" lon="8.997321159067859"><ele>178.0</ele><time>2026-04-19T14:33:42.001Z</time></trkpt><trkpt lat="45.57109313477779" lon="8.997461258914251"><ele>178.25</ele><time>2026-04-19T14:33:43.001Z</time></trkpt><trkpt lat="45.571172524727295" lon="8.997605581758007"><ele>178.5</ele><time>2026-04-19T14:33:44.001Z</time></trkpt><trkpt lat="45.57123968672729" lon="8.997743160652886"><ele>178.75</ele><time>2026-04-19T14:33:45.001Z</time></trkpt><trkpt lat="45.57129249465111" lon="8.997884735093768"><ele>179.0</ele><time>2026-04-19T14:33:46.001Z</time></trkpt><trkpt lat="45.57133924934837" lon="8.99801889929056"><ele>179.39999999999998</ele><time>2026-04-19T14:33:47.002Z</time></trkpt><trkpt lat="45.57137449342129" lon="8.998145723660828"><ele>179.8</ele><time>2026-04-19T14:33:48.002Z</time></trkpt><trkpt lat="45.57141004590425" lon="8.998280474275203"><ele>180.2</ele><time>2026-04-19T14:33:49.002Z</time></trkpt><trkpt lat="45.571445205271694" lon="8.99843030423531"><ele>180.60000000000002</ele><time>2026-04-19T14:33:50.002Z</time></trkpt><trkpt lat="45.57147247785272" lon="8.998601726297496"><ele>181.0</ele><time>2026-04-19T14:33:51.002Z</time></trkpt><trkpt lat="45.57149386098231" lon="8.998795126673532"><ele>181.0</ele><time>2026-04-19T14:33:52.002Z</time></trkpt><trkpt lat="45.57150816307119" lon="8.99899640740905"><ele>181.0</ele><time>2026-04-19T14:33:53.002Z</time></trkpt><trkpt lat="45.571518445395554" lon="8.999215195476436"><ele>181.0</ele><time>2026-04-19T14:33:54.002Z</time></trkpt><trkpt lat="45.571538660099414" lon="8.999651941233612"><ele>180.75</ele><time>2026-04-19T14:33:56.002Z</time></trkpt><trkpt lat="45.57155092572983" lon="8.99984258445318"><ele>180.5</ele><time>2026-04-19T14:33:57.002Z</time></trkpt><trkpt lat="45.57156012884542" lon="9.000031932964076"><ele>180.25</ele><time>2026-04-19T14:33:58.002Z</time></trkpt><trkpt lat="45.57157047834564" lon="9.000229851658583"><ele>180.0</ele><time>2026-04-19T14:33:59Z</time></trkpt><trkpt lat="45.57158344835549" lon="9.000424550059682"><ele>180.0</ele><time>2026-04-19T14:34:00Z</time></trkpt><trkpt lat="45.57159347564265" lon="9.000617841247392"><ele>180.0</ele><time>2026-04-19T14:34:01Z</time></trkpt><trkpt lat="45.57160631027485" lon="9.000797723518197"><ele>180.0</ele><time>2026-04-19T14:34:02Z</time></trkpt><trkpt lat="45.57161800676965" lon="9.000978181817317"><ele>180.0</ele><time>2026-04-19T14:34:03Z</time></trkpt><trkpt lat="45.571626728544956" lon="9.001151886362885"><ele>180.0</ele><time>2026-04-19T14:34:04Z</time></trkpt><trkpt lat="45.57163687288951" lon="9.001303986265533"><ele>180.0</ele><time>2026-04-19T14:34:05Z</time></trkpt><trkpt lat="45.5716460493791" lon="9.00142750246835"><ele>180.0</ele><time>2026-04-19T14:34:06Z</time></trkpt><trkpt lat="45.571643311429156" lon="9.001584616892398"><ele>180.0</ele><time>2026-04-19T14:34:08Z</time></trkpt><trkpt lat="45.57162047136103" lon="9.001675412748888"><ele>180.0</ele><time>2026-04-19T14:34:10Z</time></trkpt><trkpt lat="45.57147977640139" lon="9.00178014440197"><ele>180.0</ele><time>2026-04-19T14:34:12Z</time></trkpt><trkpt lat="45.57136048680285" lon="9.00183122055818"><ele>180.0</ele><time>2026-04-19T14:34:14Z</time></trkpt><trkpt lat="45.5712848543581" lon="9.001852183002494"><ele>180.0</ele><time>2026-04-19T14:34:15Z</time></trkpt><trkpt lat="45.57120450428446" lon="9.001885544848536"><ele>180.0</ele><time>2026-04-19T14:34:16Z</time></trkpt><trkpt lat="45.57112332902589" lon="9.001919325813137"><ele>180.0</ele><time>2026-04-19T14:34:17Z</time></trkpt><trkpt lat="45.57105516891331" lon="9.001945382251472"><ele>180.0</ele><time>2026-04-19T14:34:18Z</time></trkpt><trkpt lat="45.570945780172025" lon="9.002013033346485"><ele>180.0</ele><time>2026-04-19T14:34:20Z</time></trkpt><trkpt lat="45.57084333781411" lon="9.002065959683668"><ele>180.0</ele><time>2026-04-19T14:34:22Z</time></trkpt><trkpt lat="45.57075138522481" lon="9.002192297355835"><ele>180.0</ele><time>2026-04-19T14:34:24Z</time></trkpt><trkpt lat="45.570746043874095" lon="9.002324897172485"><ele>180.0</ele><time>2026-04-19T14:34:25Z</time></trkpt><trkpt lat="45.570737025243446" lon="9.0024400102828"><ele>180.0</ele><time>2026-04-19T14:34:26Z</time></trkpt><trkpt lat="45.57073655240221" lon="9.002539997378333"><ele>180.0</ele><time>2026-04-19T14:34:27Z</time></trkpt><trkpt lat="45.57070411788153" lon="9.002642274663078"><ele>180.0</ele><time>2026-04-19T14:34:28Z</time></trkpt><trkpt lat="45.57068463251154" lon="9.002755405972446"><ele>180.0</ele><time>2026-04-19T14:34:29Z</time></trkpt><trkpt lat="45.570666643413595" lon="9.002866182985718"><ele>180.0</ele><time>2026-04-19T14:34:30Z</time></trkpt><trkpt lat="45.570664859532165" lon="9.002978917108644"><ele>180.0</ele><time>2026-04-19T14:34:31Z</time></trkpt><trkpt lat="45.57064266540453" lon="9.00310382647497"><ele>180.0</ele><time>2026-04-19T14:34:32Z</time></trkpt><trkpt lat="45.57063119671908" lon="9.003216190437495"><ele>180.0</ele><time>2026-04-19T14:34:33Z</time></trkpt><trkpt lat="45.57062165277078" lon="9.003312118959471"><ele>180.0</ele><time>2026-04-19T14:34:34Z</time></trkpt><trkpt lat="45.570610969182745" lon="9.003410271636335"><ele>180.0</ele><time>2026-04-19T14:34:35Z</time></trkpt><trkpt lat="45.57058799861837" lon="9.003498926431792"><ele>180.0</ele><time>2026-04-19T14:34:36Z</time></trkpt><trkpt lat="45.57059145390747" lon="9.003595442616277"><ele>180.0</ele><time>2026-04-19T14:34:38Z</time></trkpt><trkpt lat="45.57057893810526" lon="9.003691559544066"><ele>180.0</ele><time>2026-04-19T14:34:42Z</time></trkpt><trkpt lat="45.570548011019895" lon="9.003809757958537"><ele>180.0</ele><time>2026-04-19T14:34:45Z</time></trkpt><trkpt lat="45.57053604664243" lon="9.003905153749454"><ele>180.0</ele><time>2026-04-19T14:34:46Z</time></trkpt><trkpt lat="45.570536978257614" lon="9.004011661345537"><ele>180.0</ele><time>2026-04-19T14:34:47Z</time></trkpt><trkpt lat="45.57052466211543" lon="9.004124531451353"><ele>180.0</ele><time>2026-04-19T14:34:48Z</time></trkpt><trkpt lat="45.57050500666185" lon="9.004247749210133"><ele>180.0</ele><time>2026-04-19T14:34:49Z</time></trkpt><trkpt lat="45.57047584006269" lon="9.004368299322815"><ele>180.0</ele><time>2026-04-19T14:34:50Z</time></trkpt><trkpt lat="45.57047225693409" lon="9.004496303526416"><ele>180.0</ele><time>2026-04-19T14:34:51Z</time></trkpt><trkpt lat="45.570451927979576" lon="9.004620519260943"><ele>180.2</ele><time>2026-04-19T14:34:52Z</time></trkpt><trkpt lat="45.57043327008641" lon="9.004711621736078"><ele>180.4</ele><time>2026-04-19T14:34:53.001Z</time></trkpt><trkpt lat="45.57042176457836" lon="9.004888589931591"><ele>180.60000000000002</ele><time>2026-04-19T14:34:55.001Z</time></trkpt><trkpt lat="45.57039445580178" lon="9.00499734865574"><ele>180.8</ele><time>2026-04-19T14:34:56.001Z</time></trkpt><trkpt lat="45.570374013033174" lon="9.005118798336929"><ele>181.0</ele><time>2026-04-19T14:34:57.001Z</time></trkpt><trkpt lat="45.570360320070314" lon="9.005251114349523"><ele>181.0</ele><time>2026-04-19T14:34:58.001Z</time></trkpt><trkpt lat="45.57035689291964" lon="9.005371757847893"><ele>181.0</ele><time>2026-04-19T14:34:59.001Z</time></trkpt><trkpt lat="45.570340416107285" lon="9.005491977979716"><ele>181.0</ele><time>2026-04-19T14:35:00.001Z</time></trkpt><trkpt lat="45.57032249817972" lon="9.005618249540113"><ele>181.0</ele><time>2026-04-19T14:35:01.001Z</time></trkpt><trkpt lat="45.57030807189976" lon="9.005749436967243"><ele>181.0</ele><time>2026-04-19T14:35:02.001Z</time></trkpt><trkpt lat="45.57027537993866" lon="9.005874534665692"><ele>181.0</ele><time>2026-04-19T14:35:03.001Z</time></trkpt><trkpt lat="45.570266754822676" lon="9.006017388336648"><ele>180.60000000000002</ele><time>2026-04-19T14:35:04.001Z</time></trkpt><trkpt lat="45.570240962897735" lon="9.006147736244877"><ele>180.2</ele><time>2026-04-19T14:35:05.001Z</time></trkpt><trkpt lat="45.570215032658204" lon="9.006275331322948"><ele>179.8</ele><time>2026-04-19T14:35:06.001Z</time></trkpt><trkpt lat="45.570169494863755" lon="9.00640024583173"><ele>179.39999999999998</ele><time>2026-04-19T14:35:07.001Z</time></trkpt><trkpt lat="45.57013388686068" lon="9.006531390302472"><ele>179.0</ele><time>2026-04-19T14:35:08.001Z</time></trkpt><trkpt lat="45.57008736228888" lon="9.006683450343594"><ele>178.25</ele><time>2026-04-19T14:35:09.001Z</time></trkpt><trkpt lat="45.570054751357254" lon="9.006840560909238"><ele>177.5</ele><time>2026-04-19T14:35:10.001Z</time></trkpt><trkpt lat="45.570007004044726" lon="9.006996323752286"><ele>176.75</ele><time>2026-04-19T14:35:11.001Z</time></trkpt><trkpt lat="45.56996723956362" lon="9.007155941420642"><ele>176.0</ele><time>2026-04-19T14:35:12.001Z</time></trkpt><trkpt lat="45.56992662569226" lon="9.007300222632097"><ele>176.0</ele><time>2026-04-19T14:35:13.001Z</time></trkpt><trkpt lat="45.56989054182241" lon="9.007432461146523"><ele>176.0</ele><time>2026-04-19T14:35:14.001Z</time></trkpt><trkpt lat="45.56987245161269" lon="9.007553834464842"><ele>176.0</ele><time>2026-04-19T14:35:15.001Z</time></trkpt><trkpt lat="45.5698595404799" lon="9.007678376945025"><ele>176.0</ele><time>2026-04-19T14:35:16.001Z</time></trkpt><trkpt lat="45.56985921350392" lon="9.007789727299652"><ele>176.0</ele><time>2026-04-19T14:35:17.001Z</time></trkpt><trkpt lat="45.569865871839745" lon="9.00790588050328"><ele>176.0</ele><time>2026-04-19T14:35:18.001Z</time></trkpt><trkpt lat="45.569889887474766" lon="9.008028012883845"><ele>176.33333333333331</ele><time>2026-04-19T14:35:19.001Z</time></trkpt><trkpt lat="45.56991322969772" lon="9.008147756282517"><ele>176.66666666666666</ele><time>2026-04-19T14:35:20.001Z</time></trkpt><trkpt lat="45.569924622207125" lon="9.008270751869617"><ele>177.0</ele><time>2026-04-19T14:35:21.001Z</time></trkpt><trkpt lat="45.56993570549794" lon="9.00838118806429"><ele>177.33333333333334</ele><time>2026-04-19T14:35:22.001Z</time></trkpt><trkpt lat="45.56993962120198" lon="9.008479730488455"><ele>177.66666666666669</ele><time>2026-04-19T14:35:23.001Z</time></trkpt><trkpt lat="45.569940178419905" lon="9.008645551327032"><ele>178.0</ele><time>2026-04-19T14:35:25.001Z</time></trkpt><trkpt lat="45.56994684012002" lon="9.008777646333899"><ele>178.25</ele><time>2026-04-19T14:35:27.001Z</time></trkpt><trkpt lat="45.56995225191556" lon="9.008872617348043"><ele>178.5</ele><time>2026-04-19T14:35:30.001Z</time></trkpt><trkpt lat="45.569968404911876" lon="9.008977960637825"><ele>178.75</ele><time>2026-04-19T14:35:33.001Z</time></trkpt><trkpt lat="45.570118676272" lon="9.008952649656855"><ele>179.0</ele><time>2026-04-19T14:35:38.001Z</time></trkpt><trkpt lat="45.5701122937538" lon="9.00867034047239"><ele>179.0</ele><time>2026-04-19T14:35:45.001Z</time></trkpt><trkpt lat="45.57010271272695" lon="9.00851692355764"><ele>179.0</ele><time>2026-04-19T14:35:47.001Z</time></trkpt><trkpt lat="45.57009662482891" lon="9.00841943623189"><ele>179.0</ele><time>2026-04-19T14:35:48.001Z</time></trkpt><trkpt lat="45.570089119568735" lon="9.008299252273316"><ele>179.0</ele><time>2026-04-19T14:35:49.001Z</time></trkpt><trkpt lat="45.57008108168601" lon="9.008170539265292"><ele>179.0</ele><time>2026-04-19T14:35:50.001Z</time></trkpt><trkpt lat="45.5699104193529" lon="9.008088782178353"><ele>178.83333333333331</ele><time>2026-04-19T14:35:51.001Z</time></trkpt><trkpt lat="45.56989395156252" lon="9.007983961733801"><ele>178.66666666666666</ele><time>2026-04-19T14:35:52.002Z</time></trkpt><trkpt lat="45.56987679911452" lon="9.007873000575787"><ele>178.5</ele><time>2026-04-19T14:35:53.002Z</time></trkpt><trkpt lat="45.569867824187526" lon="9.007760963354144"><ele>178.33333333333334</ele><time>2026-04-19T14:35:54.002Z</time></trkpt><trkpt lat="45.56987445999756" lon="9.007643463062376"><ele>178.16666666666669</ele><time>2026-04-19T14:35:55.002Z</time></trkpt><trkpt lat="45.569892116419254" lon="9.007523796154922"><ele>178.0</ele><time>2026-04-19T14:35:56.002Z</time></trkpt><trkpt lat="45.5699156329602" lon="9.007388430252643"><ele>177.60000000000002</ele><time>2026-04-19T14:35:57.002Z</time></trkpt><trkpt lat="45.56995659985121" lon="9.007272275713717"><ele>177.20000000000002</ele><time>2026-04-19T14:35:58.002Z</time></trkpt><trkpt lat="45.56997499532262" lon="9.007134319714545"><ele>176.8</ele><time>2026-04-19T14:35:59.002Z</time></trkpt><trkpt lat="45.57000859512136" lon="9.007013930420335"><ele>176.4</ele><time>2026-04-19T14:36:00.002Z</time></trkpt><trkpt lat="45.57004157194495" lon="9.006898368519828"><ele>176.0</ele><time>2026-04-19T14:36:01.002Z</time></trkpt><trkpt lat="45.57009051795445" lon="9.006790186869505"><ele>176.0</ele><time>2026-04-19T14:36:02.002Z</time></trkpt><trkpt lat="45.570112061473644" lon="9.006670097378613"><ele>176.0</ele><time>2026-04-19T14:36:03.002Z</time></trkpt><trkpt lat="45.57014969314418" lon="9.006558554187412"><ele>176.0</ele><time>2026-04-19T14:36:04.002Z</time></trkpt><trkpt lat="45.57018686850271" lon="9.00643055537618"><ele>176.0</ele><time>2026-04-19T14:36:05Z</time></trkpt><trkpt lat="45.57021934470894" lon="9.006295900986249"><ele>176.0</ele><time>2026-04-19T14:36:06Z</time></trkpt><trkpt lat="45.57024235593907" lon="9.006168928430576"><ele>176.60000000000002</ele><time>2026-04-19T14:36:07Z</time></trkpt><trkpt lat="45.57027398708712" lon="9.00602122489444"><ele>177.2</ele><time>2026-04-19T14:36:08Z</time></trkpt><trkpt lat="45.5702971512561" lon="9.005876292145729"><ele>177.8</ele><time>2026-04-19T14:36:09Z</time></trkpt><trkpt lat="45.57032268921998" lon="9.005713568450407"><ele>178.39999999999998</ele><time>2026-04-19T14:36:10Z</time></trkpt><trkpt lat="45.57034001054126" lon="9.005574497635042"><ele>179.0</ele><time>2026-04-19T14:36:11Z</time></trkpt><trkpt lat="45.57035287986619" lon="9.005457119035169"><ele>179.39999999999998</ele><time>2026-04-19T14:36:12Z</time></trkpt><trkpt lat="45.5703833042486" lon="9.00528616251819"><ele>179.8</ele><time>2026-04-19T14:36:14Z</time></trkpt><trkpt lat="45.57039473726026" lon="9.00518321084699"><ele>180.2</ele><time>2026-04-19T14:36:16Z</time></trkpt><trkpt lat="45.570406411382315" lon="9.005083004086288"><ele>180.60000000000002</ele><time>2026-04-19T14:36:19Z</time></trkpt><trkpt lat="45.57042989974562" lon="9.00494133552501"><ele>181.0</ele><time>2026-04-19T14:36:22Z</time></trkpt><trkpt lat="45.57045138421611" lon="9.004763381194412"><ele>181.0</ele><time>2026-04-19T14:36:24Z</time></trkpt><trkpt lat="45.57046399011121" lon="9.004675273568377"><ele>181.0</ele><time>2026-04-19T14:36:25Z</time></trkpt><trkpt lat="45.57047834949676" lon="9.004573445304954"><ele>181.0</ele><time>2026-04-19T14:36:26Z</time></trkpt><trkpt lat="45.570495641546124" lon="9.004462514216831"><ele>181.0</ele><time>2026-04-19T14:36:27Z</time></trkpt><trkpt lat="45.57050158260573" lon="9.004345172194066"><ele>181.0</ele><time>2026-04-19T14:36:28Z</time></trkpt><trkpt lat="45.57051202380757" lon="9.004223989296541"><ele>181.0</ele><time>2026-04-19T14:36:29Z</time></trkpt><trkpt lat="45.57053134584888" lon="9.004106483665526"><ele>180.83333333333334</ele><time>2026-04-19T14:36:30Z</time></trkpt><trkpt lat="45.57054615740919" lon="9.003986620161001"><ele>180.66666666666669</ele><time>2026-04-19T14:36:31Z</time></trkpt><trkpt lat="45.570560663008486" lon="9.0038640806323"><ele>180.5</ele><time>2026-04-19T14:36:32Z</time></trkpt><trkpt lat="45.57057490372731" lon="9.003762727529029"><ele>180.33333333333334</ele><time>2026-04-19T14:36:33Z</time></trkpt><trkpt lat="45.570584303682644" lon="9.00367166332178"><ele>180.16666666666666</ele><time>2026-04-19T14:36:34Z</time></trkpt><trkpt lat="45.57060304171337" lon="9.003519707966813"><ele>180.0</ele><time>2026-04-19T14:36:36Z</time></trkpt><trkpt lat="45.570626495560965" lon="9.00334322070599"><ele>180.0</ele><time>2026-04-19T14:36:38Z</time></trkpt><trkpt lat="45.57065369809229" lon="9.003231249222141"><ele>180.0</ele><time>2026-04-19T14:36:39Z</time></trkpt><trkpt lat="45.570658180376" lon="9.003096940799688"><ele>180.0</ele><time>2026-04-19T14:36:40Z</time></trkpt><trkpt lat="45.570677583434204" lon="9.002953358714997"><ele>180.0</ele><time>2026-04-19T14:36:41Z</time></trkpt><trkpt lat="45.570706838689446" lon="9.0028256282921"><ele>180.0</ele><time>2026-04-19T14:36:42Z</time></trkpt><trkpt lat="45.5707115396485" lon="9.002716569831616"><ele>180.0</ele><time>2026-04-19T14:36:43Z</time></trkpt><trkpt lat="45.5707434283063" lon="9.002613044124802"><ele>180.0</ele><time>2026-04-19T14:36:44Z</time></trkpt><trkpt lat="45.57075431528488" lon="9.002481951804796"><ele>180.0</ele><time>2026-04-19T14:36:45Z</time></trkpt><trkpt lat="45.570760715309746" lon="9.002388548595599"><ele>180.0</ele><time>2026-04-19T14:36:46Z</time></trkpt><trkpt lat="45.57077867138808" lon="9.002244368433441"><ele>180.0</ele><time>2026-04-19T14:36:48Z</time></trkpt><trkpt lat="45.57082330645491" lon="9.002133072933026"><ele>180.0</ele><time>2026-04-19T14:36:50Z</time></trkpt><trkpt lat="45.57086094546706" lon="9.001995627001735"><ele>180.0</ele><time>2026-04-19T14:36:52.001Z</time></trkpt><trkpt lat="45.5709212637933" lon="9.001889556477456"><ele>180.0</ele><time>2026-04-19T14:36:54.001Z</time></trkpt><trkpt lat="45.570928710384806" lon="9.00174817039696"><ele>180.0</ele><time>2026-04-19T14:36:56.001Z</time></trkpt><trkpt lat="45.570862052814775" lon="9.001600619606812"><ele>180.0</ele><time>2026-04-19T14:36:58.001Z</time></trkpt><trkpt lat="45.57085437799412" lon="9.001448840865983"><ele>180.0</ele><time>2026-04-19T14:37:00.001Z</time></trkpt><trkpt lat="45.57083459870229" lon="9.001306945650402"><ele>180.33333333333334</ele><time>2026-04-19T14:37:02.001Z</time></trkpt><trkpt lat="45.57078596957623" lon="9.001237044719996"><ele>180.66666666666666</ele><time>2026-04-19T14:37:04.001Z</time></trkpt><trkpt lat="45.57069696439784" lon="9.001250677118835"><ele>181.0</ele><time>2026-04-19T14:37:06.001Z</time></trkpt><trkpt lat="45.57057145555242" lon="9.001286458381475"><ele>181.33333333333331</ele><time>2026-04-19T14:37:08.001Z</time></trkpt><trkpt lat="45.57050344146073" lon="9.001306672724684"><ele>181.66666666666666</ele><time>2026-04-19T14:37:09.001Z</time></trkpt><trkpt lat="45.5704355572266" lon="9.001327306619682"><ele>182.0</ele><time>2026-04-19T14:37:10.001Z</time></trkpt><trkpt lat="45.570369200206216" lon="9.001356001256841"><ele>181.5</ele><time>2026-04-19T14:37:11.001Z</time></trkpt><trkpt lat="45.5702986308265" lon="9.001372718562605"><ele>181.0</ele><time>2026-04-19T14:37:12.001Z</time></trkpt><trkpt lat="45.570222078931735" lon="9.001393190326404"><ele>180.5</ele><time>2026-04-19T14:37:13.001Z</time></trkpt><trkpt lat="45.57014493250259" lon="9.001415705489848"><ele>180.0</ele><time>2026-04-19T14:37:14.001Z</time></trkpt><trkpt lat="45.570072057825115" lon="9.001437414542766"><ele>179.5</ele><time>2026-04-19T14:37:15.001Z</time></trkpt><trkpt lat="45.569993435699175" lon="9.001459681388948"><ele>179.0</ele><time>2026-04-19T14:37:16.001Z</time></trkpt><trkpt lat="45.56991154022525" lon="9.001480136338786"><ele>179.0</ele><time>2026-04-19T14:37:17.001Z</time></trkpt><trkpt lat="45.569824381151605" lon="9.001501890971152"><ele>179.0</ele><time>2026-04-19T14:37:18.001Z</time></trkpt><trkpt lat="45.569734847394464" lon="9.001523536490037"><ele>179.0</ele><time>2026-04-19T14:37:19.001Z</time></trkpt><trkpt lat="45.56966622238" lon="9.00153866411889"><ele>179.0</ele><time>2026-04-19T14:37:20.001Z</time></trkpt><trkpt lat="45.56958756092862" lon="9.00155125139897"><ele>179.0</ele><time>2026-04-19T14:37:21.001Z</time></trkpt><trkpt lat="45.569507781206866" lon="9.00156421463982"><ele>179.0</ele><time>2026-04-19T14:37:22.001Z</time></trkpt><trkpt lat="45.569431449872894" lon="9.00157196351932"><ele>178.71428571428572</ele><time>2026-04-19T14:37:23.001Z</time></trkpt><trkpt lat="45.56935466118353" lon="9.001573958357492"><ele>178.42857142857144</ele><time>2026-04-19T14:37:24.001Z</time></trkpt><trkpt lat="45.569280653859515" lon="9.00157361313577"><ele>178.14285714285717</ele><time>2026-04-19T14:37:25.001Z</time></trkpt><trkpt lat="45.569207165279806" lon="9.001565843469075"><ele>177.85714285714286</ele><time>2026-04-19T14:37:26.001Z</time></trkpt><trkpt lat="45.569131666339025" lon="9.001559312532297"><ele>177.57142857142856</ele><time>2026-04-19T14:37:27.001Z</time></trkpt><trkpt lat="45.56905535425688" lon="9.001559677368153"><ele>177.2857142857143</ele><time>2026-04-19T14:37:28.001Z</time></trkpt><trkpt lat="45.568991101445754" lon="9.001562676145436"><ele>177.0</ele><time>2026-04-19T14:37:29.001Z</time></trkpt><trkpt lat="45.56892833959991" lon="9.001577097310504"><ele>177.0</ele><time>2026-04-19T14:37:30.001Z</time></trkpt><trkpt lat="45.56881975069189" lon="9.001623931382547"><ele>177.0</ele><time>2026-04-19T14:37:32.001Z</time></trkpt><trkpt lat="45.568699033251725" lon="9.001685314592905"><ele>177.0</ele><time>2026-04-19T14:37:34.001Z</time></trkpt><trkpt lat="45.568633933460454" lon="9.001721895088643"><ele>177.0</ele><time>2026-04-19T14:37:35.001Z</time></trkpt><trkpt lat="45.568564011007375" lon="9.001767272996862"><ele>177.0</ele><time>2026-04-19T14:37:36.001Z</time></trkpt><trkpt lat="45.56850645093572" lon="9.001804220742791"><ele>177.16666666666666</ele><time>2026-04-19T14:37:37.001Z</time></trkpt><trkpt lat="45.56843974965512" lon="9.00185429651452"><ele>177.33333333333334</ele><time>2026-04-19T14:37:38.001Z</time></trkpt><trkpt lat="45.568377046996595" lon="9.001894680450523"><ele>177.5</ele><time>2026-04-19T14:37:39.001Z</time></trkpt><trkpt lat="45.568255426864745" lon="9.001940766054368"><ele>177.66666666666669</ele><time>2026-04-19T14:37:41.001Z</time></trkpt><trkpt lat="45.568195249598425" lon="9.001971075002004"><ele>177.83333333333334</ele><time>2026-04-19T14:37:42.001Z</time></trkpt><trkpt lat="45.568135653451165" lon="9.002001043217017"><ele>178.0</ele><time>2026-04-19T14:37:43.001Z</time></trkpt><trkpt lat="45.568072267968475" lon="9.002030127957449"><ele>178.0</ele><time>2026-04-19T14:37:44.001Z</time></trkpt><trkpt lat="45.56801151499233" lon="9.002059368666716"><ele>178.0</ele><time>2026-04-19T14:37:45.001Z</time></trkpt><trkpt lat="45.56795023551765" lon="9.002092274738667"><ele>178.0</ele><time>2026-04-19T14:37:46.001Z</time></trkpt><trkpt lat="45.567848176173385" lon="9.0021540994216"><ele>178.0</ele><time>2026-04-19T14:37:48.001Z</time></trkpt><trkpt lat="45.567782154255575" lon="9.00221723451741"><ele>178.0</ele><time>2026-04-19T14:37:50.002Z</time></trkpt><trkpt lat="45.567711831602914" lon="9.002208303686505"><ele>178.0</ele><time>2026-04-19T14:38:26Z</time></trkpt><trkpt lat="45.567676962170445" lon="9.002102833350808"><ele>178.2</ele><time>2026-04-19T14:38:28Z</time></trkpt><trkpt lat="45.567667024371524" lon="9.001984190319737"><ele>178.4</ele><time>2026-04-19T14:38:30Z</time></trkpt><trkpt lat="45.567614331271486" lon="9.001899771264867"><ele>178.6</ele><time>2026-04-19T14:38:32Z</time></trkpt><trkpt lat="45.56757846791114" lon="9.001762302810015"><ele>178.79999999999998</ele><time>2026-04-19T14:41:04.001Z</time></trkpt><trkpt lat="45.56751959471861" lon="9.001614529757225"><ele>179.0</ele><time>2026-04-19T14:41:06.001Z</time></trkpt><trkpt lat="45.56748595000789" lon="9.001525298058215"><ele>179.0</ele><time>2026-04-19T14:41:07.001Z</time></trkpt><trkpt lat="45.56744152732102" lon="9.001397738648677"><ele>179.0</ele><time>2026-04-19T14:41:09.001Z</time></trkpt><trkpt lat="45.567392385114125" lon="9.001281666180214"><ele>179.0</ele><time>2026-04-19T14:41:11.001Z</time></trkpt><trkpt lat="45.56736318652679" lon="9.00117027486481"><ele>179.0</ele><time>2026-04-19T14:41:13.001Z</time></trkpt><trkpt lat="45.56732803758343" lon="9.001063318395522"><ele>179.0</ele><time>2026-04-19T14:41:15.001Z</time></trkpt><trkpt lat="45.56730319872626" lon="9.00096228307593"><ele>179.0</ele><time>2026-04-19T14:41:18.001Z</time></trkpt><trkpt lat="45.56734526526962" lon="9.001086643971064"><ele>179.0</ele><time>2026-04-19T14:41:59.002Z</time></trkpt><trkpt lat="45.56737723094409" lon="9.001203064666441"><ele>179.0</ele><time>2026-04-19T14:42:01.002Z</time></trkpt><trkpt lat="45.567181915903085" lon="9.001388838729191"><ele>179.0</ele><time>2026-04-19T14:42:03.002Z</time></trkpt><trkpt lat="45.56707967942965" lon="9.00143493539272"><ele>179.0</ele><time>2026-04-19T14:42:05.002Z</time></trkpt><trkpt lat="45.56697077787398" lon="9.001475054283848"><ele>179.0</ele><time>2026-04-19T14:42:07.002Z</time></trkpt><trkpt lat="45.566897017282116" lon="9.00151135776126"><ele>179.0</ele><time>2026-04-19T14:42:09.002Z</time></trkpt><trkpt lat="45.566790658399505" lon="9.001562013520562"><ele>179.0</ele><time>2026-04-19T14:42:35.001Z</time></trkpt><trkpt lat="45.56668273107379" lon="9.001616264522946"><ele>179.0</ele><time>2026-04-19T14:42:37.001Z</time></trkpt><trkpt lat="45.56656876383101" lon="9.001674194171704"><ele>179.0</ele><time>2026-04-19T14:42:39.001Z</time></trkpt><trkpt lat="45.5664684500437" lon="9.001725139666409"><ele>179.0</ele><time>2026-04-19T14:42:41.001Z</time></trkpt><trkpt lat="45.56634434974158" lon="9.001788472339706"><ele>179.0</ele><time>2026-04-19T14:42:43.001Z</time></trkpt><trkpt lat="45.56626382100249" lon="9.001827138567497"><ele>179.0</ele><time>2026-04-19T14:42:44.001Z</time></trkpt><trkpt lat="45.566174794610056" lon="9.001870546039617"><ele>179.0</ele><time>2026-04-19T14:42:45.001Z</time></trkpt><trkpt lat="45.56607939500087" lon="9.001916754697813"><ele>179.0</ele><time>2026-04-19T14:42:46.001Z</time></trkpt><trkpt lat="45.5659945738539" lon="9.001956415253572"><ele>178.0</ele><time>2026-04-19T14:42:47.001Z</time></trkpt><trkpt lat="45.56590682184083" lon="9.001998025675208"><ele>177.0</ele><time>2026-04-19T14:42:48.001Z</time></trkpt><trkpt lat="45.56581659098615" lon="9.0020407123086"><ele>176.0</ele><time>2026-04-19T14:42:49.001Z</time></trkpt><trkpt lat="45.56571968522193" lon="9.002089162380871"><ele>175.0</ele><time>2026-04-19T14:42:50.001Z</time></trkpt><trkpt lat="45.56560948491509" lon="9.002144087847952"><ele>174.0</ele><time>2026-04-19T14:42:51.001Z</time></trkpt><trkpt lat="45.56545356424967" lon="9.002221281907799"><ele>174.33333333333334</ele><time>2026-04-19T14:42:52.001Z</time></trkpt><trkpt lat="45.56525580624146" lon="9.002315506038814"><ele>174.66666666666669</ele><time>2026-04-19T14:42:53.001Z</time></trkpt><trkpt lat="45.56510481627669" lon="9.002385517999043"><ele>175.0</ele><time>2026-04-19T14:42:54.001Z</time></trkpt><trkpt lat="45.564996465564924" lon="9.002437310953203"><ele>175.0</ele><time>2026-04-19T14:42:55.001Z</time></trkpt><trkpt lat="45.56489747969638" lon="9.002482112381188"><ele>175.0</ele><time>2026-04-19T14:42:56.001Z</time></trkpt><trkpt lat="45.56479818871506" lon="9.002529195165321"><ele>175.0</ele><time>2026-04-19T14:42:57.001Z</time></trkpt><trkpt lat="45.56468785277551" lon="9.002585785970158"><ele>175.0</ele><time>2026-04-19T14:42:58.001Z</time></trkpt><trkpt lat="45.56457449081565" lon="9.002643665872162"><ele>175.0</ele><time>2026-04-19T14:42:59.001Z</time></trkpt><trkpt lat="45.564478363462584" lon="9.002690688655393"><ele>175.33333333333334</ele><time>2026-04-19T14:43:00.001Z</time></trkpt><trkpt lat="45.564388310477746" lon="9.002732629930312"><ele>175.66666666666669</ele><time>2026-04-19T14:43:01.001Z</time></trkpt><trkpt lat="45.56429698970734" lon="9.002776269293467"><ele>176.0</ele><time>2026-04-19T14:43:02.001Z</time></trkpt><trkpt lat="45.56421764697115" lon="9.002813183564868"><ele>176.33333333333334</ele><time>2026-04-19T14:43:03.001Z</time></trkpt><trkpt lat="45.564152418157306" lon="9.002849742077178"><ele>176.66666666666666</ele><time>2026-04-19T14:43:04.001Z</time></trkpt><trkpt lat="45.564087042332105" lon="9.002888918905258"><ele>177.0</ele><time>2026-04-19T14:43:05.001Z</time></trkpt><trkpt lat="45.56402092600336" lon="9.002922703344247"><ele>177.0</ele><time>2026-04-19T14:43:06.001Z</time></trkpt><trkpt lat="45.56395103976163" lon="9.002954179098667"><ele>177.0</ele><time>2026-04-19T14:43:07.001Z</time></trkpt><trkpt lat="45.56388335077772" lon="9.002982958914911"><ele>177.0</ele><time>2026-04-19T14:43:08.001Z</time></trkpt><trkpt lat="45.563777664656875" lon="9.00303086896383"><ele>177.0</ele><time>2026-04-19T14:43:10.001Z</time></trkpt><trkpt lat="45.56368223889042" lon="9.00304965192821"><ele>177.0</ele><time>2026-04-19T14:43:12.001Z</time></trkpt><trkpt lat="45.56361873747888" lon="9.00307709131399"><ele>177.0</ele><time>2026-04-19T14:43:15.001Z</time></trkpt><trkpt lat="45.563666385996" lon="9.003148254890887"><ele>177.0</ele><time>2026-04-19T14:43:19.001Z</time></trkpt><trkpt lat="45.56372681612932" lon="9.003083436519612"><ele>177.0</ele><time>2026-04-19T14:43:22.001Z</time></trkpt><trkpt lat="45.56378549815256" lon="9.003018739417401"><ele>177.0</ele><time>2026-04-19T14:43:25.001Z</time></trkpt><trkpt lat="45.56385843929913" lon="9.002980460357955"><ele>177.0</ele><time>2026-04-19T14:43:28.001Z</time></trkpt><trkpt lat="45.56392126290215" lon="9.002950613323176"><ele>177.0</ele><time>2026-04-19T14:43:30.001Z</time></trkpt><trkpt lat="45.564003894273654" lon="9.00292055070861"><ele>177.0</ele><time>2026-04-19T14:43:32.001Z</time></trkpt><trkpt lat="45.56415210997117" lon="9.002834973974515"><ele>177.0</ele><time>2026-04-19T14:43:34.001Z</time></trkpt><trkpt lat="45.564276589576174" lon="9.0027753265371"><ele>177.0</ele><time>2026-04-19T14:43:35.001Z</time></trkpt><trkpt lat="45.56438006951859" lon="9.00272178670854"><ele>177.0</ele><time>2026-04-19T14:43:36.001Z</time></trkpt><trkpt lat="45.56448728201378" lon="9.00267639407276"><ele>177.0</ele><time>2026-04-19T14:43:37.001Z</time></trkpt><trkpt lat="45.56461307221227" lon="9.00261575909248"><ele>176.6</ele><time>2026-04-19T14:43:38.001Z</time></trkpt><trkpt lat="45.56472752413302" lon="9.00255851664451"><ele>176.2</ele><time>2026-04-19T14:43:39.001Z</time></trkpt><trkpt lat="45.56481813044969" lon="9.002512311327925"><ele>175.8</ele><time>2026-04-19T14:43:40.001Z</time></trkpt><trkpt lat="45.56491357720049" lon="9.002471395765152"><ele>175.4</ele><time>2026-04-19T14:43:41.001Z</time></trkpt><trkpt lat="45.56501760474463" lon="9.002423074523405"><ele>175.0</ele><time>2026-04-19T14:43:42.001Z</time></trkpt><trkpt lat="45.56512390255314" lon="9.002370266166134"><ele>175.0</ele><time>2026-04-19T14:43:43.001Z</time></trkpt><trkpt lat="45.56523193707967" lon="9.00231978680018"><ele>175.0</ele><time>2026-04-19T14:43:44.001Z</time></trkpt><trkpt lat="45.5653323839436" lon="9.002276505120278"><ele>175.0</ele><time>2026-04-19T14:43:45.001Z</time></trkpt><trkpt lat="45.56541550518518" lon="9.002249548621048"><ele>175.0</ele><time>2026-04-19T14:43:46.001Z</time></trkpt><trkpt lat="45.56548167987342" lon="9.002223689957262"><ele>175.0</ele><time>2026-04-19T14:43:47.001Z</time></trkpt><trkpt lat="45.5655860123589" lon="9.002174261040258"><ele>175.0</ele><time>2026-04-19T14:43:49.001Z</time></trkpt><trkpt lat="45.56566927149358" lon="9.002137497288802"><ele>175.0</ele><time>2026-04-19T14:43:51.001Z</time></trkpt><trkpt lat="45.56559187863548" lon="9.002125844599707"><ele>175.0</ele><time>2026-04-19T14:44:07.001Z</time></trkpt><trkpt lat="45.56553107054919" lon="9.002180926097394"><ele>175.0</ele><time>2026-04-19T14:44:08.001Z</time></trkpt><trkpt lat="45.56543394169274" lon="9.00224168144446"><ele>175.0</ele><time>2026-04-19T14:44:09.001Z</time></trkpt><trkpt lat="45.5653483757256" lon="9.002279270891092"><ele>175.0</ele><time>2026-04-19T14:44:10.001Z</time></trkpt><trkpt lat="45.565278634889246" lon="9.002316037549246"><ele>175.0</ele><time>2026-04-19T14:44:11.001Z</time></trkpt><trkpt lat="45.56517947463653" lon="9.002359318251846"><ele>175.0</ele><time>2026-04-19T14:44:13.001Z</time></trkpt><trkpt lat="45.56511664520342" lon="9.002342077606148"><ele>175.0</ele><time>2026-04-19T14:44:15.001Z</time></trkpt><trkpt lat="45.56506672757668" lon="9.002256011110704"><ele>175.0</ele><time>2026-04-19T14:44:17.001Z</time></trkpt><trkpt lat="45.565037088286154" lon="9.00208496070752"><ele>175.0</ele><time>2026-04-19T14:44:19.001Z</time></trkpt><trkpt lat="45.565016597142325" lon="9.00196682437849"><ele>175.0</ele><time>2026-04-19T14:44:20.001Z</time></trkpt><trkpt lat="45.56498735960279" lon="9.001840150793274"><ele>175.0</ele><time>2026-04-19T14:44:21.001Z</time></trkpt><trkpt lat="45.56496374516689" lon="9.001736657727763"><ele>175.0</ele><time>2026-04-19T14:44:22.001Z</time></trkpt><trkpt lat="45.56492974637404" lon="9.001566081238405"><ele>175.0</ele><time>2026-04-19T14:44:24.001Z</time></trkpt><trkpt lat="45.5649144068338" lon="9.001468920353096"><ele>175.0</ele><time>2026-04-19T14:44:25.001Z</time></trkpt><trkpt lat="45.564900971137206" lon="9.00137587205494"><ele>175.0</ele><time>2026-04-19T14:44:26.001Z</time></trkpt><trkpt lat="45.5648695673449" lon="9.001244450088434"><ele>175.6</ele><time>2026-04-19T14:44:28.001Z</time></trkpt><trkpt lat="45.5647923325232" lon="9.001182459127268"><ele>176.2</ele><time>2026-04-19T14:44:30Z</time></trkpt><trkpt lat="45.56468942347123" lon="9.001167949996303"><ele>176.8</ele><time>2026-04-19T14:44:32Z</time></trkpt><trkpt lat="45.56461960242544" lon="9.001165200437235"><ele>177.4</ele><time>2026-04-19T14:44:33Z</time></trkpt><trkpt lat="45.564518717378974" lon="9.001161099880159"><ele>178.0</ele><time>2026-04-19T14:44:35Z</time></trkpt><trkpt lat="45.56442770562789" lon="9.001182981863586"><ele>178.16666666666669</ele><time>2026-04-19T14:44:37Z</time></trkpt><trkpt lat="45.56431606212825" lon="9.001246712180347"><ele>178.33333333333334</ele><time>2026-04-19T14:44:39Z</time></trkpt><trkpt lat="45.564254630855324" lon="9.001278145983468"><ele>178.5</ele><time>2026-04-19T14:44:40Z</time></trkpt><trkpt lat="45.564190549007705" lon="9.001309991296353"><ele>178.66666666666666</ele><time>2026-04-19T14:44:41Z</time></trkpt><trkpt lat="45.564126895486936" lon="9.001342960861102"><ele>178.83333333333331</ele><time>2026-04-19T14:44:42Z</time></trkpt><trkpt lat="45.56406426397005" lon="9.001376226176118"><ele>179.0</ele><time>2026-04-19T14:44:43Z</time></trkpt><trkpt lat="45.563952142829216" lon="9.001432017807671"><ele>179.0</ele><time>2026-04-19T14:44:45Z</time></trkpt><trkpt lat="45.56388729976387" lon="9.00146487478253"><ele>179.0</ele><time>2026-04-19T14:44:47Z</time></trkpt><trkpt lat="45.56381468557549" lon="9.001496363868544"><ele>179.0</ele><time>2026-04-19T14:44:49Z</time></trkpt><trkpt lat="45.563745536417116" lon="9.001524280361606"><ele>179.0</ele><time>2026-04-19T14:45:04Z</time></trkpt><trkpt lat="45.56365354239131" lon="9.001551517827847"><ele>179.0</ele><time>2026-04-19T14:45:06Z</time></trkpt><trkpt lat="45.563545466759265" lon="9.001624526852162"><ele>179.0</ele><time>2026-04-19T14:45:08Z</time></trkpt><trkpt lat="45.56344803667185" lon="9.001669867269326"><ele>179.00000000000003</ele><time>2026-04-19T14:45:10Z</time></trkpt><trkpt lat="45.563372722905136" lon="9.001713916269273"><ele>179.0</ele><time>2026-04-19T14:45:12Z</time></trkpt><trkpt lat="45.56330123093571" lon="9.001747499236664"><ele>179.0</ele><time>2026-04-19T14:45:14Z</time></trkpt><trkpt lat="45.56324080486896" lon="9.00177709129654"><ele>179.0</ele><time>2026-04-19T14:45:16Z</time></trkpt><trkpt lat="45.56316790347454" lon="9.001815571592175"><ele>179.0</ele><time>2026-04-19T14:45:19Z</time></trkpt><trkpt lat="45.56309968691797" lon="9.001853908756521"><ele>179.00000000000003</ele><time>2026-04-19T14:45:22Z</time></trkpt><trkpt lat="45.56316157588224" lon="9.001797913379843"><ele>179.0</ele><time>2026-04-19T14:46:10.001Z</time></trkpt><trkpt lat="45.563352263648824" lon="9.001741141114135"><ele>179.0</ele><time>2026-04-19T14:46:12.001Z</time></trkpt><trkpt lat="45.56342865789762" lon="9.00170005263173"><ele>179.0</ele><time>2026-04-19T14:46:13.001Z</time></trkpt><trkpt lat="45.56349712644791" lon="9.001665589470413"><ele>179.0</ele><time>2026-04-19T14:46:14.001Z</time></trkpt><trkpt lat="45.5635710078636" lon="9.001632901179779"><ele>179.0</ele><time>2026-04-19T14:46:15.001Z</time></trkpt><trkpt lat="45.56363962208154" lon="9.001596441300855"><ele>179.0</ele><time>2026-04-19T14:46:16.001Z</time></trkpt><trkpt lat="45.56371643906035" lon="9.001558891959021"><ele>179.0</ele><time>2026-04-19T14:46:17.001Z</time></trkpt><trkpt lat="45.5637919757442" lon="9.001521897432625"><ele>179.0</ele><time>2026-04-19T14:46:18.001Z</time></trkpt><trkpt lat="45.56386896957076" lon="9.001484477209289"><ele>179.0</ele><time>2026-04-19T14:46:19.001Z</time></trkpt><trkpt lat="45.5639487502689" lon="9.001447751937805"><ele>179.0</ele><time>2026-04-19T14:46:20.001Z</time></trkpt><trkpt lat="45.56402761224037" lon="9.001406855820852"><ele>179.0</ele><time>2026-04-19T14:46:21.001Z</time></trkpt><trkpt lat="45.56410586335722" lon="9.001370261362132"><ele>179.0</ele><time>2026-04-19T14:46:22.001Z</time></trkpt><trkpt lat="45.564184171884925" lon="9.00132916927462"><ele>179.0</ele><time>2026-04-19T14:46:23.001Z</time></trkpt><trkpt lat="45.56425020158965" lon="9.001293984206978"><ele>179.0</ele><time>2026-04-19T14:46:24.001Z</time></trkpt><trkpt lat="45.56437445626795" lon="9.001240313493861"><ele>179.0</ele><time>2026-04-19T14:46:26.001Z</time></trkpt><trkpt lat="45.56448679538967" lon="9.001186289288864"><ele>179.0</ele><time>2026-04-19T14:46:28.001Z</time></trkpt><trkpt lat="45.56455182558598" lon="9.001161708816324"><ele>179.0</ele><time>2026-04-19T14:46:30.001Z</time></trkpt><trkpt lat="45.56461400849443" lon="9.001123036314889"><ele>179.0</ele><time>2026-04-19T14:46:57Z</time></trkpt><trkpt lat="45.564692485746406" lon="9.001085739986642"><ele>178.79999999999998</ele><time>2026-04-19T14:46:59Z</time></trkpt><trkpt lat="45.564770237124186" lon="9.001049341750447"><ele>178.6</ele><time>2026-04-19T14:47:01Z</time></trkpt><trkpt lat="45.56483702356771" lon="9.001044572975902"><ele>178.4</ele><time>2026-04-19T14:47:04Z</time></trkpt><trkpt lat="45.56490067813631" lon="9.001327664411793"><ele>178.2</ele><time>2026-04-19T14:47:05Z</time></trkpt><trkpt lat="45.5649165309236" lon="9.001435550455298"><ele>178.0</ele><time>2026-04-19T14:47:06Z</time></trkpt><trkpt lat="45.564941162275076" lon="9.001564048401312"><ele>177.5</ele><time>2026-04-19T14:47:07Z</time></trkpt><trkpt lat="45.564971491980735" lon="9.001727149517006"><ele>177.0</ele><time>2026-04-19T14:47:08Z</time></trkpt><trkpt lat="45.56499840234802" lon="9.001875154112199"><ele>176.5</ele><time>2026-04-19T14:47:09Z</time></trkpt><trkpt lat="45.56502075892864" lon="9.00198087638238"><ele>176.0</ele><time>2026-04-19T14:47:10Z</time></trkpt><trkpt lat="45.565039184898524" lon="9.002077169420414"><ele>175.5</ele><time>2026-04-19T14:47:11Z</time></trkpt><trkpt lat="45.565058833952826" lon="9.00217579856185"><ele>175.0</ele><time>2026-04-19T14:47:12Z</time></trkpt><trkpt lat="45.5651084045871" lon="9.002315152203423"><ele>175.0</ele><time>2026-04-19T14:47:14Z</time></trkpt><trkpt lat="45.565185084794436" lon="9.00235753198575"><ele>175.0</ele><time>2026-04-19T14:47:16Z</time></trkpt><trkpt lat="45.5653155561947" lon="9.002295167097394"><ele>175.0</ele><time>2026-04-19T14:47:18Z</time></trkpt><trkpt lat="45.56542513571804" lon="9.002252600221935"><ele>175.0</ele><time>2026-04-19T14:47:19Z</time></trkpt><trkpt lat="45.5655735467862" lon="9.002180470805847"><ele>174.66666666666669</ele><time>2026-04-19T14:47:20Z</time></trkpt><trkpt lat="45.565751978451175" lon="9.002092273430724"><ele>174.33333333333334</ele><time>2026-04-19T14:47:21Z</time></trkpt><trkpt lat="45.565941858780114" lon="9.001996639637174"><ele>174.0</ele><time>2026-04-19T14:47:22Z</time></trkpt><trkpt lat="45.56609327131399" lon="9.001923620237534"><ele>174.75</ele><time>2026-04-19T14:47:23Z</time></trkpt><trkpt lat="45.56622288706429" lon="9.001863162566229"><ele>175.5</ele><time>2026-04-19T14:47:24Z</time></trkpt><trkpt lat="45.566354228426356" lon="9.001803784288375"><ele>176.25</ele><time>2026-04-19T14:47:25Z</time></trkpt><trkpt lat="45.566507695670445" lon="9.001727282677063"><ele>177.0</ele><time>2026-04-19T14:47:26Z</time></trkpt><trkpt lat="45.566650721321885" lon="9.001655115024315"><ele>177.0</ele><time>2026-04-19T14:47:27Z</time></trkpt><trkpt lat="45.56677466208981" lon="9.001592458967453"><ele>177.0</ele><time>2026-04-19T14:47:28Z</time></trkpt><trkpt lat="45.56687463699598" lon="9.001534419171772"><ele>177.0</ele><time>2026-04-19T14:47:29Z</time></trkpt><trkpt lat="45.56696904231878" lon="9.001490513185978"><ele>177.0</ele><time>2026-04-19T14:47:30Z</time></trkpt><trkpt lat="45.56705532283067" lon="9.00145008257022"><ele>177.0</ele><time>2026-04-19T14:47:31Z</time></trkpt><trkpt lat="45.567123187872404" lon="9.001417017191951"><ele>177.39999999999998</ele><time>2026-04-19T14:47:32Z</time></trkpt><trkpt lat="45.56721941983774" lon="9.001328301352228"><ele>177.79999999999998</ele><time>2026-04-19T14:47:34Z</time></trkpt><trkpt lat="45.56724765879669" lon="9.00118650179447"><ele>178.2</ele><time>2026-04-19T14:47:36Z</time></trkpt><trkpt lat="45.56725000550325" lon="9.001011161902232"><ele>178.6</ele><time>2026-04-19T14:47:38Z</time></trkpt><trkpt lat="45.56724313134577" lon="9.00091494706619"><ele>179.0</ele><time>2026-04-19T14:47:40Z</time></trkpt><trkpt lat="45.567312503871655" lon="9.000963026831709"><ele>179.0</ele><time>2026-04-19T14:47:58Z</time></trkpt><trkpt lat="45.56734096488144" lon="9.001045256577415"><ele>179.0</ele><time>2026-04-19T14:48:00Z</time></trkpt><trkpt lat="45.56734931033078" lon="9.001149883708377"><ele>179.0</ele><time>2026-04-19T14:48:01Z</time></trkpt><trkpt lat="45.56738030381647" lon="9.001315511469212"><ele>179.0</ele><time>2026-04-19T14:48:03Z</time></trkpt><trkpt lat="45.56741122040107" lon="9.00141062223549"><ele>179.0</ele><time>2026-04-19T14:48:04.001Z</time></trkpt><trkpt lat="45.567455877110156" lon="9.001504116953866"><ele>179.0</ele><time>2026-04-19T14:48:05.001Z</time></trkpt><trkpt lat="45.5674904141009" lon="9.00160256569947"><ele>179.16666666666666</ele><time>2026-04-19T14:48:06.001Z</time></trkpt><trkpt lat="45.56753131131185" lon="9.001698870197599"><ele>179.33333333333331</ele><time>2026-04-19T14:48:07.001Z</time></trkpt><trkpt lat="45.567574477901566" lon="9.001801016580936"><ele>179.5</ele><time>2026-04-19T14:48:08.001Z</time></trkpt><trkpt lat="45.56761417242316" lon="9.001903933636228"><ele>179.66666666666666</ele><time>2026-04-19T14:48:09.001Z</time></trkpt><trkpt lat="45.567652786365876" lon="9.0020053300197"><ele>179.83333333333334</ele><time>2026-04-19T14:48:10.001Z</time></trkpt><trkpt lat="45.56770509817333" lon="9.00214128838741"><ele>180.0</ele><time>2026-04-19T14:48:12.001Z</time></trkpt><trkpt lat="45.567727679199514" lon="9.002244732531029"><ele>179.6</ele><time>2026-04-19T14:48:14.001Z</time></trkpt><trkpt lat="45.56789528639533" lon="9.002158162044024"><ele>179.2</ele><time>2026-04-19T14:48:18.001Z</time></trkpt><trkpt lat="45.567962574495915" lon="9.002111413804444"><ele>178.8</ele><time>2026-04-19T14:48:19.001Z</time></trkpt><trkpt lat="45.568021957591164" lon="9.002080156465967"><ele>178.4</ele><time>2026-04-19T14:48:20.001Z</time></trkpt><trkpt lat="45.56808902776588" lon="9.002048349352423"><ele>178.0</ele><time>2026-04-19T14:48:21.001Z</time></trkpt><trkpt lat="45.568168798709756" lon="9.002012852314904"><ele>178.0</ele><time>2026-04-19T14:48:22.001Z</time></trkpt><trkpt lat="45.56824207230913" lon="9.001978754368928"><ele>178.0</ele><time>2026-04-19T14:48:23.001Z</time></trkpt><trkpt lat="45.568309318360875" lon="9.0019472692249"><ele>178.0</ele><time>2026-04-19T14:48:24.001Z</time></trkpt><trkpt lat="45.568376157383554" lon="9.001908150644953"><ele>178.0</ele><time>2026-04-19T14:48:25.001Z</time></trkpt><trkpt lat="45.56844609601204" lon="9.001871307941359"><ele>178.0</ele><time>2026-04-19T14:48:26.001Z</time></trkpt><trkpt lat="45.56851377151612" lon="9.0018290296191"><ele>178.0</ele><time>2026-04-19T14:48:27.001Z</time></trkpt><trkpt lat="45.56858542013381" lon="9.00177434767083"><ele>178.0</ele><time>2026-04-19T14:48:28.001Z</time></trkpt><trkpt lat="45.568651493477645" lon="9.00173257218886"><ele>178.0</ele><time>2026-04-19T14:48:29.001Z</time></trkpt><trkpt lat="45.568723699247045" lon="9.001693325776719"><ele>178.0</ele><time>2026-04-19T14:48:30.001Z</time></trkpt><trkpt lat="45.56879956652385" lon="9.001654054768098"><ele>178.0</ele><time>2026-04-19T14:48:31.001Z</time></trkpt><trkpt lat="45.56886550969974" lon="9.001623045769403"><ele>178.0</ele><time>2026-04-19T14:48:32.001Z</time></trkpt><trkpt lat="45.568935323740114" lon="9.001598801343166"><ele>178.0</ele><time>2026-04-19T14:48:33.001Z</time></trkpt><trkpt lat="45.56901436799609" lon="9.00158094882071"><ele>177.83333333333334</ele><time>2026-04-19T14:48:34.001Z</time></trkpt><trkpt lat="45.56908859014348" lon="9.001573129380729"><ele>177.66666666666669</ele><time>2026-04-19T14:48:35.001Z</time></trkpt><trkpt lat="45.5691554499604" lon="9.001578707748923"><ele>177.5</ele><time>2026-04-19T14:48:36.001Z</time></trkpt><trkpt lat="45.56923113330215" lon="9.001585238722447"><ele>177.33333333333334</ele><time>2026-04-19T14:48:37.001Z</time></trkpt><trkpt lat="45.569311575096705" lon="9.001592395266899"><ele>177.16666666666666</ele><time>2026-04-19T14:48:38.001Z</time></trkpt><trkpt lat="45.56940350992855" lon="9.00159987626732"><ele>177.0</ele><time>2026-04-19T14:48:39.001Z</time></trkpt><trkpt lat="45.56949280180676" lon="9.001591902732509"><ele>177.33333333333334</ele><time>2026-04-19T14:48:40.001Z</time></trkpt><trkpt lat="45.569580342267024" lon="9.001577874677654"><ele>177.66666666666666</ele><time>2026-04-19T14:48:40.999Z</time></trkpt><trkpt lat="45.56966922496987" lon="9.001561298017851"><ele>178.0</ele><time>2026-04-19T14:48:41.999Z</time></trkpt><trkpt lat="45.569757656472" lon="9.001543419631277"><ele>178.33333333333331</ele><time>2026-04-19T14:48:42.999Z</time></trkpt><trkpt lat="45.569841187324" lon="9.001524211457632"><ele>178.66666666666666</ele><time>2026-04-19T14:48:43.999Z</time></trkpt><trkpt lat="45.56992729784944" lon="9.001463658139361"><ele>179.0</ele><time>2026-04-19T14:48:45.999Z</time></trkpt><trkpt lat="45.56999691355982" lon="9.001447279742717"><ele>179.0</ele><time>2026-04-19T14:48:46.999Z</time></trkpt><trkpt lat="45.57010029547613" lon="9.001431065443269"><ele>179.0</ele><time>2026-04-19T14:48:47.999Z</time></trkpt><trkpt lat="45.57018129392622" lon="9.001407071974977"><ele>179.0</ele><time>2026-04-19T14:48:48.999Z</time></trkpt><trkpt lat="45.570252001716284" lon="9.001387214535606"><ele>179.0</ele><time>2026-04-19T14:48:49.999Z</time></trkpt><trkpt lat="45.57032515592135" lon="9.001366328941852"><ele>179.0</ele><time>2026-04-19T14:48:50.999Z</time></trkpt><trkpt lat="45.57040208382904" lon="9.001343740773555"><ele>179.0</ele><time>2026-04-19T14:48:51.999Z</time></trkpt><trkpt lat="45.57048075693705" lon="9.001319154119486"><ele>179.5</ele><time>2026-04-19T14:48:52.999Z</time></trkpt><trkpt lat="45.57055970478951" lon="9.001296630084434"><ele>180.0</ele><time>2026-04-19T14:48:53.999Z</time></trkpt><trkpt lat="45.57063348484417" lon="9.00127699326416"><ele>180.5</ele><time>2026-04-19T14:48:54.999Z</time></trkpt><trkpt lat="45.57072888340839" lon="9.001257196511007"><ele>181.0</ele><time>2026-04-19T14:48:57Z</time></trkpt><trkpt lat="45.57080114709817" lon="9.001291912729835"><ele>181.5</ele><time>2026-04-19T14:48:59Z</time></trkpt><trkpt lat="45.57083265202292" lon="9.001396288861585"><ele>182.0</ele><time>2026-04-19T14:49:01Z</time></trkpt><trkpt lat="45.570837733182294" lon="9.001580587411398"><ele>181.6</ele><time>2026-04-19T14:49:03Z</time></trkpt><trkpt lat="45.570836274663776" lon="9.001719855718344"><ele>181.2</ele><time>2026-04-19T14:49:05Z</time></trkpt><trkpt lat="45.5708263427316" lon="9.001838406534032"><ele>180.8</ele><time>2026-04-19T14:49:07Z</time></trkpt><trkpt lat="45.570807637545656" lon="9.001946033637454"><ele>180.4</ele><time>2026-04-19T14:49:09Z</time></trkpt><trkpt lat="45.570786680895445" lon="9.002070634399088"><ele>180.0</ele><time>2026-04-19T14:49:12Z</time></trkpt><trkpt lat="45.57075778434936" lon="9.002243041080776"><ele>180.0</ele><time>2026-04-19T14:49:14Z</time></trkpt><trkpt lat="45.57075033826999" lon="9.002346979791735"><ele>180.0</ele><time>2026-04-19T14:49:15Z</time></trkpt><trkpt lat="45.57073745055256" lon="9.002448202897815"><ele>180.0</ele><time>2026-04-19T14:49:16Z</time></trkpt><trkpt lat="45.57072100579782" lon="9.002550058247115"><ele>180.0</ele><time>2026-04-19T14:49:17Z</time></trkpt><trkpt lat="45.57069928600801" lon="9.002657724491856"><ele>180.0</ele><time>2026-04-19T14:49:18Z</time></trkpt><trkpt lat="45.570673566041314" lon="9.00278024185447"><ele>180.0</ele><time>2026-04-19T14:49:19Z</time></trkpt><trkpt lat="45.57064866980406" lon="9.002913124866788"><ele>180.0</ele><time>2026-04-19T14:49:20Z</time></trkpt><trkpt lat="45.57062741815594" lon="9.00306049497915"><ele>180.0</ele><time>2026-04-19T14:49:21Z</time></trkpt><trkpt lat="45.570610729333026" lon="9.003199445187866"><ele>180.0</ele><time>2026-04-19T14:49:22Z</time></trkpt><trkpt lat="45.57059916500853" lon="9.00333760007716"><ele>180.0</ele><time>2026-04-19T14:49:23Z</time></trkpt><trkpt lat="45.57058521237653" lon="9.003467462757419"><ele>180.0</ele><time>2026-04-19T14:49:24Z</time></trkpt><trkpt lat="45.570575708616225" lon="9.00361162603195"><ele>180.0</ele><time>2026-04-19T14:49:25Z</time></trkpt><trkpt lat="45.570555416730954" lon="9.00375825750686"><ele>180.0</ele><time>2026-04-19T14:49:26Z</time></trkpt><trkpt lat="45.57054134349695" lon="9.003913012471761"><ele>180.0</ele><time>2026-04-19T14:49:27Z</time></trkpt><trkpt lat="45.57052238813741" lon="9.004065999681693"><ele>180.0</ele><time>2026-04-19T14:49:28Z</time></trkpt><trkpt lat="45.57050614546724" lon="9.004212549346143"><ele>180.0</ele><time>2026-04-19T14:49:29Z</time></trkpt><trkpt lat="45.57047674534005" lon="9.004354086211698"><ele>180.16666666666666</ele><time>2026-04-19T14:49:30Z</time></trkpt><trkpt lat="45.57045659466984" lon="9.004488517364827"><ele>180.33333333333334</ele><time>2026-04-19T14:49:31Z</time></trkpt><trkpt lat="45.57044801322676" lon="9.00462441960976"><ele>180.5</ele><time>2026-04-19T14:49:32Z</time></trkpt><trkpt lat="45.570444249775676" lon="9.004736444573048"><ele>180.66666666666669</ele><time>2026-04-19T14:49:33Z</time></trkpt><trkpt lat="45.57043403261052" lon="9.00483867034281"><ele>180.83333333333334</ele><time>2026-04-19T14:49:34Z</time></trkpt><trkpt lat="45.57041474303628" lon="9.004943667208185"><ele>181.0</ele><time>2026-04-19T14:49:35Z</time></trkpt><trkpt lat="45.57038523601311" lon="9.00506199249047"><ele>181.0</ele><time>2026-04-19T14:49:36Z</time></trkpt><trkpt lat="45.57036859383844" lon="9.005182269759977"><ele>181.0</ele><time>2026-04-19T14:49:37Z</time></trkpt><trkpt lat="45.57035860102121" lon="9.005309770180103"><ele>181.0</ele><time>2026-04-19T14:49:38Z</time></trkpt><trkpt lat="45.57033267853912" lon="9.00545027322853"><ele>181.0</ele><time>2026-04-19T14:49:39Z</time></trkpt><trkpt lat="45.57031724624589" lon="9.005586799629224"><ele>181.0</ele><time>2026-04-19T14:49:40Z</time></trkpt><trkpt lat="45.57029955135614" lon="9.005724411425374"><ele>180.5</ele><time>2026-04-19T14:49:41Z</time></trkpt><trkpt lat="45.57025281701439" lon="9.005886883188127"><ele>180.0</ele><time>2026-04-19T14:49:42Z</time></trkpt><trkpt lat="45.570224522064784" lon="9.006093527915443"><ele>179.5</ele><time>2026-04-19T14:49:43Z</time></trkpt><trkpt lat="45.570200098976834" lon="9.006287845644945"><ele>179.0</ele><time>2026-04-19T14:49:44Z</time></trkpt><trkpt lat="45.5701685793643" lon="9.006447350744041"><ele>179.0</ele><time>2026-04-19T14:49:45Z</time></trkpt><trkpt lat="45.57012550390269" lon="9.006588063206381"><ele>179.0</ele><time>2026-04-19T14:49:46Z</time></trkpt><trkpt lat="45.57006206302641" lon="9.006764552624833"><ele>179.0</ele><time>2026-04-19T14:49:47Z</time></trkpt><trkpt lat="45.570003597108546" lon="9.006981782330964"><ele>179.0</ele><time>2026-04-19T14:49:48Z</time></trkpt><trkpt lat="45.56996705636885" lon="9.007146996492095"><ele>178.79999999999998</ele><time>2026-04-19T14:49:49Z</time></trkpt><trkpt lat="45.56992734510981" lon="9.007295329020225"><ele>178.6</ele><time>2026-04-19T14:49:50Z</time></trkpt><trkpt lat="45.569887406330075" lon="9.007447734580374"><ele>178.4</ele><time>2026-04-19T14:49:51Z</time></trkpt><trkpt lat="45.5698615631548" lon="9.007583781998418"><ele>178.2</ele><time>2026-04-19T14:49:52Z</time></trkpt><trkpt lat="45.56984942201511" lon="9.00771473836247"><ele>178.0</ele><time>2026-04-19T14:49:53Z</time></trkpt><trkpt lat="45.569847511333684" lon="9.007851839736741"><ele>178.0</ele><time>2026-04-19T14:49:54Z</time></trkpt><trkpt lat="45.56986626446613" lon="9.007982300918558"><ele>178.0</ele><time>2026-04-19T14:49:55Z</time></trkpt><trkpt lat="45.56990131723972" lon="9.008129644567674"><ele>178.0</ele><time>2026-04-19T14:49:56Z</time></trkpt><trkpt lat="45.56992524510449" lon="9.008295523592377"><ele>178.0</ele><time>2026-04-19T14:49:57Z</time></trkpt><trkpt lat="45.5699346485987" lon="9.008441537723359"><ele>178.0</ele><time>2026-04-19T14:49:58Z</time></trkpt><trkpt lat="45.569939631525244" lon="9.00858890411179"><ele>178.0</ele><time>2026-04-19T14:49:59.001Z</time></trkpt><trkpt lat="45.56994996117258" lon="9.00880673406474"><ele>178.0</ele><time>2026-04-19T14:50:00.001Z</time></trkpt><trkpt lat="45.56996421611121" lon="9.008981253129333"><ele>178.0</ele><time>2026-04-19T14:50:01.001Z</time></trkpt><trkpt lat="45.569971884446225" lon="9.00913935557279"><ele>178.0</ele><time>2026-04-19T14:50:02.001Z</time></trkpt><trkpt lat="45.56997737717397" lon="9.009265666882879"><ele>178.0</ele><time>2026-04-19T14:50:03.001Z</time></trkpt><trkpt lat="45.56998189109303" lon="9.009370619960464"><ele>178.0</ele><time>2026-04-19T14:50:04.001Z</time></trkpt><trkpt lat="45.56998798718955" lon="9.009532987220027"><ele>178.0</ele><time>2026-04-19T14:50:06.001Z</time></trkpt><trkpt lat="45.569995736958695" lon="9.009631766632051"><ele>178.0</ele><time>2026-04-19T14:50:08.001Z</time></trkpt><trkpt lat="45.56997787636482" lon="9.009747975503284"><ele>178.0</ele><time>2026-04-19T14:50:10.001Z</time></trkpt><trkpt lat="45.5698683433805" lon="9.009806798179294"><ele>178.0</ele><time>2026-04-19T14:50:12.001Z</time></trkpt><trkpt lat="45.56978422700574" lon="9.009806796723593"><ele>178.0</ele><time>2026-04-19T14:50:13.001Z</time></trkpt><trkpt lat="45.56967739658122" lon="9.009817986221165"><ele>178.0</ele><time>2026-04-19T14:50:14.001Z</time></trkpt><trkpt lat="45.56957831007934" lon="9.009831457470852"><ele>178.0</ele><time>2026-04-19T14:50:15.001Z</time></trkpt><trkpt lat="45.569485700557834" lon="9.009837978192444"><ele>178.0</ele><time>2026-04-19T14:50:16.001Z</time></trkpt><trkpt lat="45.5693863065815" lon="9.009844912517718"><ele>178.4</ele><time>2026-04-19T14:50:17.001Z</time></trkpt><trkpt lat="45.56928977578779" lon="9.009848044352035"><ele>178.8</ele><time>2026-04-19T14:50:18.001Z</time></trkpt><trkpt lat="45.56920208490795" lon="9.009851803906482"><ele>179.2</ele><time>2026-04-19T14:50:19.001Z</time></trkpt><trkpt lat="45.56910942960101" lon="9.009850224710739"><ele>179.6</ele><time>2026-04-19T14:50:20.001Z</time></trkpt><trkpt lat="45.5690078776356" lon="9.009833970229373"><ele>180.0</ele><time>2026-04-19T14:50:21.001Z</time></trkpt><trkpt lat="45.56889789900109" lon="9.009808975426633"><ele>180.0</ele><time>2026-04-19T14:50:22.001Z</time></trkpt><trkpt lat="45.56877941747314" lon="9.009817776997627"><ele>180.0</ele><time>2026-04-19T14:50:23.001Z</time></trkpt><trkpt lat="45.568657386279575" lon="9.009864004255078"><ele>180.0</ele><time>2026-04-19T14:50:24.001Z</time></trkpt><trkpt lat="45.568522558264206" lon="9.009909261112705"><ele>180.0</ele><time>2026-04-19T14:50:25.001Z</time></trkpt><trkpt lat="45.5683628330368" lon="9.009933658175934"><ele>180.33333333333334</ele><time>2026-04-19T14:50:26.001Z</time></trkpt><trkpt lat="45.56817607277653" lon="9.009950192607148"><ele>180.66666666666669</ele><time>2026-04-19T14:50:27.001Z</time></trkpt><trkpt lat="45.567993442945394" lon="9.009970682710069"><ele>181.0</ele><time>2026-04-19T14:50:28.001Z</time></trkpt><trkpt lat="45.5678250771085" lon="9.0099892293648"><ele>180.5</ele><time>2026-04-19T14:50:29.001Z</time></trkpt><trkpt lat="45.5676748863244" lon="9.010007074366477"><ele>180.0</ele><time>2026-04-19T14:50:30.001Z</time></trkpt><trkpt lat="45.56753692267883" lon="9.010021622542402"><ele>179.5</ele><time>2026-04-19T14:50:31.001Z</time></trkpt><trkpt lat="45.56740276167906" lon="9.010033354287142"><ele>179.0</ele><time>2026-04-19T14:50:32.001Z</time></trkpt><trkpt lat="45.56727367835933" lon="9.010040758146966"><ele>179.0</ele><time>2026-04-19T14:50:33.001Z</time></trkpt><trkpt lat="45.567149794452746" lon="9.010056043306072"><ele>179.0</ele><time>2026-04-19T14:50:34.001Z</time></trkpt><trkpt lat="45.567029823947614" lon="9.010071485656141"><ele>179.0</ele><time>2026-04-19T14:50:35.001Z</time></trkpt><trkpt lat="45.566922077528424" lon="9.010085158315231"><ele>179.0</ele><time>2026-04-19T14:50:36.001Z</time></trkpt><trkpt lat="45.56681988888419" lon="9.010092711830914"><ele>179.2</ele><time>2026-04-19T14:50:37.001Z</time></trkpt><trkpt lat="45.56672763955461" lon="9.01010006105504"><ele>179.39999999999998</ele><time>2026-04-19T14:50:38.001Z</time></trkpt><trkpt lat="45.566636150593204" lon="9.010104505968034"><ele>179.6</ele><time>2026-04-19T14:50:39.001Z</time></trkpt><trkpt lat="45.566539399023625" lon="9.01011381898876"><ele>179.8</ele><time>2026-04-19T14:50:40.001Z</time></trkpt><trkpt lat="45.56643444530469" lon="9.01012624653173"><ele>180.0</ele><time>2026-04-19T14:50:41.001Z</time></trkpt><trkpt lat="45.566322862663235" lon="9.01013857780305"><ele>180.0</ele><time>2026-04-19T14:50:42.001Z</time></trkpt><trkpt lat="45.56619952854949" lon="9.01015560829963"><ele>180.0</ele><time>2026-04-19T14:50:43.001Z</time></trkpt><trkpt lat="45.56608314538128" lon="9.010172802378206"><ele>180.0</ele><time>2026-04-19T14:50:44.001Z</time></trkpt><trkpt lat="45.56596324003854" lon="9.010191594567527"><ele>180.0</ele><time>2026-04-19T14:50:45.001Z</time></trkpt><trkpt lat="45.56584021637654" lon="9.01020130950662"><ele>179.5</ele><time>2026-04-19T14:50:46.001Z</time></trkpt><trkpt lat="45.56571651822627" lon="9.010196794756583"><ele>179.0</ele><time>2026-04-19T14:50:46.999Z</time></trkpt><trkpt lat="45.56558781500715" lon="9.010176436354625"><ele>178.5</ele><time>2026-04-19T14:50:47.999Z</time></trkpt><trkpt lat="45.565456776445174" lon="9.010154360128572"><ele>178.0</ele><time>2026-04-19T14:50:48.999Z</time></trkpt><trkpt lat="45.56532290524054" lon="9.010144153836812"><ele>177.0</ele><time>2026-04-19T14:50:49.999Z</time></trkpt><trkpt lat="45.56518639825119" lon="9.010158203983567"><ele>176.0</ele><time>2026-04-19T14:50:50.999Z</time></trkpt><trkpt lat="45.565047350212794" lon="9.010192111349443"><ele>175.0</ele><time>2026-04-19T14:50:51.999Z</time></trkpt><trkpt lat="45.56490950277665" lon="9.01023770491185"><ele>174.0</ele><time>2026-04-19T14:50:52.999Z</time></trkpt><trkpt lat="45.564786693518194" lon="9.010282809708807"><ele>174.0</ele><time>2026-04-19T14:50:53.999Z</time></trkpt><trkpt lat="45.56464644921262" lon="9.010339432004661"><ele>174.0</ele><time>2026-04-19T14:50:54.999Z</time></trkpt><trkpt lat="45.56451474848713" lon="9.010390320822555"><ele>174.0</ele><time>2026-04-19T14:50:55.999Z</time></trkpt><trkpt lat="45.56436009726683" lon="9.010454239865604"><ele>174.0</ele><time>2026-04-19T14:50:56.999Z</time></trkpt><trkpt lat="45.564218031840525" lon="9.010512222785685"><ele>174.0</ele><time>2026-04-19T14:50:57.999Z</time></trkpt><trkpt lat="45.56407196101892" lon="9.010570088567833"><ele>174.0</ele><time>2026-04-19T14:50:58.999Z</time></trkpt><trkpt lat="45.56392729878661" lon="9.010623627284158"><ele>174.0</ele><time>2026-04-19T14:50:59.999Z</time></trkpt><trkpt lat="45.56378762410519" lon="9.010680882532565"><ele>174.0</ele><time>2026-04-19T14:51:00.999Z</time></trkpt><trkpt lat="45.563649633918295" lon="9.01072963044664"><ele>174.75</ele><time>2026-04-19T14:51:01.999Z</time></trkpt><trkpt lat="45.563507608062984" lon="9.010784478445403"><ele>175.5</ele><time>2026-04-19T14:51:03Z</time></trkpt><trkpt lat="45.56337121377389" lon="9.010837634463394"><ele>176.25</ele><time>2026-04-19T14:51:04Z</time></trkpt><trkpt lat="45.56323293986437" lon="9.010892129273744"><ele>177.0</ele><time>2026-04-19T14:51:05Z</time></trkpt><trkpt lat="45.563105319503144" lon="9.010957801217174"><ele>176.75</ele><time>2026-04-19T14:51:06Z</time></trkpt><trkpt lat="45.56298359661644" lon="9.011026287894728"><ele>176.5</ele><time>2026-04-19T14:51:07Z</time></trkpt><trkpt lat="45.56286240384707" lon="9.011119357872941"><ele>176.25</ele><time>2026-04-19T14:51:08Z</time></trkpt><trkpt lat="45.56275206453893" lon="9.011241051128371"><ele>176.0</ele><time>2026-04-19T14:51:09Z</time></trkpt><trkpt lat="45.56264464945293" lon="9.011372876860266"><ele>176.0</ele><time>2026-04-19T14:51:10Z</time></trkpt><trkpt lat="45.56256401333606" lon="9.011537765627095"><ele>176.0</ele><time>2026-04-19T14:51:11Z</time></trkpt><trkpt lat="45.56247968425649" lon="9.011709549319118"><ele>176.0</ele><time>2026-04-19T14:51:12Z</time></trkpt><trkpt lat="45.56240486767388" lon="9.011910902353957"><ele>176.0</ele><time>2026-04-19T14:51:13Z</time></trkpt><trkpt lat="45.56235141568689" lon="9.012116862154475"><ele>176.33333333333331</ele><time>2026-04-19T14:51:14Z</time></trkpt><trkpt lat="45.56232267905977" lon="9.012327945859449"><ele>176.66666666666666</ele><time>2026-04-19T14:51:15Z</time></trkpt><trkpt lat="45.56230514566006" lon="9.01256290522031"><ele>177.0</ele><time>2026-04-19T14:51:16Z</time></trkpt><trkpt lat="45.56229170078328" lon="9.012800859806562"><ele>176.66666666666666</ele><time>2026-04-19T14:51:17Z</time></trkpt><trkpt lat="45.562279839585756" lon="9.01303638204344"><ele>176.33333333333331</ele><time>2026-04-19T14:51:18Z</time></trkpt><trkpt lat="45.56226650856179" lon="9.013268204357253"><ele>176.0</ele><time>2026-04-19T14:51:19Z</time></trkpt><trkpt lat="45.562249892301246" lon="9.013507031493328"><ele>176.0</ele><time>2026-04-19T14:51:20Z</time></trkpt><trkpt lat="45.56223217909493" lon="9.013741534848212"><ele>176.0</ele><time>2026-04-19T14:51:21Z</time></trkpt><trkpt lat="45.56222082341421" lon="9.013957505075432"><ele>176.0</ele><time>2026-04-19T14:51:22Z</time></trkpt><trkpt lat="45.5622058853923" lon="9.014166104919084"><ele>176.25</ele><time>2026-04-19T14:51:23Z</time></trkpt><trkpt lat="45.56218869823064" lon="9.014364301724589"><ele>176.5</ele><time>2026-04-19T14:51:24Z</time></trkpt><trkpt lat="45.56217344549881" lon="9.014559562869744"><ele>176.75</ele><time>2026-04-19T14:51:25Z</time></trkpt><trkpt lat="45.5621673955776" lon="9.014742903052475"><ele>177.0</ele><time>2026-04-19T14:51:26Z</time></trkpt><trkpt lat="45.56215420535444" lon="9.014930362280053"><ele>176.75</ele><time>2026-04-19T14:51:27Z</time></trkpt><trkpt lat="45.56214525480347" lon="9.015120539032585"><ele>176.5</ele><time>2026-04-19T14:51:28Z</time></trkpt><trkpt lat="45.562122341742885" lon="9.015304428151063"><ele>176.25</ele><time>2026-04-19T14:51:29Z</time></trkpt><trkpt lat="45.562106871469744" lon="9.015503735148775"><ele>176.0</ele><time>2026-04-19T14:51:30Z</time></trkpt><trkpt lat="45.56209035481827" lon="9.015707210582047"><ele>175.75</ele><time>2026-04-19T14:51:31Z</time></trkpt><trkpt lat="45.5620778585501" lon="9.015915586748086"><ele>175.5</ele><time>2026-04-19T14:51:32Z</time></trkpt><trkpt lat="45.56206412759617" lon="9.016128762116143"><ele>175.25</ele><time>2026-04-19T14:51:33Z</time></trkpt><trkpt lat="45.56205165407842" lon="9.016322906854992"><ele>175.0</ele><time>2026-04-19T14:51:34Z</time></trkpt><trkpt lat="45.5620401697082" lon="9.016507021087492"><ele>174.8</ele><time>2026-04-19T14:51:35Z</time></trkpt><trkpt lat="45.5620314278587" lon="9.016680035768157"><ele>174.6</ele><time>2026-04-19T14:51:36Z</time></trkpt><trkpt lat="45.56202001616919" lon="9.016841839754122"><ele>174.39999999999998</ele><time>2026-04-19T14:51:37Z</time></trkpt><trkpt lat="45.56201245291358" lon="9.016990924337323"><ele>174.2</ele><time>2026-04-19T14:51:38Z</time></trkpt><trkpt lat="45.562002730616854" lon="9.017129981302718"><ele>174.0</ele><time>2026-04-19T14:51:39Z</time></trkpt><trkpt lat="45.5619926268077" lon="9.017260373969188"><ele>174.0</ele><time>2026-04-19T14:51:40Z</time></trkpt><trkpt lat="45.56198435818787" lon="9.017393439027114"><ele>174.0</ele><time>2026-04-19T14:51:41Z</time></trkpt><trkpt lat="45.56197244265579" lon="9.017526160216464"><ele>174.0</ele><time>2026-04-19T14:51:42Z</time></trkpt><trkpt lat="45.56195624046187" lon="9.01766221511014"><ele>174.0</ele><time>2026-04-19T14:51:43Z</time></trkpt><trkpt lat="45.56192464417259" lon="9.017800661607307"><ele>174.0</ele><time>2026-04-19T14:51:44Z</time></trkpt><trkpt lat="45.561877053330576" lon="9.017928087337442"><ele>174.0</ele><time>2026-04-19T14:51:45Z</time></trkpt><trkpt lat="45.56182353323278" lon="9.018030950348452"><ele>174.0</ele><time>2026-04-19T14:51:46Z</time></trkpt><trkpt lat="45.56179058945024" lon="9.018132871119489"><ele>174.0</ele><time>2026-04-19T14:51:47Z</time></trkpt><trkpt lat="45.56177882282033" lon="9.018252027477713"><ele>174.0</ele><time>2026-04-19T14:51:48Z</time></trkpt><trkpt lat="45.561764664275756" lon="9.018379658523221"><ele>174.0</ele><time>2026-04-19T14:51:49Z</time></trkpt><trkpt lat="45.56174805513723" lon="9.018519759801393"><ele>174.0</ele><time>2026-04-19T14:51:50Z</time></trkpt><trkpt lat="45.5617458145758" lon="9.018668267528037"><ele>174.0</ele><time>2026-04-19T14:51:51Z</time></trkpt><trkpt lat="45.56177246457549" lon="9.018828429070588"><ele>174.0</ele><time>2026-04-19T14:51:52Z</time></trkpt><trkpt lat="45.561837910299744" lon="9.018977232038205"><ele>174.0</ele><time>2026-04-19T14:51:53Z</time></trkpt><trkpt lat="45.561852886511396" lon="9.019171594530588"><ele>174.0</ele><time>2026-04-19T14:51:54Z</time></trkpt><trkpt lat="45.5618496845044" lon="9.019369224850035"><ele>174.0</ele><time>2026-04-19T14:51:55.001Z</time></trkpt><trkpt lat="45.56183326772526" lon="9.019563034784705"><ele>174.0</ele><time>2026-04-19T14:51:56.001Z</time></trkpt><trkpt lat="45.56181534637169" lon="9.019741207023566"><ele>174.0</ele><time>2026-04-19T14:51:57.001Z</time></trkpt><trkpt lat="45.56180531915758" lon="9.019909282481098"><ele>174.0</ele><time>2026-04-19T14:51:58.001Z</time></trkpt><trkpt lat="45.561794691644906" lon="9.020071981100847"><ele>173.5</ele><time>2026-04-19T14:51:59.001Z</time></trkpt><trkpt lat="45.561786314019635" lon="9.020258883061699"><ele>173.0</ele><time>2026-04-19T14:52:00.001Z</time></trkpt><trkpt lat="45.561772264453644" lon="9.020458450078195"><ele>172.5</ele><time>2026-04-19T14:52:01.001Z</time></trkpt><trkpt lat="45.56175942467264" lon="9.020663102791515"><ele>172.0</ele><time>2026-04-19T14:52:02.001Z</time></trkpt><trkpt lat="45.561744211240025" lon="9.020878691806185"><ele>172.0</ele><time>2026-04-19T14:52:03.001Z</time></trkpt><trkpt lat="45.561729109324396" lon="9.02110094455239"><ele>172.0</ele><time>2026-04-19T14:52:04.001Z</time></trkpt><trkpt lat="45.56170992362548" lon="9.021331758272327"><ele>172.0</ele><time>2026-04-19T14:52:05.001Z</time></trkpt><trkpt lat="45.56170063338503" lon="9.021563447285056"><ele>171.25</ele><time>2026-04-19T14:52:06.001Z</time></trkpt><trkpt lat="45.561690220731556" lon="9.02175773014865"><ele>170.5</ele><time>2026-04-19T14:52:07.001Z</time></trkpt><trkpt lat="45.561676406924754" lon="9.021941198381954"><ele>169.75</ele><time>2026-04-19T14:52:08.001Z</time></trkpt><trkpt lat="45.561661412403254" lon="9.02211935693448"><ele>169.0</ele><time>2026-04-19T14:52:09.001Z</time></trkpt><trkpt lat="45.56164641635643" lon="9.022300796206013"><ele>169.5</ele><time>2026-04-19T14:52:10.001Z</time></trkpt><trkpt lat="45.5616364102783" lon="9.022488141496172"><ele>170.0</ele><time>2026-04-19T14:52:11.001Z</time></trkpt><trkpt lat="45.56162762216828" lon="9.022669278559377"><ele>170.5</ele><time>2026-04-19T14:52:12.001Z</time></trkpt><trkpt lat="45.56161845238534" lon="9.022832539500135"><ele>171.0</ele><time>2026-04-19T14:52:13.001Z</time></trkpt><trkpt lat="45.561602321476784" lon="9.022986765026857"><ele>171.0</ele><time>2026-04-19T14:52:14.001Z</time></trkpt><trkpt lat="45.56158914835719" lon="9.023147157911488"><ele>171.0</ele><time>2026-04-19T14:52:15.001Z</time></trkpt><trkpt lat="45.5615792950763" lon="9.023305616353808"><ele>171.0</ele><time>2026-04-19T14:52:16.001Z</time></trkpt><trkpt lat="45.56156489897129" lon="9.023469175670924"><ele>171.0</ele><time>2026-04-19T14:52:17.001Z</time></trkpt><trkpt lat="45.56155594677914" lon="9.023626134373414"><ele>171.16666666666666</ele><time>2026-04-19T14:52:18.001Z</time></trkpt><trkpt lat="45.561546584871046" lon="9.02376583771701"><ele>171.33333333333334</ele><time>2026-04-19T14:52:19.001Z</time></trkpt><trkpt lat="45.561535934809505" lon="9.02388716985733"><ele>171.5</ele><time>2026-04-19T14:52:20.001Z</time></trkpt><trkpt lat="45.561520803498176" lon="9.024001967470108"><ele>171.66666666666669</ele><time>2026-04-19T14:52:21.001Z</time></trkpt><trkpt lat="45.561496706909644" lon="9.024109299230203"><ele>171.83333333333334</ele><time>2026-04-19T14:52:22.001Z</time></trkpt><trkpt lat="45.561468755437815" lon="9.024193714905993"><ele>172.0</ele><time>2026-04-19T14:52:23.001Z</time></trkpt><trkpt lat="45.56142432066611" lon="9.024289982429798"><ele>172.0</ele><time>2026-04-19T14:52:26.001Z</time></trkpt><trkpt lat="45.561360399800925" lon="9.024458489882614"><ele>172.0</ele><time>2026-04-19T14:52:28.001Z</time></trkpt><trkpt lat="45.561346624625465" lon="9.02457771641521"><ele>172.0</ele><time>2026-04-19T14:52:29.001Z</time></trkpt><trkpt lat="45.561362419499204" lon="9.024689162598465"><ele>172.0</ele><time>2026-04-19T14:52:30.001Z</time></trkpt><trkpt lat="45.561400207696096" lon="9.024786367898509"><ele>172.0</ele><time>2026-04-19T14:52:31.001Z</time></trkpt><trkpt lat="45.561438629506306" lon="9.02488143772867"><ele>172.0</ele><time>2026-04-19T14:52:32.001Z</time></trkpt><trkpt lat="45.561459409464774" lon="9.02499160327741"><ele>172.0</ele><time>2026-04-19T14:52:33.001Z</time></trkpt><trkpt lat="45.56146264624652" lon="9.025105878105077"><ele>172.0</ele><time>2026-04-19T14:52:34.001Z</time></trkpt><trkpt lat="45.56145226879664" lon="9.025233452101988"><ele>172.0</ele><time>2026-04-19T14:52:35.001Z</time></trkpt><trkpt lat="45.56144020275436" lon="9.025375087238432"><ele>172.0</ele><time>2026-04-19T14:52:36.001Z</time></trkpt><trkpt lat="45.56143301042376" lon="9.025515262613286"><ele>172.0</ele><time>2026-04-19T14:52:37.001Z</time></trkpt><trkpt lat="45.561417633780174" lon="9.025666944583019"><ele>171.5</ele><time>2026-04-19T14:52:38.001Z</time></trkpt><trkpt lat="45.56141268274914" lon="9.025819028953892"><ele>171.0</ele><time>2026-04-19T14:52:39.001Z</time></trkpt><trkpt lat="45.561401385779334" lon="9.02597256532155"><ele>170.5</ele><time>2026-04-19T14:52:40.001Z</time></trkpt><trkpt lat="45.561389150372904" lon="9.026174938588314"><ele>170.0</ele><time>2026-04-19T14:52:41.001Z</time></trkpt><trkpt lat="45.56137095727901" lon="9.026456881592367"><ele>170.0</ele><time>2026-04-19T14:52:42.001Z</time></trkpt><trkpt lat="45.56133917527026" lon="9.026741546691262"><ele>170.0</ele><time>2026-04-19T14:52:43.001Z</time></trkpt><trkpt lat="45.56131410145017" lon="9.026968558052689"><ele>170.0</ele><time>2026-04-19T14:52:44.001Z</time></trkpt><trkpt lat="45.56130142024708" lon="9.02716115769824"><ele>170.0</ele><time>2026-04-19T14:52:45.001Z</time></trkpt><trkpt lat="45.56128955782154" lon="9.02732524253686"><ele>170.0</ele><time>2026-04-19T14:52:46.001Z</time></trkpt><trkpt lat="45.56128183821199" lon="9.027460493282163"><ele>170.0</ele><time>2026-04-19T14:52:47.001Z</time></trkpt><trkpt lat="45.56127058258541" lon="9.027570755640054"><ele>170.0</ele><time>2026-04-19T14:52:48.001Z</time></trkpt><trkpt lat="45.561227844521014" lon="9.027740537066917"><ele>170.0</ele><time>2026-04-19T14:52:50.001Z</time></trkpt><trkpt lat="45.56118501084871" lon="9.027838678103306"><ele>170.2</ele><time>2026-04-19T14:52:51.001Z</time></trkpt><trkpt lat="45.561144094041154" lon="9.027942884179364"><ele>170.4</ele><time>2026-04-19T14:52:52.001Z</time></trkpt><trkpt lat="45.561122688299236" lon="9.028058835749885"><ele>170.60000000000002</ele><time>2026-04-19T14:52:52.999Z</time></trkpt><trkpt lat="45.56112780137361" lon="9.02819559777089"><ele>170.8</ele><time>2026-04-19T14:52:53.999Z</time></trkpt><trkpt lat="45.56114820692634" lon="9.028326691914158"><ele>171.0</ele><time>2026-04-19T14:52:54.999Z</time></trkpt><trkpt lat="45.561163579874254" lon="9.028472222898888"><ele>171.0</ele><time>2026-04-19T14:52:55.999Z</time></trkpt><trkpt lat="45.56116441587728" lon="9.02863580899302"><ele>171.0</ele><time>2026-04-19T14:52:56.999Z</time></trkpt><trkpt lat="45.561145052620724" lon="9.028807599675924"><ele>171.0</ele><time>2026-04-19T14:52:57.999Z</time></trkpt><trkpt lat="45.561108664646035" lon="9.028959219267929"><ele>171.0</ele><time>2026-04-19T14:52:58.999Z</time></trkpt><trkpt lat="45.561079204187465" lon="9.029092330780419"><ele>171.0</ele><time>2026-04-19T14:52:59.999Z</time></trkpt><trkpt lat="45.561060125203014" lon="9.02922900578195"><ele>171.0</ele><time>2026-04-19T14:53:00.999Z</time></trkpt><trkpt lat="45.561048838202204" lon="9.02936847156486"><ele>171.0</ele><time>2026-04-19T14:53:01.999Z</time></trkpt><trkpt lat="45.5610377106247" lon="9.0295168327734"><ele>171.0</ele><time>2026-04-19T14:53:02.999Z</time></trkpt><trkpt lat="45.56102081159349" lon="9.02966837229571"><ele>171.0</ele><time>2026-04-19T14:53:03.999Z</time></trkpt><trkpt lat="45.561006216438095" lon="9.029828259729648"><ele>171.0</ele><time>2026-04-19T14:53:04.999Z</time></trkpt><trkpt lat="45.560988435149945" lon="9.029989278647873"><ele>171.0</ele><time>2026-04-19T14:53:05.999Z</time></trkpt><trkpt lat="45.56097442416627" lon="9.030151608124315"><ele>171.0</ele><time>2026-04-19T14:53:06.999Z</time></trkpt><trkpt lat="45.5609632308251" lon="9.030297710806902"><ele>171.0</ele><time>2026-04-19T14:53:07.999Z</time></trkpt><trkpt lat="45.56094733571734" lon="9.030435039240643"><ele>171.0</ele><time>2026-04-19T14:53:08.999Z</time></trkpt><trkpt lat="45.56092509407474" lon="9.030578220314577"><ele>171.0</ele><time>2026-04-19T14:53:10Z</time></trkpt><trkpt lat="45.560897675487" lon="9.030730318012656"><ele>171.20000000000002</ele><time>2026-04-19T14:53:11Z</time></trkpt><trkpt lat="45.56086219865392" lon="9.030873939122404"><ele>171.4</ele><time>2026-04-19T14:53:12Z</time></trkpt><trkpt lat="45.56082491391905" lon="9.031011911685978"><ele>171.6</ele><time>2026-04-19T14:53:13Z</time></trkpt><trkpt lat="45.560784135124834" lon="9.031143864022233"><ele>171.8</ele><time>2026-04-19T14:53:14Z</time></trkpt><trkpt lat="45.56073306364647" lon="9.031269750745073"><ele>172.0</ele><time>2026-04-19T14:53:15Z</time></trkpt><trkpt lat="45.56067736627713" lon="9.03138862884208"><ele>172.0</ele><time>2026-04-19T14:53:16Z</time></trkpt><trkpt lat="45.56062487303001" lon="9.031502819591545"><ele>172.0</ele><time>2026-04-19T14:53:17Z</time></trkpt><trkpt lat="45.56057243830092" lon="9.031629003370329"><ele>172.0</ele><time>2026-04-19T14:53:18Z</time></trkpt><trkpt lat="45.56053689176245" lon="9.031764203826455"><ele>172.0</ele><time>2026-04-19T14:53:19Z</time></trkpt><trkpt lat="45.56050830284886" lon="9.031906510446415"><ele>172.0</ele><time>2026-04-19T14:53:20Z</time></trkpt><trkpt lat="45.56049132221349" lon="9.032059114686056"><ele>172.0</ele><time>2026-04-19T14:53:21Z</time></trkpt><trkpt lat="45.560480694490806" lon="9.032217861831915"><ele>172.0</ele><time>2026-04-19T14:53:22Z</time></trkpt><trkpt lat="45.56047904139533" lon="9.032380181488858"><ele>172.0</ele><time>2026-04-19T14:53:23Z</time></trkpt><trkpt lat="45.56048561555454" lon="9.032545971699468"><ele>172.0</ele><time>2026-04-19T14:53:24Z</time></trkpt><trkpt lat="45.56049832664879" lon="9.032690792935762"><ele>172.0</ele><time>2026-04-19T14:53:25Z</time></trkpt><trkpt lat="45.560511212079426" lon="9.032827131112235"><ele>172.0</ele><time>2026-04-19T14:53:26Z</time></trkpt><trkpt lat="45.560531048567185" lon="9.032966749199554"><ele>172.0</ele><time>2026-04-19T14:53:27Z</time></trkpt><trkpt lat="45.560539884445625" lon="9.033101987943004"><ele>172.0</ele><time>2026-04-19T14:53:28Z</time></trkpt><trkpt lat="45.56053436784728" lon="9.033223987303948"><ele>172.0</ele><time>2026-04-19T14:53:29Z</time></trkpt><trkpt lat="45.56051260015381" lon="9.033348558791939"><ele>172.0</ele><time>2026-04-19T14:53:30Z</time></trkpt><trkpt lat="45.56046411764583" lon="9.033472452111516"><ele>172.0</ele><time>2026-04-19T14:53:31Z</time></trkpt><trkpt lat="45.560395540373754" lon="9.033580708035531"><ele>172.0</ele><time>2026-04-19T14:53:32Z</time></trkpt><trkpt lat="45.56031875108479" lon="9.033645326612989"><ele>172.0</ele><time>2026-04-19T14:53:33Z</time></trkpt><trkpt lat="45.560248654365004" lon="9.033684904668982"><ele>172.0</ele><time>2026-04-19T14:53:34Z</time></trkpt><trkpt lat="45.560177858182094" lon="9.033701642057032"><ele>172.0</ele><time>2026-04-19T14:53:35Z</time></trkpt><trkpt lat="45.56009805791257" lon="9.03371645677475"><ele>172.0</ele><time>2026-04-19T14:53:36Z</time></trkpt><trkpt lat="45.56001337295949" lon="9.033757815915315"><ele>172.0</ele><time>2026-04-19T14:53:37Z</time></trkpt><trkpt lat="45.55994728428348" lon="9.033843313929847"><ele>172.0</ele><time>2026-04-19T14:53:38Z</time></trkpt><trkpt lat="45.559896477926536" lon="9.03396499708903"><ele>172.0</ele><time>2026-04-19T14:53:39Z</time></trkpt><trkpt lat="45.55989268292827" lon="9.034093768045867"><ele>172.0</ele><time>2026-04-19T14:53:40Z</time></trkpt><trkpt lat="45.55993741157058" lon="9.03421919770074"><ele>172.0</ele><time>2026-04-19T14:53:41Z</time></trkpt><trkpt lat="45.56001896513933" lon="9.034325254216888"><ele>172.0</ele><time>2026-04-19T14:53:42Z</time></trkpt><trkpt lat="45.56011942348186" lon="9.03442865391135"><ele>172.0</ele><time>2026-04-19T14:53:43Z</time></trkpt><trkpt lat="45.5602144680292" lon="9.03458984041644"><ele>172.0</ele><time>2026-04-19T14:53:44Z</time></trkpt><trkpt lat="45.56030963768832" lon="9.034820614887437"><ele>172.5</ele><time>2026-04-19T14:53:45Z</time></trkpt><trkpt lat="45.56036672187596" lon="9.035143284597478"><ele>173.0</ele><time>2026-04-19T14:53:46Z</time></trkpt><trkpt lat="45.560454413096664" lon="9.035474590449786"><ele>173.0</ele><time>2026-04-19T14:53:47Z</time></trkpt><trkpt lat="45.560588731710865" lon="9.035822623284856"><ele>173.0</ele><time>2026-04-19T14:53:48Z</time></trkpt><trkpt lat="45.56075521368966" lon="9.036143959366617"><ele>173.0</ele><time>2026-04-19T14:53:49Z</time></trkpt><trkpt lat="45.56090885018697" lon="9.036407864120342"><ele>173.0</ele><time>2026-04-19T14:53:50Z</time></trkpt><trkpt lat="45.56104118423395" lon="9.036640037267471"><ele>172.66666666666666</ele><time>2026-04-19T14:53:51Z</time></trkpt><trkpt lat="45.56114937327339" lon="9.036850647037705"><ele>172.33333333333334</ele><time>2026-04-19T14:53:52Z</time></trkpt><trkpt lat="45.56124913605093" lon="9.037049350594692"><ele>172.0</ele><time>2026-04-19T14:53:53Z</time></trkpt><trkpt lat="45.56132887790211" lon="9.03724278436979"><ele>172.0</ele><time>2026-04-19T14:53:54Z</time></trkpt><trkpt lat="45.561387526523184" lon="9.037438824165836"><ele>172.0</ele><time>2026-04-19T14:53:55Z</time></trkpt><trkpt lat="45.56142455422214" lon="9.03763482047874"><ele>172.0</ele><time>2026-04-19T14:53:56Z</time></trkpt><trkpt lat="45.561442156129544" lon="9.037838242395566"><ele>172.0</ele><time>2026-04-19T14:53:57Z</time></trkpt><trkpt lat="45.56143750994409" lon="9.038055739301807"><ele>172.0</ele><time>2026-04-19T14:53:58.001Z</time></trkpt><trkpt lat="45.56142655451964" lon="9.038278431842185"><ele>172.0</ele><time>2026-04-19T14:53:59.001Z</time></trkpt><trkpt lat="45.56141886346719" lon="9.038476176008125"><ele>172.0</ele><time>2026-04-19T14:54:00.001Z</time></trkpt><trkpt lat="45.561414219257934" lon="9.03863993517605"><ele>172.0</ele><time>2026-04-19T14:54:01.001Z</time></trkpt><trkpt lat="45.561418840241124" lon="9.038786116177818"><ele>171.39999999999998</ele><time>2026-04-19T14:54:02.001Z</time></trkpt><trkpt lat="45.561434177590236" lon="9.038924951425859"><ele>170.79999999999998</ele><time>2026-04-19T14:54:03.001Z</time></trkpt><trkpt lat="45.56143417759003" lon="9.039077288737346"><ele>170.2</ele><time>2026-04-19T14:54:04.001Z</time></trkpt><trkpt lat="45.56137564414136" lon="9.039240976557236"><ele>169.6</ele><time>2026-04-19T14:54:05.001Z</time></trkpt><trkpt lat="45.561378041201266" lon="9.03939087456467"><ele>169.0</ele><time>2026-04-19T14:54:06.001Z</time></trkpt><trkpt lat="45.56142355917943" lon="9.03952906444081"><ele>168.75</ele><time>2026-04-19T14:54:07.001Z</time></trkpt><trkpt lat="45.56151217745945" lon="9.03964190146599"><ele>168.5</ele><time>2026-04-19T14:54:08.001Z</time></trkpt><trkpt lat="45.56163124069434" lon="9.039732681129433"><ele>168.25</ele><time>2026-04-19T14:54:09.001Z</time></trkpt><trkpt lat="45.56174093499719" lon="9.039846250199089"><ele>168.0</ele><time>2026-04-19T14:54:10.001Z</time></trkpt><trkpt lat="45.561806722890005" lon="9.040020389994158"><ele>168.0</ele><time>2026-04-19T14:54:11.001Z</time></trkpt><trkpt lat="45.561844128605905" lon="9.040242688927105"><ele>168.0</ele><time>2026-04-19T14:54:12.001Z</time></trkpt><trkpt lat="45.56189091924716" lon="9.040483439426799"><ele>168.0</ele><time>2026-04-19T14:54:13.001Z</time></trkpt><trkpt lat="45.56194326438325" lon="9.040733034705879"><ele>168.0</ele><time>2026-04-19T14:54:14.001Z</time></trkpt><trkpt lat="45.56199232969049" lon="9.040992364238297"><ele>168.0</ele><time>2026-04-19T14:54:15.001Z</time></trkpt><trkpt lat="45.56202878615353" lon="9.041227266098376"><ele>168.0</ele><time>2026-04-19T14:54:16.001Z</time></trkpt><trkpt lat="45.56205299497875" lon="9.041440639089217"><ele>168.0</ele><time>2026-04-19T14:54:17.001Z</time></trkpt><trkpt lat="45.56206774182035" lon="9.041638851197154"><ele>168.0</ele><time>2026-04-19T14:54:18.001Z</time></trkpt><trkpt lat="45.562075761789586" lon="9.041835560046486"><ele>168.0</ele><time>2026-04-19T14:54:19.001Z</time></trkpt><trkpt lat="45.5620793261925" lon="9.04203651357765"><ele>168.0</ele><time>2026-04-19T14:54:20.001Z</time></trkpt><trkpt lat="45.56207781666466" lon="9.042238600443092"><ele>168.0</ele><time>2026-04-19T14:54:21.001Z</time></trkpt><trkpt lat="45.56206776435311" lon="9.042438731726817"><ele>168.0</ele><time>2026-04-19T14:54:22.001Z</time></trkpt><trkpt lat="45.5620568989395" lon="9.04261898016496"><ele>168.0</ele><time>2026-04-19T14:54:23.001Z</time></trkpt><trkpt lat="45.562042505881884" lon="9.042779323101911"><ele>168.0</ele><time>2026-04-19T14:54:24.001Z</time></trkpt><trkpt lat="45.56202587550136" lon="9.042927310622694"><ele>168.33333333333334</ele><time>2026-04-19T14:54:25.001Z</time></trkpt><trkpt lat="45.56200619509294" lon="9.043058509883984"><ele>168.66666666666666</ele><time>2026-04-19T14:54:26.001Z</time></trkpt><trkpt lat="45.56198684971439" lon="9.04318077933269"><ele>169.0</ele><time>2026-04-19T14:54:27.001Z</time></trkpt><trkpt lat="45.56195853092139" lon="9.04330243207204"><ele>169.33333333333331</ele><time>2026-04-19T14:54:28.001Z</time></trkpt><trkpt lat="45.5619275244061" lon="9.0434218409328"><ele>169.66666666666666</ele><time>2026-04-19T14:54:29.001Z</time></trkpt><trkpt lat="45.561900496551374" lon="9.04352671395348"><ele>170.0</ele><time>2026-04-19T14:54:30.001Z</time></trkpt><trkpt lat="45.56187570921644" lon="9.043618407419505"><ele>170.0</ele><time>2026-04-19T14:54:31.001Z</time></trkpt><trkpt lat="45.56187311667311" lon="9.043732531929491"><ele>170.0</ele><time>2026-04-19T14:54:32.001Z</time></trkpt><trkpt lat="45.56184547964664" lon="9.043823415544077"><ele>170.0</ele><time>2026-04-19T14:54:33.001Z</time></trkpt><trkpt lat="45.56174064142483" lon="9.043952748650694"><ele>170.0</ele><time>2026-04-19T14:54:35.001Z</time></trkpt><trkpt lat="45.56165819919026" lon="9.044026015773722"><ele>170.0</ele><time>2026-04-19T14:54:36.001Z</time></trkpt><trkpt lat="45.56157695529741" lon="9.044112155887706"><ele>169.83333333333331</ele><time>2026-04-19T14:54:37.001Z</time></trkpt><trkpt lat="45.56151795511" lon="9.044186996107145"><ele>169.66666666666666</ele><time>2026-04-19T14:54:38.001Z</time></trkpt><trkpt lat="45.561470545815254" lon="9.04427541650607"><ele>169.5</ele><time>2026-04-19T14:54:39.001Z</time></trkpt><trkpt lat="45.56143594401817" lon="9.044383991860737"><ele>169.33333333333334</ele><time>2026-04-19T14:54:40.001Z</time></trkpt><trkpt lat="45.561421111650105" lon="9.044507344071054"><ele>169.16666666666669</ele><time>2026-04-19T14:54:41.001Z</time></trkpt><trkpt lat="45.561436405489275" lon="9.044638574493176"><ele>169.0</ele><time>2026-04-19T14:54:42.001Z</time></trkpt><trkpt lat="45.561474005765895" lon="9.044760063392996"><ele>169.0</ele><time>2026-04-19T14:54:43.001Z</time></trkpt><trkpt lat="45.56153575564921" lon="9.044865831253832"><ele>169.0</ele><time>2026-04-19T14:54:44.001Z</time></trkpt><trkpt lat="45.561621381124134" lon="9.044963183704633"><ele>169.0</ele><time>2026-04-19T14:54:45.001Z</time></trkpt><trkpt lat="45.56172184575749" lon="9.045044529334344"><ele>169.0</ele><time>2026-04-19T14:54:46.001Z</time></trkpt><trkpt lat="45.56182156136505" lon="9.045130846930142"><ele>169.0</ele><time>2026-04-19T14:54:47.001Z</time></trkpt><trkpt lat="45.56188969120161" lon="9.045259947349454"><ele>169.39999999999998</ele><time>2026-04-19T14:54:48.001Z</time></trkpt><trkpt lat="45.56193872899305" lon="9.045401345106841"><ele>169.8</ele><time>2026-04-19T14:54:49.001Z</time></trkpt><trkpt lat="45.561959369923" lon="9.04555735929558"><ele>170.2</ele><time>2026-04-19T14:54:50.001Z</time></trkpt><trkpt lat="45.56197111852578" lon="9.045712759731913"><ele>170.60000000000002</ele><time>2026-04-19T14:54:51.001Z</time></trkpt><trkpt lat="45.56197764100576" lon="9.045874083387119"><ele>171.0</ele><time>2026-04-19T14:54:52.001Z</time></trkpt><trkpt lat="45.56198122457697" lon="9.046060412384103"><ele>171.0</ele><time>2026-04-19T14:54:53.001Z</time></trkpt><trkpt lat="45.56198414461575" lon="9.046239579458256"><ele>171.0</ele><time>2026-04-19T14:54:54.001Z</time></trkpt><trkpt lat="45.5619767110682" lon="9.046416040433899"><ele>171.0</ele><time>2026-04-19T14:54:55.001Z</time></trkpt><trkpt lat="45.56196302822784" lon="9.046602712029976"><ele>171.0</ele><time>2026-04-19T14:54:56.001Z</time></trkpt><trkpt lat="45.56194266166589" lon="9.046798043680946"><ele>171.0</ele><time>2026-04-19T14:54:57.001Z</time></trkpt><trkpt lat="45.56191644085068" lon="9.047009963745493"><ele>171.0</ele><time>2026-04-19T14:54:58.001Z</time></trkpt><trkpt lat="45.56188894146806" lon="9.047234654401372"><ele>171.0</ele><time>2026-04-19T14:54:58.999Z</time></trkpt><trkpt lat="45.561856405659995" lon="9.047467871007063"><ele>170.66666666666666</ele><time>2026-04-19T14:54:59.999Z</time></trkpt><trkpt lat="45.5618233231439" lon="9.047711821308532"><ele>170.33333333333331</ele><time>2026-04-19T14:55:00.999Z</time></trkpt><trkpt lat="45.56179308280923" lon="9.04795849566963"><ele>170.0</ele><time>2026-04-19T14:55:01.999Z</time></trkpt><trkpt lat="45.56176260195637" lon="9.048209885990559"><ele>170.33333333333331</ele><time>2026-04-19T14:55:02.999Z</time></trkpt><trkpt lat="45.5617348343628" lon="9.048440402915283"><ele>170.66666666666666</ele><time>2026-04-19T14:55:03.999Z</time></trkpt><trkpt lat="45.5617070074183" lon="9.048655367326875"><ele>171.0</ele><time>2026-04-19T14:55:04.999Z</time></trkpt><trkpt lat="45.56168078891106" lon="9.048854920471417"><ele>171.0</ele><time>2026-04-19T14:55:05.999Z</time></trkpt><trkpt lat="45.56165509003715" lon="9.04904443289493"><ele>171.0</ele><time>2026-04-19T14:55:06.999Z</time></trkpt><trkpt lat="45.56162713662454" lon="9.049236529562911"><ele>171.0</ele><time>2026-04-19T14:55:07.999Z</time></trkpt><trkpt lat="45.561597828318234" lon="9.049427418698446"><ele>171.0</ele><time>2026-04-19T14:55:08.999Z</time></trkpt><trkpt lat="45.5615695239482" lon="9.049606097673333"><ele>171.4</ele><time>2026-04-19T14:55:09.999Z</time></trkpt><trkpt lat="45.56154666966315" lon="9.049765949447517"><ele>171.8</ele><time>2026-04-19T14:55:10.999Z</time></trkpt><trkpt lat="45.56152469018224" lon="9.049916976273824"><ele>172.20000000000002</ele><time>2026-04-19T14:55:11.999Z</time></trkpt><trkpt lat="45.56149997256688" lon="9.050072295501389"><ele>172.60000000000002</ele><time>2026-04-19T14:55:12.999Z</time></trkpt><trkpt lat="45.5614868499836" lon="9.050236235464556"><ele>173.0</ele><time>2026-04-19T14:55:13.999Z</time></trkpt><trkpt lat="45.561463464268236" lon="9.050377218338543"><ele>173.0</ele><time>2026-04-19T14:55:14.999Z</time></trkpt><trkpt lat="45.56144230510383" lon="9.0505144638923"><ele>173.0</ele><time>2026-04-19T14:55:15.999Z</time></trkpt><trkpt lat="45.561420732552406" lon="9.050654911898867"><ele>173.0</ele><time>2026-04-19T14:55:16.999Z</time></trkpt><trkpt lat="45.561403789261874" lon="9.050788704761814"><ele>173.0</ele><time>2026-04-19T14:55:18Z</time></trkpt><trkpt lat="45.561388249377785" lon="9.05090949705843"><ele>173.0</ele><time>2026-04-19T14:55:19Z</time></trkpt><trkpt lat="45.56137569817707" lon="9.051008588622668"><ele>173.0</ele><time>2026-04-19T14:55:20Z</time></trkpt><trkpt lat="45.56135406986991" lon="9.051152146204501"><ele>173.0</ele><time>2026-04-19T14:55:22Z</time></trkpt><trkpt lat="45.5613472736542" lon="9.05124749555956"><ele>173.0</ele><time>2026-04-19T14:55:24Z</time></trkpt><trkpt lat="45.56132656345446" lon="9.05134576051109"><ele>173.0</ele><time>2026-04-19T14:55:27Z</time></trkpt><trkpt lat="45.56131230821314" lon="9.051451175407077"><ele>173.0</ele><time>2026-04-19T14:55:32Z</time></trkpt><trkpt lat="45.5612956840774" lon="9.051553601038492"><ele>173.0</ele><time>2026-04-19T14:55:35Z</time></trkpt><trkpt lat="45.56127096547199" lon="9.051637914368364"><ele>173.0</ele><time>2026-04-19T14:55:45Z</time></trkpt><trkpt lat="45.561246704651516" lon="9.051736746053333"><ele>173.0</ele><time>2026-04-19T14:55:47Z</time></trkpt><trkpt lat="45.56121239406626" lon="9.051851368162275"><ele>173.0</ele><time>2026-04-19T14:55:49Z</time></trkpt><trkpt lat="45.56113882658001" lon="9.051939139832006"><ele>173.0</ele><time>2026-04-19T14:55:51Z</time></trkpt><trkpt lat="45.56110723041305" lon="9.052053651544513"><ele>173.0</ele><time>2026-04-19T14:55:53Z</time></trkpt><trkpt lat="45.56110788385758" lon="9.052150213821857"><ele>173.0</ele><time>2026-04-19T14:55:55Z</time></trkpt><trkpt lat="45.56113087557357" lon="9.052279061579883"><ele>173.0</ele><time>2026-04-19T14:55:57Z</time></trkpt><trkpt lat="45.56120159149846" lon="9.052381586727861"><ele>173.0</ele><time>2026-04-19T14:55:59Z</time></trkpt><trkpt lat="45.561259471419895" lon="9.052446264831493"><ele>173.0</ele><time>2026-04-19T14:56:00.001Z</time></trkpt><trkpt lat="45.56131549831699" lon="9.052566094098227"><ele>173.0</ele><time>2026-04-19T14:56:01.001Z</time></trkpt><trkpt lat="45.56135749235128" lon="9.05270701981211"><ele>173.0</ele><time>2026-04-19T14:56:02.001Z</time></trkpt><trkpt lat="45.561404557323606" lon="9.05283690974292"><ele>173.0</ele><time>2026-04-19T14:56:03.001Z</time></trkpt><trkpt lat="45.56143922058808" lon="9.052972906924138"><ele>173.0</ele><time>2026-04-19T14:56:04.001Z</time></trkpt><trkpt lat="45.561465267843445" lon="9.053125149222334"><ele>173.0</ele><time>2026-04-19T14:56:05.001Z</time></trkpt><trkpt lat="45.56148697633433" lon="9.053288610187938"><ele>173.0</ele><time>2026-04-19T14:56:06.001Z</time></trkpt><trkpt lat="45.56151230265415" lon="9.053465828246923"><ele>173.0</ele><time>2026-04-19T14:56:07.001Z</time></trkpt><trkpt lat="45.561530218326" lon="9.053630909872158"><ele>173.0</ele><time>2026-04-19T14:56:08.001Z</time></trkpt><trkpt lat="45.561545739974825" lon="9.053776461549841"><ele>173.0</ele><time>2026-04-19T14:56:09.001Z</time></trkpt><trkpt lat="45.56156344196247" lon="9.053921415764977"><ele>173.0</ele><time>2026-04-19T14:56:10.001Z</time></trkpt><trkpt lat="45.561581957243824" lon="9.054081200764154"><ele>173.0</ele><time>2026-04-19T14:56:11.001Z</time></trkpt><trkpt lat="45.5616024904769" lon="9.054239663612556"><ele>172.60000000000002</ele><time>2026-04-19T14:56:12.001Z</time></trkpt><trkpt lat="45.561619923706985" lon="9.054395917191401"><ele>172.20000000000002</ele><time>2026-04-19T14:56:13.001Z</time></trkpt><trkpt lat="45.561638383444084" lon="9.054547777328636"><ele>171.8</ele><time>2026-04-19T14:56:14.001Z</time></trkpt><trkpt lat="45.561661426319645" lon="9.05467548854563"><ele>171.4</ele><time>2026-04-19T14:56:15.001Z</time></trkpt><trkpt lat="45.56168979881149" lon="9.054785133977514"><ele>171.0</ele><time>2026-04-19T14:56:16.001Z</time></trkpt><trkpt lat="45.56171569577215" lon="9.054876613530675"><ele>171.4</ele><time>2026-04-19T14:56:17.001Z</time></trkpt><trkpt lat="45.56175285878523" lon="9.055028732340826"><ele>171.8</ele><time>2026-04-19T14:56:19.001Z</time></trkpt><trkpt lat="45.56178201164097" lon="9.05511211372577"><ele>172.20000000000002</ele><time>2026-04-19T14:56:21.001Z</time></trkpt><trkpt lat="45.56178960180197" lon="9.055241820995244"><ele>172.60000000000002</ele><time>2026-04-19T14:56:24.001Z</time></trkpt><trkpt lat="45.56174092560085" lon="9.055375134482826"><ele>173.0</ele><time>2026-04-19T14:56:26.001Z</time></trkpt><trkpt lat="45.56174291643997" lon="9.055538152498546"><ele>173.0</ele><time>2026-04-19T14:56:28.001Z</time></trkpt><trkpt lat="45.5617892411465" lon="9.055688194445388"><ele>173.0</ele><time>2026-04-19T14:56:30.001Z</time></trkpt><trkpt lat="45.56184334877279" lon="9.055759804801326"><ele>173.0</ele><time>2026-04-19T14:56:31.001Z</time></trkpt><trkpt lat="45.56183536806682" lon="9.055910648377793"><ele>173.0</ele><time>2026-04-19T14:56:32.001Z</time></trkpt><trkpt lat="45.56183786431641" lon="9.056050667313915"><ele>173.0</ele><time>2026-04-19T14:56:33.001Z</time></trkpt><trkpt lat="45.56183525809778" lon="9.05618594559982"><ele>172.4</ele><time>2026-04-19T14:56:34.001Z</time></trkpt><trkpt lat="45.561838487222005" lon="9.056320244880217"><ele>171.8</ele><time>2026-04-19T14:56:35.001Z</time></trkpt><trkpt lat="45.56184964800528" lon="9.056468819010101"><ele>171.2</ele><time>2026-04-19T14:56:36.001Z</time></trkpt><trkpt lat="45.561864148728894" lon="9.0566306498287"><ele>170.6</ele><time>2026-04-19T14:56:37.001Z</time></trkpt><trkpt lat="45.561881019450574" lon="9.05678768423324"><ele>170.0</ele><time>2026-04-19T14:56:38.001Z</time></trkpt><trkpt lat="45.561904318505086" lon="9.056973264811864"><ele>170.0</ele><time>2026-04-19T14:56:39.001Z</time></trkpt><trkpt lat="45.56193236907659" lon="9.057188668429394"><ele>170.0</ele><time>2026-04-19T14:56:40.001Z</time></trkpt><trkpt lat="45.56197597240188" lon="9.057445420682708"><ele>170.0</ele><time>2026-04-19T14:56:41.001Z</time></trkpt><trkpt lat="45.56201046812432" lon="9.057682036120935"><ele>173.0</ele><time>2026-04-19T14:56:42.001Z</time></trkpt><trkpt lat="45.562039503672835" lon="9.05790697816154"><ele>176.0</ele><time>2026-04-19T14:56:43.001Z</time></trkpt><trkpt lat="45.56205978709201" lon="9.058148890665455"><ele>179.0</ele><time>2026-04-19T14:56:44.001Z</time></trkpt><trkpt lat="45.56207522366988" lon="9.058405006547202"><ele>179.0</ele><time>2026-04-19T14:56:45.001Z</time></trkpt><trkpt lat="45.562099270717276" lon="9.058666371602387"><ele>179.0</ele><time>2026-04-19T14:56:46.001Z</time></trkpt><trkpt lat="45.56213183131042" lon="9.058920744538492"><ele>179.0</ele><time>2026-04-19T14:56:47.001Z</time></trkpt><trkpt lat="45.56216161633721" lon="9.059152059781336"><ele>179.33333333333331</ele><time>2026-04-19T14:56:48.001Z</time></trkpt><trkpt lat="45.562184458942795" lon="9.05937667474777"><ele>179.66666666666666</ele><time>2026-04-19T14:56:49.001Z</time></trkpt><trkpt lat="45.56221030139988" lon="9.05960708946994"><ele>180.0</ele><time>2026-04-19T14:56:50.001Z</time></trkpt><trkpt lat="45.56223583146921" lon="9.059823079172777"><ele>178.75</ele><time>2026-04-19T14:56:51.001Z</time></trkpt><trkpt lat="45.56225875877943" lon="9.060023208772394"><ele>177.5</ele><time>2026-04-19T14:56:52.001Z</time></trkpt><trkpt lat="45.56228259390744" lon="9.060213108662927"><ele>176.25</ele><time>2026-04-19T14:56:53.001Z</time></trkpt><trkpt lat="45.562309580435894" lon="9.06039799851013"><ele>175.0</ele><time>2026-04-19T14:56:54.002Z</time></trkpt><trkpt lat="45.56232587108645" lon="9.060595372849807"><ele>174.0</ele><time>2026-04-19T14:56:55.002Z</time></trkpt><trkpt lat="45.56234837398403" lon="9.060801669939536"><ele>173.0</ele><time>2026-04-19T14:56:56.002Z</time></trkpt><trkpt lat="45.56237686391014" lon="9.061023743454106"><ele>172.0</ele><time>2026-04-19T14:56:57.002Z</time></trkpt><trkpt lat="45.56241014383855" lon="9.061253954723027"><ele>172.0</ele><time>2026-04-19T14:56:58.002Z</time></trkpt><trkpt lat="45.562445753531996" lon="9.061498405101037"><ele>172.0</ele><time>2026-04-19T14:56:59.002Z</time></trkpt><trkpt lat="45.56247332177168" lon="9.061732893027367"><ele>172.0</ele><time>2026-04-19T14:57:00.002Z</time></trkpt><trkpt lat="45.56250026426324" lon="9.061947934665337"><ele>172.0</ele><time>2026-04-19T14:57:01.002Z</time></trkpt><trkpt lat="45.562522300147414" lon="9.062148596578718"><ele>172.0</ele><time>2026-04-19T14:57:02.002Z</time></trkpt><trkpt lat="45.56254651154011" lon="9.062359961431472"><ele>172.0</ele><time>2026-04-19T14:57:03.002Z</time></trkpt><trkpt lat="45.56257118686749" lon="9.062571791258508"><ele>172.0</ele><time>2026-04-19T14:57:04.002Z</time></trkpt><trkpt lat="45.56259450639917" lon="9.062774625893102"><ele>172.0</ele><time>2026-04-19T14:57:04.999Z</time></trkpt><trkpt lat="45.562617420212895" lon="9.062956231150432"><ele>172.0</ele><time>2026-04-19T14:57:05.999Z</time></trkpt><trkpt lat="45.56264053982836" lon="9.063121240336152"><ele>172.0</ele><time>2026-04-19T14:57:06.999Z</time></trkpt><trkpt lat="45.56265113694203" lon="9.063272063999719"><ele>172.0</ele><time>2026-04-19T14:57:07.999Z</time></trkpt><trkpt lat="45.56267667985264" lon="9.063406567017934"><ele>172.16666666666669</ele><time>2026-04-19T14:57:08.999Z</time></trkpt><trkpt lat="45.56269748313914" lon="9.06352824108908"><ele>172.33333333333334</ele><time>2026-04-19T14:57:09.999Z</time></trkpt><trkpt lat="45.562726196270134" lon="9.063628404868867"><ele>172.5</ele><time>2026-04-19T14:57:10.999Z</time></trkpt><trkpt lat="45.56274579928601" lon="9.063720476011836"><ele>172.66666666666666</ele><time>2026-04-19T14:57:11.999Z</time></trkpt><trkpt lat="45.56277595282799" lon="9.063878026312926"><ele>172.83333333333331</ele><time>2026-04-19T14:57:13.999Z</time></trkpt><trkpt lat="45.562791751424875" lon="9.063993251833912"><ele>173.0</ele><time>2026-04-19T14:57:15.999Z</time></trkpt><trkpt lat="45.56279538109772" lon="9.064139556073977"><ele>173.0</ele><time>2026-04-19T14:57:17.999Z</time></trkpt><trkpt lat="45.562762789772705" lon="9.06422738876043"><ele>173.0</ele><time>2026-04-19T14:57:19.999Z</time></trkpt><trkpt lat="45.56278389615193" lon="9.064337622208413"><ele>173.0</ele><time>2026-04-19T14:57:21.999Z</time></trkpt><trkpt lat="45.56280920422378" lon="9.064442469766579"><ele>173.0</ele><time>2026-04-19T14:57:22.999Z</time></trkpt><trkpt lat="45.562867927835306" lon="9.064537081764515"><ele>173.0</ele><time>2026-04-19T14:57:23.999Z</time></trkpt><trkpt lat="45.56288926067994" lon="9.064690654987647"><ele>173.0</ele><time>2026-04-19T14:57:24.999Z</time></trkpt><trkpt lat="45.56291123423079" lon="9.064861544854713"><ele>171.33333333333331</ele><time>2026-04-19T14:57:25.999Z</time></trkpt><trkpt lat="45.56290628593519" lon="9.06509293649338"><ele>169.66666666666666</ele><time>2026-04-19T14:57:26.999Z</time></trkpt><trkpt lat="45.562906179613094" lon="9.065346140448023"><ele>168.0</ele><time>2026-04-19T14:57:27.999Z</time></trkpt><trkpt lat="45.56290500865657" lon="9.06563720955095"><ele>168.33333333333334</ele><time>2026-04-19T14:57:28.999Z</time></trkpt><trkpt lat="45.56290699836861" lon="9.06590719294283"><ele>168.66666666666669</ele><time>2026-04-19T14:57:29.999Z</time></trkpt><trkpt lat="45.562910101824116" lon="9.066176231870019"><ele>169.0</ele><time>2026-04-19T14:57:31Z</time></trkpt><trkpt lat="45.562907821948954" lon="9.066460181665189"><ele>169.66666666666669</ele><time>2026-04-19T14:57:32Z</time></trkpt><trkpt lat="45.56289694961085" lon="9.066760308771904"><ele>170.33333333333334</ele><time>2026-04-19T14:57:33Z</time></trkpt><trkpt lat="45.56288765830051" lon="9.067039866367232"><ele>171.0</ele><time>2026-04-19T14:57:34Z</time></trkpt><trkpt lat="45.56288256592913" lon="9.067290422599237"><ele>171.33333333333334</ele><time>2026-04-19T14:57:35Z</time></trkpt><trkpt lat="45.56288982739746" lon="9.067510622363079"><ele>171.66666666666669</ele><time>2026-04-19T14:57:36Z</time></trkpt><trkpt lat="45.56289187087794" lon="9.067739660686312"><ele>172.0</ele><time>2026-04-19T14:57:37Z</time></trkpt><trkpt lat="45.5628927747031" lon="9.067969402412384"><ele>172.0</ele><time>2026-04-19T14:57:38Z</time></trkpt><trkpt lat="45.56288638872557" lon="9.068181937199716"><ele>172.0</ele><time>2026-04-19T14:57:39Z</time></trkpt><trkpt lat="45.562881112980854" lon="9.068388299667989"><ele>172.0</ele><time>2026-04-19T14:57:40Z</time></trkpt><trkpt lat="45.56288176529933" lon="9.068598306926887"><ele>172.0</ele><time>2026-04-19T14:57:41Z</time></trkpt><trkpt lat="45.562882344630395" lon="9.068805078584996"><ele>172.0</ele><time>2026-04-19T14:57:42Z</time></trkpt><trkpt lat="45.56288440677109" lon="9.068978548729396"><ele>172.0</ele><time>2026-04-19T14:57:43Z</time></trkpt><trkpt lat="45.562885765173014" lon="9.069154722053911"><ele>172.0</ele><time>2026-04-19T14:57:44Z</time></trkpt><trkpt lat="45.562883213444046" lon="9.069321684699787"><ele>172.0</ele><time>2026-04-19T14:57:45Z</time></trkpt><trkpt lat="45.562881052916445" lon="9.069487673000106"><ele>172.0</ele><time>2026-04-19T14:57:46Z</time></trkpt><trkpt lat="45.56288053644991" lon="9.069653213914972"><ele>172.0</ele><time>2026-04-19T14:57:47Z</time></trkpt><trkpt lat="45.56288162706634" lon="9.069814939140425"><ele>172.0</ele><time>2026-04-19T14:57:48Z</time></trkpt><trkpt lat="45.56288339003942" lon="9.069974111618217"><ele>172.0</ele><time>2026-04-19T14:57:49Z</time></trkpt><trkpt lat="45.562886284110625" lon="9.070142384139613"><ele>172.25</ele><time>2026-04-19T14:57:50Z</time></trkpt><trkpt lat="45.56289283246409" lon="9.07032336282361"><ele>172.5</ele><time>2026-04-19T14:57:51Z</time></trkpt><trkpt lat="45.5629000517575" lon="9.070512344636851"><ele>172.75</ele><time>2026-04-19T14:57:52Z</time></trkpt><trkpt lat="45.56290813406332" lon="9.070703669497881"><ele>173.0</ele><time>2026-04-19T14:57:53Z</time></trkpt><trkpt lat="45.56290073515141" lon="9.070899817243776"><ele>173.0</ele><time>2026-04-19T14:57:54Z</time></trkpt><trkpt lat="45.562887336899934" lon="9.071083891510524"><ele>173.0</ele><time>2026-04-19T14:57:55Z</time></trkpt><trkpt lat="45.562883075246624" lon="9.071261970657964"><ele>173.0</ele><time>2026-04-19T14:57:56Z</time></trkpt><trkpt lat="45.562884105599814" lon="9.07146430892158"><ele>173.0</ele><time>2026-04-19T14:57:57Z</time></trkpt><trkpt lat="45.56288157193151" lon="9.071669360798616"><ele>173.33333333333331</ele><time>2026-04-19T14:57:58Z</time></trkpt><trkpt lat="45.56288072548857" lon="9.071885333703023"><ele>173.66666666666666</ele><time>2026-04-19T14:57:59Z</time></trkpt><trkpt lat="45.56288249040091" lon="9.072093838464696"><ele>174.0</ele><time>2026-04-19T14:58:00Z</time></trkpt><trkpt lat="45.56288083315615" lon="9.07231309758904"><ele>174.25</ele><time>2026-04-19T14:58:01Z</time></trkpt><trkpt lat="45.56288316521715" lon="9.07251554210927"><ele>174.5</ele><time>2026-04-19T14:58:02Z</time></trkpt><trkpt lat="45.56288597417902" lon="9.07272032243674"><ele>174.75</ele><time>2026-04-19T14:58:03Z</time></trkpt><trkpt lat="45.56288369306239" lon="9.072929840230067"><ele>175.0</ele><time>2026-04-19T14:58:04Z</time></trkpt><trkpt lat="45.562880150351646" lon="9.07314098788197"><ele>174.5</ele><time>2026-04-19T14:58:05Z</time></trkpt><trkpt lat="45.5629040561589" lon="9.073331901727713"><ele>174.0</ele><time>2026-04-19T14:58:06Z</time></trkpt><trkpt lat="45.5629077675966" lon="9.073517573619812"><ele>173.5</ele><time>2026-04-19T14:58:07.001Z</time></trkpt><trkpt lat="45.562925412575105" lon="9.073697802861593"><ele>173.0</ele><time>2026-04-19T14:58:08.001Z</time></trkpt><trkpt lat="45.562877079531205" lon="9.073896778333996"><ele>173.0</ele><time>2026-04-19T14:58:09.001Z</time></trkpt><trkpt lat="45.56287682133098" lon="9.074067545366216"><ele>173.0</ele><time>2026-04-19T14:58:10.001Z</time></trkpt><trkpt lat="45.56287652681146" lon="9.07424455015111"><ele>173.0</ele><time>2026-04-19T14:58:11.001Z</time></trkpt><trkpt lat="45.56287709876801" lon="9.074411119798087"><ele>173.0</ele><time>2026-04-19T14:58:12.001Z</time></trkpt><trkpt lat="45.562873841999206" lon="9.074560789274846"><ele>172.60000000000002</ele><time>2026-04-19T14:58:13.001Z</time></trkpt><trkpt lat="45.562870246924454" lon="9.074687269915625"><ele>172.20000000000002</ele><time>2026-04-19T14:58:14.001Z</time></trkpt><trkpt lat="45.562866250893904" lon="9.074798957837197"><ele>171.8</ele><time>2026-04-19T14:58:15.001Z</time></trkpt><trkpt lat="45.562840853108526" lon="9.07493630692951"><ele>171.4</ele><time>2026-04-19T14:58:17.001Z</time></trkpt><trkpt lat="45.56268261979591" lon="9.075053598547905"><ele>171.0</ele><time>2026-04-19T14:58:21.001Z</time></trkpt><trkpt lat="45.56268761223137" lon="9.075214202282428"><ele>171.0</ele><time>2026-04-19T14:58:23.001Z</time></trkpt><trkpt lat="45.56270141497447" lon="9.075343639311848"><ele>171.0</ele><time>2026-04-19T14:58:25.001Z</time></trkpt><trkpt lat="45.56271238733613" lon="9.075479155899531"><ele>171.0</ele><time>2026-04-19T14:58:27.001Z</time></trkpt><trkpt lat="45.56271519891752" lon="9.075598138011692"><ele>171.0</ele><time>2026-04-19T14:58:29.001Z</time></trkpt><trkpt lat="45.56271832031841" lon="9.075697235878469"><ele>171.0</ele><time>2026-04-19T14:58:31.001Z</time></trkpt></trkseg></trk></gpx>